<?xml version="1.0" encoding="UTF-8" standalone="no" ?>
<gpx xmlns="http://www.topografix.com/GPX/1/1" xmlns:xsi="http://www.w3.org/2001/XMLSchema-instance" xsi:schemaLocation="http://www.topografix.com/GPX/1/1 http://www.topografix.com/GPX/1/1/gpx.xsd" version="1.1" creator="VisuGPX - https://www.visugpx.com">
  <metadata>
    <name>Le puit de l Aroumi</name>
    <desc><![CDATA[Randonnée sans difficulté majeure ]]></desc>
  </metadata>
  <trk>
    <name><![CDATA[LE PUIT DE L AROUMI]]></name>
    <trkseg>
      <trkpt lat="43.37061" lon="5.53735">
        <ele>221.24</ele>
        <time>2014-03-21T08:22:04Z</time>
      </trkpt>
      <trkpt lat="43.37061" lon="5.53733">
        <ele>221.24</ele>
        <time>2014-03-21T08:22:05Z</time>
      </trkpt>
      <trkpt lat="43.37056" lon="5.53727">
        <ele>226.53</ele>
        <time>2014-03-21T08:22:11Z</time>
      </trkpt>
      <trkpt lat="43.37055" lon="5.53727">
        <ele>229.89</ele>
        <time>2014-03-21T08:22:12Z</time>
      </trkpt>
      <trkpt lat="43.37055" lon="5.53726">
        <ele>235.18</ele>
        <time>2014-03-21T08:22:14Z</time>
      </trkpt>
      <trkpt lat="43.37055" lon="5.53726">
        <ele>239.99</ele>
        <time>2014-03-21T08:22:16Z</time>
      </trkpt>
      <trkpt lat="43.37057" lon="5.53726">
        <ele>244.31</ele>
        <time>2014-03-21T08:22:18Z</time>
      </trkpt>
      <trkpt lat="43.37057" lon="5.53725">
        <ele>249.6</ele>
        <time>2014-03-21T08:22:20Z</time>
      </trkpt>
      <trkpt lat="43.37058" lon="5.53724">
        <ele>254.41</ele>
        <time>2014-03-21T08:22:23Z</time>
      </trkpt>
      <trkpt lat="43.37057" lon="5.53724">
        <ele>257.77</ele>
        <time>2014-03-21T08:22:25Z</time>
      </trkpt>
      <trkpt lat="43.37057" lon="5.53724">
        <ele>250.56</ele>
        <time>2014-03-21T08:22:26Z</time>
      </trkpt>
      <trkpt lat="43.37057" lon="5.53724">
        <ele>267.86</ele>
        <time>2014-03-21T08:22:27Z</time>
      </trkpt>
      <trkpt lat="43.37057" lon="5.53725">
        <ele>263.06</ele>
        <time>2014-03-21T08:22:28Z</time>
      </trkpt>
      <trkpt lat="43.37057" lon="5.53725">
        <ele>264.5</ele>
        <time>2014-03-21T08:22:29Z</time>
      </trkpt>
      <trkpt lat="43.37054" lon="5.53723">
        <ele>267.86</ele>
        <time>2014-03-21T08:22:32Z</time>
      </trkpt>
      <trkpt lat="43.3705" lon="5.53719">
        <ele>273.15</ele>
        <time>2014-03-21T08:22:36Z</time>
      </trkpt>
      <trkpt lat="43.37048" lon="5.53719">
        <ele>277</ele>
        <time>2014-03-21T08:22:39Z</time>
      </trkpt>
      <trkpt lat="43.37047" lon="5.53717">
        <ele>279.88</ele>
        <time>2014-03-21T08:22:42Z</time>
      </trkpt>
      <trkpt lat="43.37045" lon="5.53716">
        <ele>283.73</ele>
        <time>2014-03-21T08:22:46Z</time>
      </trkpt>
      <trkpt lat="43.37046" lon="5.53718">
        <ele>287.09</ele>
        <time>2014-03-21T08:22:50Z</time>
      </trkpt>
      <trkpt lat="43.37048" lon="5.53718">
        <ele>290.94</ele>
        <time>2014-03-21T08:22:56Z</time>
      </trkpt>
      <trkpt lat="43.37048" lon="5.53717">
        <ele>291.42</ele>
        <time>2014-03-21T08:22:57Z</time>
      </trkpt>
      <trkpt lat="43.37046" lon="5.53719">
        <ele>291.42</ele>
        <time>2014-03-21T08:22:59Z</time>
      </trkpt>
      <trkpt lat="43.3704" lon="5.53722">
        <ele>293.82</ele>
        <time>2014-03-21T08:23:04Z</time>
      </trkpt>
      <trkpt lat="43.37027" lon="5.53732">
        <ele>297.18</ele>
        <time>2014-03-21T08:23:14Z</time>
      </trkpt>
      <trkpt lat="43.3702" lon="5.53737">
        <ele>299.11</ele>
        <time>2014-03-21T08:23:24Z</time>
      </trkpt>
      <trkpt lat="43.37018" lon="5.53738">
        <ele>300.55</ele>
        <time>2014-03-21T08:23:38Z</time>
      </trkpt>
      <trkpt lat="43.3702" lon="5.53732">
        <ele>300.55</ele>
        <time>2014-03-21T08:23:57Z</time>
      </trkpt>
      <trkpt lat="43.3702" lon="5.53732">
        <ele>300.55</ele>
        <time>2014-03-21T08:24:23Z</time>
      </trkpt>
      <trkpt lat="43.3702" lon="5.53731">
        <ele>300.55</ele>
        <time>2014-03-21T08:24:27Z</time>
      </trkpt>
      <trkpt lat="43.37013" lon="5.53733">
        <ele>301.03</ele>
        <time>2014-03-21T08:24:36Z</time>
      </trkpt>
      <trkpt lat="43.37011" lon="5.53733">
        <ele>301.51</ele>
        <time>2014-03-21T08:24:39Z</time>
      </trkpt>
      <trkpt lat="43.37003" lon="5.53736">
        <ele>301.51</ele>
        <time>2014-03-21T08:24:50Z</time>
      </trkpt>
      <trkpt lat="43.36998" lon="5.53735">
        <ele>301.51</ele>
        <time>2014-03-21T08:24:53Z</time>
      </trkpt>
      <trkpt lat="43.36987" lon="5.53741">
        <ele>301.99</ele>
        <time>2014-03-21T08:25:02Z</time>
      </trkpt>
      <trkpt lat="43.36981" lon="5.5374">
        <ele>302.47</ele>
        <time>2014-03-21T08:25:07Z</time>
      </trkpt>
      <trkpt lat="43.36966" lon="5.53738">
        <ele>303.43</ele>
        <time>2014-03-21T08:25:18Z</time>
      </trkpt>
      <trkpt lat="43.36963" lon="5.53739">
        <ele>303.43</ele>
        <time>2014-03-21T08:25:20Z</time>
      </trkpt>
      <trkpt lat="43.3695" lon="5.53742">
        <ele>303.91</ele>
        <time>2014-03-21T08:25:30Z</time>
      </trkpt>
      <trkpt lat="43.36938" lon="5.53757">
        <ele>304.39</ele>
        <time>2014-03-21T08:25:43Z</time>
      </trkpt>
      <trkpt lat="43.36936" lon="5.53758">
        <ele>304.88</ele>
        <time>2014-03-21T08:25:46Z</time>
      </trkpt>
      <trkpt lat="43.36931" lon="5.53767">
        <ele>305.36</ele>
        <time>2014-03-21T08:25:53Z</time>
      </trkpt>
      <trkpt lat="43.36921" lon="5.53786">
        <ele>306.32</ele>
        <time>2014-03-21T08:26:05Z</time>
      </trkpt>
      <trkpt lat="43.36912" lon="5.53799">
        <ele>306.8</ele>
        <time>2014-03-21T08:26:15Z</time>
      </trkpt>
      <trkpt lat="43.36911" lon="5.53801">
        <ele>306.8</ele>
        <time>2014-03-21T08:26:16Z</time>
      </trkpt>
      <trkpt lat="43.36909" lon="5.53804">
        <ele>307.28</ele>
        <time>2014-03-21T08:26:18Z</time>
      </trkpt>
      <trkpt lat="43.36897" lon="5.53821">
        <ele>308.24</ele>
        <time>2014-03-21T08:26:31Z</time>
      </trkpt>
      <trkpt lat="43.36893" lon="5.53824">
        <ele>308.24</ele>
        <time>2014-03-21T08:26:35Z</time>
      </trkpt>
      <trkpt lat="43.36881" lon="5.53829">
        <ele>308.24</ele>
        <time>2014-03-21T08:26:47Z</time>
      </trkpt>
      <trkpt lat="43.36876" lon="5.53835">
        <ele>309.2</ele>
        <time>2014-03-21T08:26:54Z</time>
      </trkpt>
      <trkpt lat="43.36872" lon="5.53838">
        <ele>309.2</ele>
        <time>2014-03-21T08:26:58Z</time>
      </trkpt>
      <trkpt lat="43.36863" lon="5.53841">
        <ele>309.68</ele>
        <time>2014-03-21T08:27:05Z</time>
      </trkpt>
      <trkpt lat="43.36852" lon="5.53839">
        <ele>310.16</ele>
        <time>2014-03-21T08:27:15Z</time>
      </trkpt>
      <trkpt lat="43.36848" lon="5.53839">
        <ele>309.68</ele>
        <time>2014-03-21T08:27:22Z</time>
      </trkpt>
      <trkpt lat="43.36834" lon="5.5384">
        <ele>310.16</ele>
        <time>2014-03-21T08:27:32Z</time>
      </trkpt>
      <trkpt lat="43.36818" lon="5.53847">
        <ele>311.6</ele>
        <time>2014-03-21T08:27:46Z</time>
      </trkpt>
      <trkpt lat="43.36808" lon="5.53859">
        <ele>312.09</ele>
        <time>2014-03-21T08:27:58Z</time>
      </trkpt>
      <trkpt lat="43.36806" lon="5.53863">
        <ele>312.57</ele>
        <time>2014-03-21T08:28:01Z</time>
      </trkpt>
      <trkpt lat="43.36798" lon="5.53881">
        <ele>313.53</ele>
        <time>2014-03-21T08:28:14Z</time>
      </trkpt>
      <trkpt lat="43.36792" lon="5.5389">
        <ele>314.01</ele>
        <time>2014-03-21T08:28:21Z</time>
      </trkpt>
      <trkpt lat="43.36786" lon="5.53894">
        <ele>314.01</ele>
        <time>2014-03-21T08:28:26Z</time>
      </trkpt>
      <trkpt lat="43.36771" lon="5.53902">
        <ele>314.97</ele>
        <time>2014-03-21T08:28:37Z</time>
      </trkpt>
      <trkpt lat="43.36757" lon="5.53908">
        <ele>315.93</ele>
        <time>2014-03-21T08:28:50Z</time>
      </trkpt>
      <trkpt lat="43.36755" lon="5.53908">
        <ele>315.93</ele>
        <time>2014-03-21T08:28:51Z</time>
      </trkpt>
      <trkpt lat="43.36741" lon="5.53914">
        <ele>316.89</ele>
        <time>2014-03-21T08:29:03Z</time>
      </trkpt>
      <trkpt lat="43.36722" lon="5.53925">
        <ele>317.85</ele>
        <time>2014-03-21T08:29:19Z</time>
      </trkpt>
      <trkpt lat="43.36707" lon="5.53934">
        <ele>318.81</ele>
        <time>2014-03-21T08:29:31Z</time>
      </trkpt>
      <trkpt lat="43.36689" lon="5.53938">
        <ele>319.78</ele>
        <time>2014-03-21T08:29:44Z</time>
      </trkpt>
      <trkpt lat="43.36672" lon="5.5394">
        <ele>320.74</ele>
        <time>2014-03-21T08:29:58Z</time>
      </trkpt>
      <trkpt lat="43.36657" lon="5.53955">
        <ele>322.18</ele>
        <time>2014-03-21T08:30:11Z</time>
      </trkpt>
      <trkpt lat="43.36651" lon="5.53976">
        <ele>323.62</ele>
        <time>2014-03-21T08:30:25Z</time>
      </trkpt>
      <trkpt lat="43.36651" lon="5.53986">
        <ele>324.1</ele>
        <time>2014-03-21T08:30:32Z</time>
      </trkpt>
      <trkpt lat="43.36648" lon="5.53996">
        <ele>324.58</ele>
        <time>2014-03-21T08:30:40Z</time>
      </trkpt>
      <trkpt lat="43.36637" lon="5.54017">
        <ele>325.54</ele>
        <time>2014-03-21T08:30:54Z</time>
      </trkpt>
      <trkpt lat="43.36632" lon="5.54022">
        <ele>326.02</ele>
        <time>2014-03-21T08:30:58Z</time>
      </trkpt>
      <trkpt lat="43.36616" lon="5.54033">
        <ele>326.5</ele>
        <time>2014-03-21T08:31:12Z</time>
      </trkpt>
      <trkpt lat="43.36603" lon="5.54043">
        <ele>327.47</ele>
        <time>2014-03-21T08:31:24Z</time>
      </trkpt>
      <trkpt lat="43.36593" lon="5.54054">
        <ele>327.95</ele>
        <time>2014-03-21T08:31:37Z</time>
      </trkpt>
      <trkpt lat="43.36582" lon="5.54069">
        <ele>328.91</ele>
        <time>2014-03-21T08:31:48Z</time>
      </trkpt>
      <trkpt lat="43.36575" lon="5.54077">
        <ele>329.39</ele>
        <time>2014-03-21T08:31:55Z</time>
      </trkpt>
      <trkpt lat="43.36562" lon="5.54096">
        <ele>330.35</ele>
        <time>2014-03-21T08:32:11Z</time>
      </trkpt>
      <trkpt lat="43.36561" lon="5.54097">
        <ele>330.35</ele>
        <time>2014-03-21T08:32:12Z</time>
      </trkpt>
      <trkpt lat="43.36557" lon="5.54103">
        <ele>330.83</ele>
        <time>2014-03-21T08:32:16Z</time>
      </trkpt>
      <trkpt lat="43.36546" lon="5.54121">
        <ele>331.79</ele>
        <time>2014-03-21T08:32:30Z</time>
      </trkpt>
      <trkpt lat="43.36544" lon="5.54124">
        <ele>332.27</ele>
        <time>2014-03-21T08:32:32Z</time>
      </trkpt>
      <trkpt lat="43.36543" lon="5.54131">
        <ele>332.27</ele>
        <time>2014-03-21T08:32:36Z</time>
      </trkpt>
      <trkpt lat="43.36537" lon="5.54152">
        <ele>333.23</ele>
        <time>2014-03-21T08:32:49Z</time>
      </trkpt>
      <trkpt lat="43.36533" lon="5.54167">
        <ele>333.71</ele>
        <time>2014-03-21T08:32:59Z</time>
      </trkpt>
      <trkpt lat="43.36528" lon="5.54184">
        <ele>334.68</ele>
        <time>2014-03-21T08:33:09Z</time>
      </trkpt>
      <trkpt lat="43.36525" lon="5.54195">
        <ele>335.16</ele>
        <time>2014-03-21T08:33:16Z</time>
      </trkpt>
      <trkpt lat="43.36519" lon="5.54201">
        <ele>335.16</ele>
        <time>2014-03-21T08:33:23Z</time>
      </trkpt>
      <trkpt lat="43.36511" lon="5.54203">
        <ele>335.16</ele>
        <time>2014-03-21T08:33:27Z</time>
      </trkpt>
      <trkpt lat="43.36503" lon="5.54204">
        <ele>334.68</ele>
        <time>2014-03-21T08:33:35Z</time>
      </trkpt>
      <trkpt lat="43.36504" lon="5.54204">
        <ele>334.68</ele>
        <time>2014-03-21T08:33:38Z</time>
      </trkpt>
      <trkpt lat="43.36499" lon="5.54205">
        <ele>334.68</ele>
        <time>2014-03-21T08:33:42Z</time>
      </trkpt>
      <trkpt lat="43.36484" lon="5.54201">
        <ele>334.2</ele>
        <time>2014-03-21T08:33:54Z</time>
      </trkpt>
      <trkpt lat="43.3647" lon="5.54198">
        <ele>333.71</ele>
        <time>2014-03-21T08:34:06Z</time>
      </trkpt>
      <trkpt lat="43.36455" lon="5.54189">
        <ele>333.71</ele>
        <time>2014-03-21T08:34:18Z</time>
      </trkpt>
      <trkpt lat="43.36444" lon="5.54178">
        <ele>334.2</ele>
        <time>2014-03-21T08:34:30Z</time>
      </trkpt>
      <trkpt lat="43.36444" lon="5.54176">
        <ele>334.2</ele>
        <time>2014-03-21T08:34:35Z</time>
      </trkpt>
      <trkpt lat="43.3644" lon="5.54153">
        <ele>333.71</ele>
        <time>2014-03-21T08:34:47Z</time>
      </trkpt>
      <trkpt lat="43.36438" lon="5.54136">
        <ele>333.23</ele>
        <time>2014-03-21T08:34:56Z</time>
      </trkpt>
      <trkpt lat="43.36437" lon="5.54119">
        <ele>338.04</ele>
        <time>2014-03-21T08:35:05Z</time>
      </trkpt>
      <trkpt lat="43.36437" lon="5.54118">
        <ele>334.2</ele>
        <time>2014-03-21T08:35:06Z</time>
      </trkpt>
      <trkpt lat="43.36437" lon="5.54106">
        <ele>334.68</ele>
        <time>2014-03-21T08:35:13Z</time>
      </trkpt>
      <trkpt lat="43.36435" lon="5.54097">
        <ele>334.68</ele>
        <time>2014-03-21T08:35:19Z</time>
      </trkpt>
      <trkpt lat="43.36431" lon="5.54092">
        <ele>335.16</ele>
        <time>2014-03-21T08:35:23Z</time>
      </trkpt>
      <trkpt lat="43.3642" lon="5.54087">
        <ele>335.64</ele>
        <time>2014-03-21T08:35:35Z</time>
      </trkpt>
      <trkpt lat="43.36414" lon="5.54085">
        <ele>336.6</ele>
        <time>2014-03-21T08:35:41Z</time>
      </trkpt>
      <trkpt lat="43.36411" lon="5.54084">
        <ele>336.6</ele>
        <time>2014-03-21T08:35:43Z</time>
      </trkpt>
      <trkpt lat="43.36406" lon="5.54083">
        <ele>337.08</ele>
        <time>2014-03-21T08:35:47Z</time>
      </trkpt>
      <trkpt lat="43.364" lon="5.54083">
        <ele>337.56</ele>
        <time>2014-03-21T08:35:53Z</time>
      </trkpt>
      <trkpt lat="43.3639" lon="5.54081">
        <ele>338.04</ele>
        <time>2014-03-21T08:36:04Z</time>
      </trkpt>
      <trkpt lat="43.3639" lon="5.54081">
        <ele>338.04</ele>
        <time>2014-03-21T08:36:06Z</time>
      </trkpt>
      <trkpt lat="43.36376" lon="5.54085">
        <ele>338.52</ele>
        <time>2014-03-21T08:36:18Z</time>
      </trkpt>
      <trkpt lat="43.36363" lon="5.54089">
        <ele>339</ele>
        <time>2014-03-21T08:36:28Z</time>
      </trkpt>
      <trkpt lat="43.36357" lon="5.54089">
        <ele>339</ele>
        <time>2014-03-21T08:36:33Z</time>
      </trkpt>
      <trkpt lat="43.36353" lon="5.5409">
        <ele>339.48</ele>
        <time>2014-03-21T08:36:37Z</time>
      </trkpt>
      <trkpt lat="43.36348" lon="5.5409">
        <ele>339.48</ele>
        <time>2014-03-21T08:36:40Z</time>
      </trkpt>
      <trkpt lat="43.36345" lon="5.54089">
        <ele>339.96</ele>
        <time>2014-03-21T08:36:43Z</time>
      </trkpt>
      <trkpt lat="43.36338" lon="5.54093">
        <ele>339.96</ele>
        <time>2014-03-21T08:36:55Z</time>
      </trkpt>
      <trkpt lat="43.36334" lon="5.54093">
        <ele>340.44</ele>
        <time>2014-03-21T08:36:58Z</time>
      </trkpt>
      <trkpt lat="43.36318" lon="5.54094">
        <ele>341.41</ele>
        <time>2014-03-21T08:37:11Z</time>
      </trkpt>
      <trkpt lat="43.36301" lon="5.54096">
        <ele>342.37</ele>
        <time>2014-03-21T08:37:25Z</time>
      </trkpt>
      <trkpt lat="43.363" lon="5.54097">
        <ele>342.37</ele>
        <time>2014-03-21T08:37:26Z</time>
      </trkpt>
      <trkpt lat="43.36297" lon="5.54098">
        <ele>342.37</ele>
        <time>2014-03-21T08:37:29Z</time>
      </trkpt>
      <trkpt lat="43.36288" lon="5.5411">
        <ele>342.37</ele>
        <time>2014-03-21T08:37:40Z</time>
      </trkpt>
      <trkpt lat="43.36277" lon="5.54123">
        <ele>343.81</ele>
        <time>2014-03-21T08:37:53Z</time>
      </trkpt>
      <trkpt lat="43.3626" lon="5.54142">
        <ele>345.25</ele>
        <time>2014-03-21T08:38:08Z</time>
      </trkpt>
      <trkpt lat="43.36258" lon="5.54147">
        <ele>345.25</ele>
        <time>2014-03-21T08:38:11Z</time>
      </trkpt>
      <trkpt lat="43.36251" lon="5.5417">
        <ele>346.69</ele>
        <time>2014-03-21T08:38:26Z</time>
      </trkpt>
      <trkpt lat="43.36243" lon="5.5419">
        <ele>347.17</ele>
        <time>2014-03-21T08:38:38Z</time>
      </trkpt>
      <trkpt lat="43.36236" lon="5.54209">
        <ele>348.13</ele>
        <time>2014-03-21T08:38:50Z</time>
      </trkpt>
      <trkpt lat="43.36235" lon="5.54216">
        <ele>348.13</ele>
        <time>2014-03-21T08:38:54Z</time>
      </trkpt>
      <trkpt lat="43.36236" lon="5.54221">
        <ele>348.62</ele>
        <time>2014-03-21T08:38:57Z</time>
      </trkpt>
      <trkpt lat="43.3623" lon="5.54241">
        <ele>348.62</ele>
        <time>2014-03-21T08:39:09Z</time>
      </trkpt>
      <trkpt lat="43.3623" lon="5.54245">
        <ele>348.62</ele>
        <time>2014-03-21T08:39:11Z</time>
      </trkpt>
      <trkpt lat="43.3623" lon="5.54254">
        <ele>348.13</ele>
        <time>2014-03-21T08:39:15Z</time>
      </trkpt>
      <trkpt lat="43.36231" lon="5.5427">
        <ele>348.13</ele>
        <time>2014-03-21T08:39:26Z</time>
      </trkpt>
      <trkpt lat="43.36235" lon="5.54298">
        <ele>348.13</ele>
        <time>2014-03-21T08:39:42Z</time>
      </trkpt>
      <trkpt lat="43.36224" lon="5.54318">
        <ele>349.1</ele>
        <time>2014-03-21T08:39:56Z</time>
      </trkpt>
      <trkpt lat="43.36219" lon="5.54326">
        <ele>348.62</ele>
        <time>2014-03-21T08:40:02Z</time>
      </trkpt>
      <trkpt lat="43.36211" lon="5.54338">
        <ele>349.58</ele>
        <time>2014-03-21T08:40:15Z</time>
      </trkpt>
      <trkpt lat="43.36206" lon="5.54352">
        <ele>349.58</ele>
        <time>2014-03-21T08:40:25Z</time>
      </trkpt>
      <trkpt lat="43.36201" lon="5.5437">
        <ele>350.54</ele>
        <time>2014-03-21T08:40:38Z</time>
      </trkpt>
      <trkpt lat="43.36199" lon="5.54375">
        <ele>351.02</ele>
        <time>2014-03-21T08:40:41Z</time>
      </trkpt>
      <trkpt lat="43.36189" lon="5.54395">
        <ele>351.5</ele>
        <time>2014-03-21T08:40:55Z</time>
      </trkpt>
      <trkpt lat="43.36185" lon="5.54406">
        <ele>353.42</ele>
        <time>2014-03-21T08:41:07Z</time>
      </trkpt>
      <trkpt lat="43.36184" lon="5.54407">
        <ele>353.9</ele>
        <time>2014-03-21T08:41:08Z</time>
      </trkpt>
      <trkpt lat="43.36175" lon="5.54425">
        <ele>354.38</ele>
        <time>2014-03-21T08:41:22Z</time>
      </trkpt>
      <trkpt lat="43.36172" lon="5.54431">
        <ele>354.38</ele>
        <time>2014-03-21T08:41:26Z</time>
      </trkpt>
      <trkpt lat="43.36162" lon="5.54454">
        <ele>353.9</ele>
        <time>2014-03-21T08:41:39Z</time>
      </trkpt>
      <trkpt lat="43.3616" lon="5.54478">
        <ele>353.9</ele>
        <time>2014-03-21T08:41:53Z</time>
      </trkpt>
      <trkpt lat="43.36157" lon="5.54495">
        <ele>354.38</ele>
        <time>2014-03-21T08:42:05Z</time>
      </trkpt>
      <trkpt lat="43.36154" lon="5.54505">
        <ele>354.86</ele>
        <time>2014-03-21T08:42:12Z</time>
      </trkpt>
      <trkpt lat="43.3615" lon="5.5452">
        <ele>355.34</ele>
        <time>2014-03-21T08:42:23Z</time>
      </trkpt>
      <trkpt lat="43.36149" lon="5.54525">
        <ele>355.34</ele>
        <time>2014-03-21T08:42:26Z</time>
      </trkpt>
      <trkpt lat="43.36142" lon="5.54551">
        <ele>356.31</ele>
        <time>2014-03-21T08:42:41Z</time>
      </trkpt>
      <trkpt lat="43.3614" lon="5.54559">
        <ele>356.79</ele>
        <time>2014-03-21T08:42:47Z</time>
      </trkpt>
      <trkpt lat="43.36136" lon="5.54572">
        <ele>357.27</ele>
        <time>2014-03-21T08:42:56Z</time>
      </trkpt>
      <trkpt lat="43.36127" lon="5.54597">
        <ele>357.75</ele>
        <time>2014-03-21T08:43:12Z</time>
      </trkpt>
      <trkpt lat="43.36121" lon="5.54616">
        <ele>358.71</ele>
        <time>2014-03-21T08:43:22Z</time>
      </trkpt>
      <trkpt lat="43.36127" lon="5.54642">
        <ele>359.67</ele>
        <time>2014-03-21T08:43:36Z</time>
      </trkpt>
      <trkpt lat="43.36134" lon="5.54659">
        <ele>359.67</ele>
        <time>2014-03-21T08:43:47Z</time>
      </trkpt>
      <trkpt lat="43.3615" lon="5.54693">
        <ele>360.63</ele>
        <time>2014-03-21T08:44:00Z</time>
      </trkpt>
      <trkpt lat="43.3615" lon="5.54707">
        <ele>361.11</ele>
        <time>2014-03-21T08:44:08Z</time>
      </trkpt>
      <trkpt lat="43.36155" lon="5.5473">
        <ele>362.55</ele>
        <time>2014-03-21T08:44:22Z</time>
      </trkpt>
      <trkpt lat="43.36153" lon="5.54732">
        <ele>363.04</ele>
        <time>2014-03-21T08:44:34Z</time>
      </trkpt>
      <trkpt lat="43.36152" lon="5.54733">
        <ele>363.04</ele>
        <time>2014-03-21T08:44:46Z</time>
      </trkpt>
      <trkpt lat="43.36151" lon="5.54734">
        <ele>363.04</ele>
        <time>2014-03-21T08:44:58Z</time>
      </trkpt>
      <trkpt lat="43.36141" lon="5.54739">
        <ele>363.52</ele>
        <time>2014-03-21T08:45:09Z</time>
      </trkpt>
      <trkpt lat="43.36133" lon="5.54744">
        <ele>364.48</ele>
        <time>2014-03-21T08:45:18Z</time>
      </trkpt>
      <trkpt lat="43.36128" lon="5.54746">
        <ele>364.96</ele>
        <time>2014-03-21T08:45:22Z</time>
      </trkpt>
      <trkpt lat="43.36121" lon="5.54757">
        <ele>366.88</ele>
        <time>2014-03-21T08:45:34Z</time>
      </trkpt>
      <trkpt lat="43.36115" lon="5.54761">
        <ele>367.84</ele>
        <time>2014-03-21T08:45:40Z</time>
      </trkpt>
      <trkpt lat="43.361" lon="5.54763">
        <ele>369.28</ele>
        <time>2014-03-21T08:45:53Z</time>
      </trkpt>
      <trkpt lat="43.36096" lon="5.54768">
        <ele>370.73</ele>
        <time>2014-03-21T08:46:03Z</time>
      </trkpt>
      <trkpt lat="43.36095" lon="5.54775">
        <ele>370.24</ele>
        <time>2014-03-21T08:46:20Z</time>
      </trkpt>
      <trkpt lat="43.36097" lon="5.54784">
        <ele>370.73</ele>
        <time>2014-03-21T08:46:28Z</time>
      </trkpt>
      <trkpt lat="43.36102" lon="5.54798">
        <ele>371.21</ele>
        <time>2014-03-21T08:46:39Z</time>
      </trkpt>
      <trkpt lat="43.36101" lon="5.54799">
        <ele>370.73</ele>
        <time>2014-03-21T08:46:53Z</time>
      </trkpt>
      <trkpt lat="43.36105" lon="5.54812">
        <ele>371.69</ele>
        <time>2014-03-21T08:47:01Z</time>
      </trkpt>
      <trkpt lat="43.36108" lon="5.54821">
        <ele>372.17</ele>
        <time>2014-03-21T08:47:09Z</time>
      </trkpt>
      <trkpt lat="43.36112" lon="5.54832">
        <ele>372.65</ele>
        <time>2014-03-21T08:47:18Z</time>
      </trkpt>
      <trkpt lat="43.36116" lon="5.54837">
        <ele>373.13</ele>
        <time>2014-03-21T08:47:22Z</time>
      </trkpt>
      <trkpt lat="43.3612" lon="5.54844">
        <ele>373.61</ele>
        <time>2014-03-21T08:47:28Z</time>
      </trkpt>
      <trkpt lat="43.36131" lon="5.54856">
        <ele>374.57</ele>
        <time>2014-03-21T08:47:39Z</time>
      </trkpt>
      <trkpt lat="43.36137" lon="5.54861">
        <ele>375.05</ele>
        <time>2014-03-21T08:47:46Z</time>
      </trkpt>
      <trkpt lat="43.3614" lon="5.54864">
        <ele>375.53</ele>
        <time>2014-03-21T08:47:49Z</time>
      </trkpt>
      <trkpt lat="43.36152" lon="5.54885">
        <ele>376.49</ele>
        <time>2014-03-21T08:48:02Z</time>
      </trkpt>
      <trkpt lat="43.36155" lon="5.54894">
        <ele>377.45</ele>
        <time>2014-03-21T08:48:09Z</time>
      </trkpt>
      <trkpt lat="43.36158" lon="5.54907">
        <ele>378.42</ele>
        <time>2014-03-21T08:48:18Z</time>
      </trkpt>
      <trkpt lat="43.3616" lon="5.54925">
        <ele>379.38</ele>
        <time>2014-03-21T08:48:29Z</time>
      </trkpt>
      <trkpt lat="43.36165" lon="5.5494">
        <ele>379.86</ele>
        <time>2014-03-21T08:48:39Z</time>
      </trkpt>
      <trkpt lat="43.36171" lon="5.54959">
        <ele>380.82</ele>
        <time>2014-03-21T08:48:51Z</time>
      </trkpt>
      <trkpt lat="43.36174" lon="5.54975">
        <ele>382.26</ele>
        <time>2014-03-21T08:49:03Z</time>
      </trkpt>
      <trkpt lat="43.36175" lon="5.54988">
        <ele>383.22</ele>
        <time>2014-03-21T08:49:12Z</time>
      </trkpt>
      <trkpt lat="43.36173" lon="5.54995">
        <ele>384.18</ele>
        <time>2014-03-21T08:49:17Z</time>
      </trkpt>
      <trkpt lat="43.36177" lon="5.55017">
        <ele>385.63</ele>
        <time>2014-03-21T08:49:30Z</time>
      </trkpt>
      <trkpt lat="43.36179" lon="5.55021">
        <ele>386.11</ele>
        <time>2014-03-21T08:49:33Z</time>
      </trkpt>
      <trkpt lat="43.36184" lon="5.55029">
        <ele>386.59</ele>
        <time>2014-03-21T08:49:43Z</time>
      </trkpt>
      <trkpt lat="43.36177" lon="5.55042">
        <ele>387.55</ele>
        <time>2014-03-21T08:49:55Z</time>
      </trkpt>
      <trkpt lat="43.36175" lon="5.55047">
        <ele>387.55</ele>
        <time>2014-03-21T08:49:59Z</time>
      </trkpt>
      <trkpt lat="43.36174" lon="5.55064">
        <ele>388.51</ele>
        <time>2014-03-21T08:50:13Z</time>
      </trkpt>
      <trkpt lat="43.36171" lon="5.5508">
        <ele>389.95</ele>
        <time>2014-03-21T08:50:24Z</time>
      </trkpt>
      <trkpt lat="43.36165" lon="5.55095">
        <ele>391.87</ele>
        <time>2014-03-21T08:50:37Z</time>
      </trkpt>
      <trkpt lat="43.36166" lon="5.55108">
        <ele>393.8</ele>
        <time>2014-03-21T08:50:48Z</time>
      </trkpt>
      <trkpt lat="43.36165" lon="5.55118">
        <ele>394.28</ele>
        <time>2014-03-21T08:50:58Z</time>
      </trkpt>
      <trkpt lat="43.36165" lon="5.55119">
        <ele>394.76</ele>
        <time>2014-03-21T08:51:12Z</time>
      </trkpt>
      <trkpt lat="43.36166" lon="5.55127">
        <ele>395.24</ele>
        <time>2014-03-21T08:51:24Z</time>
      </trkpt>
      <trkpt lat="43.36166" lon="5.55129">
        <ele>395.72</ele>
        <time>2014-03-21T08:51:33Z</time>
      </trkpt>
      <trkpt lat="43.36161" lon="5.55124">
        <ele>394.76</ele>
        <time>2014-03-21T08:51:42Z</time>
      </trkpt>
      <trkpt lat="43.36159" lon="5.55126">
        <ele>396.2</ele>
        <time>2014-03-21T08:51:49Z</time>
      </trkpt>
      <trkpt lat="43.36157" lon="5.55129">
        <ele>397.64</ele>
        <time>2014-03-21T08:51:59Z</time>
      </trkpt>
      <trkpt lat="43.36154" lon="5.55136">
        <ele>400.05</ele>
        <time>2014-03-21T08:52:11Z</time>
      </trkpt>
      <trkpt lat="43.36153" lon="5.55138">
        <ele>401.97</ele>
        <time>2014-03-21T08:52:25Z</time>
      </trkpt>
      <trkpt lat="43.36151" lon="5.55143">
        <ele>403.41</ele>
        <time>2014-03-21T08:52:37Z</time>
      </trkpt>
      <trkpt lat="43.36149" lon="5.55147">
        <ele>404.85</ele>
        <time>2014-03-21T08:52:52Z</time>
      </trkpt>
      <trkpt lat="43.36148" lon="5.5515">
        <ele>406.77</ele>
        <time>2014-03-21T08:53:03Z</time>
      </trkpt>
      <trkpt lat="43.36147" lon="5.55153">
        <ele>408.7</ele>
        <time>2014-03-21T08:53:19Z</time>
      </trkpt>
      <trkpt lat="43.36146" lon="5.55159">
        <ele>409.66</ele>
        <time>2014-03-21T08:53:32Z</time>
      </trkpt>
      <trkpt lat="43.36145" lon="5.55162">
        <ele>411.58</ele>
        <time>2014-03-21T08:53:48Z</time>
      </trkpt>
      <trkpt lat="43.36144" lon="5.55169">
        <ele>413.02</ele>
        <time>2014-03-21T08:54:04Z</time>
      </trkpt>
      <trkpt lat="43.36143" lon="5.55173">
        <ele>413.02</ele>
        <time>2014-03-21T08:54:17Z</time>
      </trkpt>
      <trkpt lat="43.36142" lon="5.55177">
        <ele>414.47</ele>
        <time>2014-03-21T08:54:26Z</time>
      </trkpt>
      <trkpt lat="43.36142" lon="5.5518">
        <ele>415.91</ele>
        <time>2014-03-21T08:54:38Z</time>
      </trkpt>
      <trkpt lat="43.36141" lon="5.55182">
        <ele>415.91</ele>
        <time>2014-03-21T08:54:49Z</time>
      </trkpt>
      <trkpt lat="43.3614" lon="5.55182">
        <ele>415.91</ele>
        <time>2014-03-21T08:55:07Z</time>
      </trkpt>
      <trkpt lat="43.36139" lon="5.55182">
        <ele>415.91</ele>
        <time>2014-03-21T08:55:26Z</time>
      </trkpt>
      <trkpt lat="43.36138" lon="5.55191">
        <ele>418.31</ele>
        <time>2014-03-21T08:55:38Z</time>
      </trkpt>
      <trkpt lat="43.36136" lon="5.55193">
        <ele>420.71</ele>
        <time>2014-03-21T08:55:51Z</time>
      </trkpt>
      <trkpt lat="43.36135" lon="5.55201">
        <ele>423.12</ele>
        <time>2014-03-21T08:56:05Z</time>
      </trkpt>
      <trkpt lat="43.36135" lon="5.55205">
        <ele>425.04</ele>
        <time>2014-03-21T08:56:18Z</time>
      </trkpt>
      <trkpt lat="43.36135" lon="5.55211">
        <ele>425.52</ele>
        <time>2014-03-21T08:56:29Z</time>
      </trkpt>
      <trkpt lat="43.36136" lon="5.55216">
        <ele>427.44</ele>
        <time>2014-03-21T08:56:40Z</time>
      </trkpt>
      <trkpt lat="43.36135" lon="5.5522">
        <ele>428.89</ele>
        <time>2014-03-21T08:56:53Z</time>
      </trkpt>
      <trkpt lat="43.36136" lon="5.55226">
        <ele>430.81</ele>
        <time>2014-03-21T08:57:03Z</time>
      </trkpt>
      <trkpt lat="43.36138" lon="5.55231">
        <ele>432.25</ele>
        <time>2014-03-21T08:57:14Z</time>
      </trkpt>
      <trkpt lat="43.36141" lon="5.55236">
        <ele>433.21</ele>
        <time>2014-03-21T08:57:24Z</time>
      </trkpt>
      <trkpt lat="43.36142" lon="5.55246">
        <ele>434.65</ele>
        <time>2014-03-21T08:57:37Z</time>
      </trkpt>
      <trkpt lat="43.36144" lon="5.55251">
        <ele>436.58</ele>
        <time>2014-03-21T08:57:49Z</time>
      </trkpt>
      <trkpt lat="43.36143" lon="5.55252">
        <ele>437.54</ele>
        <time>2014-03-21T08:58:01Z</time>
      </trkpt>
      <trkpt lat="43.36142" lon="5.55252">
        <ele>437.54</ele>
        <time>2014-03-21T08:58:21Z</time>
      </trkpt>
      <trkpt lat="43.36142" lon="5.55254">
        <ele>437.54</ele>
        <time>2014-03-21T08:58:40Z</time>
      </trkpt>
      <trkpt lat="43.36142" lon="5.55255">
        <ele>438.02</ele>
        <time>2014-03-21T08:58:59Z</time>
      </trkpt>
      <trkpt lat="43.36141" lon="5.55255">
        <ele>437.54</ele>
        <time>2014-03-21T08:59:14Z</time>
      </trkpt>
      <trkpt lat="43.36141" lon="5.55255">
        <ele>437.54</ele>
        <time>2014-03-21T08:59:28Z</time>
      </trkpt>
      <trkpt lat="43.36142" lon="5.5526">
        <ele>438.02</ele>
        <time>2014-03-21T08:59:40Z</time>
      </trkpt>
      <trkpt lat="43.36144" lon="5.55263">
        <ele>438.5</ele>
        <time>2014-03-21T08:59:44Z</time>
      </trkpt>
      <trkpt lat="43.3615" lon="5.55271">
        <ele>439.94</ele>
        <time>2014-03-21T08:59:57Z</time>
      </trkpt>
      <trkpt lat="43.36154" lon="5.55282">
        <ele>440.9</ele>
        <time>2014-03-21T09:00:08Z</time>
      </trkpt>
      <trkpt lat="43.36157" lon="5.5529">
        <ele>442.82</ele>
        <time>2014-03-21T09:00:19Z</time>
      </trkpt>
      <trkpt lat="43.36161" lon="5.55298">
        <ele>443.79</ele>
        <time>2014-03-21T09:00:29Z</time>
      </trkpt>
      <trkpt lat="43.36164" lon="5.55307">
        <ele>444.75</ele>
        <time>2014-03-21T09:00:39Z</time>
      </trkpt>
      <trkpt lat="43.36168" lon="5.55317">
        <ele>446.19</ele>
        <time>2014-03-21T09:00:50Z</time>
      </trkpt>
      <trkpt lat="43.36171" lon="5.55327">
        <ele>447.63</ele>
        <time>2014-03-21T09:01:02Z</time>
      </trkpt>
      <trkpt lat="43.36175" lon="5.55337">
        <ele>449.55</ele>
        <time>2014-03-21T09:01:13Z</time>
      </trkpt>
      <trkpt lat="43.36177" lon="5.55345">
        <ele>450.52</ele>
        <time>2014-03-21T09:01:23Z</time>
      </trkpt>
      <trkpt lat="43.36179" lon="5.55351">
        <ele>452.44</ele>
        <time>2014-03-21T09:01:34Z</time>
      </trkpt>
      <trkpt lat="43.36182" lon="5.55358">
        <ele>453.4</ele>
        <time>2014-03-21T09:01:45Z</time>
      </trkpt>
      <trkpt lat="43.36187" lon="5.55366">
        <ele>455.32</ele>
        <time>2014-03-21T09:01:57Z</time>
      </trkpt>
      <trkpt lat="43.36192" lon="5.5537">
        <ele>456.28</ele>
        <time>2014-03-21T09:02:06Z</time>
      </trkpt>
      <trkpt lat="43.36195" lon="5.55376">
        <ele>458.21</ele>
        <time>2014-03-21T09:02:17Z</time>
      </trkpt>
      <trkpt lat="43.36199" lon="5.55387">
        <ele>460.13</ele>
        <time>2014-03-21T09:02:30Z</time>
      </trkpt>
      <trkpt lat="43.36202" lon="5.55391">
        <ele>461.57</ele>
        <time>2014-03-21T09:02:39Z</time>
      </trkpt>
      <trkpt lat="43.36204" lon="5.5539">
        <ele>462.53</ele>
        <time>2014-03-21T09:02:51Z</time>
      </trkpt>
      <trkpt lat="43.36204" lon="5.5539">
        <ele>462.53</ele>
        <time>2014-03-21T09:03:01Z</time>
      </trkpt>
      <trkpt lat="43.36205" lon="5.55391">
        <ele>463.49</ele>
        <time>2014-03-21T09:03:23Z</time>
      </trkpt>
      <trkpt lat="43.36204" lon="5.55392">
        <ele>463.49</ele>
        <time>2014-03-21T09:03:44Z</time>
      </trkpt>
      <trkpt lat="43.36205" lon="5.55393">
        <ele>463.01</ele>
        <time>2014-03-21T09:03:57Z</time>
      </trkpt>
      <trkpt lat="43.36202" lon="5.55404">
        <ele>464.45</ele>
        <time>2014-03-21T09:04:08Z</time>
      </trkpt>
      <trkpt lat="43.36201" lon="5.55411">
        <ele>466.38</ele>
        <time>2014-03-21T09:04:18Z</time>
      </trkpt>
      <trkpt lat="43.36198" lon="5.5542">
        <ele>468.3</ele>
        <time>2014-03-21T09:04:30Z</time>
      </trkpt>
      <trkpt lat="43.36197" lon="5.55425">
        <ele>469.74</ele>
        <time>2014-03-21T09:04:39Z</time>
      </trkpt>
      <trkpt lat="43.36196" lon="5.5543">
        <ele>471.18</ele>
        <time>2014-03-21T09:04:47Z</time>
      </trkpt>
      <trkpt lat="43.36194" lon="5.55439">
        <ele>472.63</ele>
        <time>2014-03-21T09:04:57Z</time>
      </trkpt>
      <trkpt lat="43.36193" lon="5.55445">
        <ele>474.07</ele>
        <time>2014-03-21T09:05:07Z</time>
      </trkpt>
      <trkpt lat="43.3619" lon="5.55453">
        <ele>475.99</ele>
        <time>2014-03-21T09:05:18Z</time>
      </trkpt>
      <trkpt lat="43.36186" lon="5.55463">
        <ele>477.43</ele>
        <time>2014-03-21T09:05:29Z</time>
      </trkpt>
      <trkpt lat="43.36184" lon="5.5547">
        <ele>478.87</ele>
        <time>2014-03-21T09:05:38Z</time>
      </trkpt>
      <trkpt lat="43.3618" lon="5.55478">
        <ele>480.32</ele>
        <time>2014-03-21T09:05:48Z</time>
      </trkpt>
      <trkpt lat="43.36179" lon="5.55481">
        <ele>481.28</ele>
        <time>2014-03-21T09:05:58Z</time>
      </trkpt>
      <trkpt lat="43.36178" lon="5.55481">
        <ele>481.76</ele>
        <time>2014-03-21T09:06:19Z</time>
      </trkpt>
      <trkpt lat="43.3618" lon="5.55483">
        <ele>480.8</ele>
        <time>2014-03-21T09:06:36Z</time>
      </trkpt>
      <trkpt lat="43.3618" lon="5.55482">
        <ele>481.28</ele>
        <time>2014-03-21T09:06:51Z</time>
      </trkpt>
      <trkpt lat="43.3618" lon="5.55483">
        <ele>481.28</ele>
        <time>2014-03-21T09:07:05Z</time>
      </trkpt>
      <trkpt lat="43.3618" lon="5.55483">
        <ele>481.28</ele>
        <time>2014-03-21T09:07:24Z</time>
      </trkpt>
      <trkpt lat="43.3618" lon="5.55483">
        <ele>481.28</ele>
        <time>2014-03-21T09:07:42Z</time>
      </trkpt>
      <trkpt lat="43.3618" lon="5.55483">
        <ele>481.28</ele>
        <time>2014-03-21T09:08:00Z</time>
      </trkpt>
      <trkpt lat="43.3618" lon="5.55482">
        <ele>481.28</ele>
        <time>2014-03-21T09:08:19Z</time>
      </trkpt>
      <trkpt lat="43.3618" lon="5.55482">
        <ele>481.76</ele>
        <time>2014-03-21T09:08:39Z</time>
      </trkpt>
      <trkpt lat="43.3618" lon="5.55483">
        <ele>481.76</ele>
        <time>2014-03-21T09:09:01Z</time>
      </trkpt>
      <trkpt lat="43.3618" lon="5.55483">
        <ele>482.24</ele>
        <time>2014-03-21T09:09:23Z</time>
      </trkpt>
      <trkpt lat="43.36179" lon="5.55482">
        <ele>481.76</ele>
        <time>2014-03-21T09:09:37Z</time>
      </trkpt>
      <trkpt lat="43.36179" lon="5.55482">
        <ele>482.24</ele>
        <time>2014-03-21T09:09:48Z</time>
      </trkpt>
      <trkpt lat="43.36178" lon="5.55482">
        <ele>482.24</ele>
        <time>2014-03-21T09:10:01Z</time>
      </trkpt>
      <trkpt lat="43.36178" lon="5.55482">
        <ele>482.72</ele>
        <time>2014-03-21T09:10:12Z</time>
      </trkpt>
      <trkpt lat="43.36178" lon="5.55482">
        <ele>482.72</ele>
        <time>2014-03-21T09:10:31Z</time>
      </trkpt>
      <trkpt lat="43.36177" lon="5.55482">
        <ele>482.72</ele>
        <time>2014-03-21T09:10:42Z</time>
      </trkpt>
      <trkpt lat="43.36177" lon="5.55482">
        <ele>482.72</ele>
        <time>2014-03-21T09:11:03Z</time>
      </trkpt>
      <trkpt lat="43.36177" lon="5.55483">
        <ele>482.72</ele>
        <time>2014-03-21T09:11:17Z</time>
      </trkpt>
      <trkpt lat="43.36174" lon="5.55487">
        <ele>482.72</ele>
        <time>2014-03-21T09:11:31Z</time>
      </trkpt>
      <trkpt lat="43.36173" lon="5.55493">
        <ele>481.76</ele>
        <time>2014-03-21T09:11:44Z</time>
      </trkpt>
      <trkpt lat="43.36171" lon="5.55496">
        <ele>481.76</ele>
        <time>2014-03-21T09:11:47Z</time>
      </trkpt>
      <trkpt lat="43.36168" lon="5.55502">
        <ele>481.28</ele>
        <time>2014-03-21T09:11:57Z</time>
      </trkpt>
      <trkpt lat="43.36165" lon="5.55515">
        <ele>479.35</ele>
        <time>2014-03-21T09:12:07Z</time>
      </trkpt>
      <trkpt lat="43.36164" lon="5.5552">
        <ele>478.87</ele>
        <time>2014-03-21T09:12:11Z</time>
      </trkpt>
      <trkpt lat="43.36161" lon="5.55532">
        <ele>477.43</ele>
        <time>2014-03-21T09:12:20Z</time>
      </trkpt>
      <trkpt lat="43.3616" lon="5.5554">
        <ele>476.47</ele>
        <time>2014-03-21T09:12:26Z</time>
      </trkpt>
      <trkpt lat="43.36158" lon="5.55546">
        <ele>475.51</ele>
        <time>2014-03-21T09:12:30Z</time>
      </trkpt>
      <trkpt lat="43.36155" lon="5.55553">
        <ele>475.03</ele>
        <time>2014-03-21T09:12:35Z</time>
      </trkpt>
      <trkpt lat="43.36155" lon="5.55557">
        <ele>474.55</ele>
        <time>2014-03-21T09:12:38Z</time>
      </trkpt>
      <trkpt lat="43.36152" lon="5.55576">
        <ele>473.59</ele>
        <time>2014-03-21T09:12:49Z</time>
      </trkpt>
      <trkpt lat="43.36151" lon="5.55578">
        <ele>473.11</ele>
        <time>2014-03-21T09:12:51Z</time>
      </trkpt>
      <trkpt lat="43.36151" lon="5.55591">
        <ele>471.18</ele>
        <time>2014-03-21T09:13:01Z</time>
      </trkpt>
      <trkpt lat="43.3615" lon="5.55602">
        <ele>470.22</ele>
        <time>2014-03-21T09:13:10Z</time>
      </trkpt>
      <trkpt lat="43.36151" lon="5.55603">
        <ele>469.74</ele>
        <time>2014-03-21T09:13:11Z</time>
      </trkpt>
      <trkpt lat="43.36154" lon="5.55603">
        <ele>469.26</ele>
        <time>2014-03-21T09:13:14Z</time>
      </trkpt>
      <trkpt lat="43.36159" lon="5.55593">
        <ele>467.82</ele>
        <time>2014-03-21T09:13:22Z</time>
      </trkpt>
      <trkpt lat="43.36161" lon="5.55586">
        <ele>466.38</ele>
        <time>2014-03-21T09:13:29Z</time>
      </trkpt>
      <trkpt lat="43.36163" lon="5.55584">
        <ele>466.38</ele>
        <time>2014-03-21T09:13:31Z</time>
      </trkpt>
      <trkpt lat="43.36172" lon="5.55576">
        <ele>465.42</ele>
        <time>2014-03-21T09:13:39Z</time>
      </trkpt>
      <trkpt lat="43.36175" lon="5.55575">
        <ele>464.93</ele>
        <time>2014-03-21T09:13:42Z</time>
      </trkpt>
      <trkpt lat="43.36185" lon="5.55572">
        <ele>463.49</ele>
        <time>2014-03-21T09:13:52Z</time>
      </trkpt>
      <trkpt lat="43.3619" lon="5.5558">
        <ele>461.57</ele>
        <time>2014-03-21T09:14:00Z</time>
      </trkpt>
      <trkpt lat="43.36188" lon="5.55592">
        <ele>459.65</ele>
        <time>2014-03-21T09:14:11Z</time>
      </trkpt>
      <trkpt lat="43.36186" lon="5.55595">
        <ele>458.69</ele>
        <time>2014-03-21T09:14:13Z</time>
      </trkpt>
      <trkpt lat="43.36184" lon="5.55607">
        <ele>457.24</ele>
        <time>2014-03-21T09:14:22Z</time>
      </trkpt>
      <trkpt lat="43.3618" lon="5.55619">
        <ele>455.32</ele>
        <time>2014-03-21T09:14:32Z</time>
      </trkpt>
      <trkpt lat="43.36177" lon="5.55633">
        <ele>453.88</ele>
        <time>2014-03-21T09:14:44Z</time>
      </trkpt>
      <trkpt lat="43.36177" lon="5.55642">
        <ele>452.44</ele>
        <time>2014-03-21T09:14:53Z</time>
      </trkpt>
      <trkpt lat="43.36181" lon="5.55651">
        <ele>451</ele>
        <time>2014-03-21T09:15:02Z</time>
      </trkpt>
      <trkpt lat="43.36186" lon="5.55666">
        <ele>449.55</ele>
        <time>2014-03-21T09:15:12Z</time>
      </trkpt>
      <trkpt lat="43.3619" lon="5.55673">
        <ele>448.59</ele>
        <time>2014-03-21T09:15:18Z</time>
      </trkpt>
      <trkpt lat="43.36199" lon="5.55687">
        <ele>447.63</ele>
        <time>2014-03-21T09:15:29Z</time>
      </trkpt>
      <trkpt lat="43.36202" lon="5.55694">
        <ele>447.15</ele>
        <time>2014-03-21T09:15:35Z</time>
      </trkpt>
      <trkpt lat="43.36213" lon="5.5571">
        <ele>444.75</ele>
        <time>2014-03-21T09:15:49Z</time>
      </trkpt>
      <trkpt lat="43.36218" lon="5.55716">
        <ele>443.79</ele>
        <time>2014-03-21T09:15:57Z</time>
      </trkpt>
      <trkpt lat="43.36221" lon="5.5572">
        <ele>443.79</ele>
        <time>2014-03-21T09:16:07Z</time>
      </trkpt>
      <trkpt lat="43.36224" lon="5.55723">
        <ele>443.31</ele>
        <time>2014-03-21T09:16:11Z</time>
      </trkpt>
      <trkpt lat="43.3623" lon="5.55729">
        <ele>441.86</ele>
        <time>2014-03-21T09:16:18Z</time>
      </trkpt>
      <trkpt lat="43.36242" lon="5.55737">
        <ele>440.9</ele>
        <time>2014-03-21T09:16:29Z</time>
      </trkpt>
      <trkpt lat="43.3625" lon="5.55745">
        <ele>439.46</ele>
        <time>2014-03-21T09:16:39Z</time>
      </trkpt>
      <trkpt lat="43.36257" lon="5.5576">
        <ele>438.02</ele>
        <time>2014-03-21T09:16:49Z</time>
      </trkpt>
      <trkpt lat="43.3626" lon="5.55763">
        <ele>438.02</ele>
        <time>2014-03-21T09:16:53Z</time>
      </trkpt>
      <trkpt lat="43.36262" lon="5.55776">
        <ele>437.06</ele>
        <time>2014-03-21T09:17:02Z</time>
      </trkpt>
      <trkpt lat="43.36263" lon="5.55777">
        <ele>437.06</ele>
        <time>2014-03-21T09:17:03Z</time>
      </trkpt>
      <trkpt lat="43.36266" lon="5.55793">
        <ele>436.1</ele>
        <time>2014-03-21T09:17:12Z</time>
      </trkpt>
      <trkpt lat="43.36268" lon="5.55799">
        <ele>435.61</ele>
        <time>2014-03-21T09:17:17Z</time>
      </trkpt>
      <trkpt lat="43.36273" lon="5.55806">
        <ele>434.65</ele>
        <time>2014-03-21T09:17:23Z</time>
      </trkpt>
      <trkpt lat="43.36278" lon="5.55818">
        <ele>433.69</ele>
        <time>2014-03-21T09:17:32Z</time>
      </trkpt>
      <trkpt lat="43.36282" lon="5.55826">
        <ele>433.21</ele>
        <time>2014-03-21T09:17:39Z</time>
      </trkpt>
      <trkpt lat="43.36283" lon="5.5583">
        <ele>433.21</ele>
        <time>2014-03-21T09:17:42Z</time>
      </trkpt>
      <trkpt lat="43.36285" lon="5.55836">
        <ele>432.25</ele>
        <time>2014-03-21T09:17:47Z</time>
      </trkpt>
      <trkpt lat="43.36287" lon="5.55849">
        <ele>431.77</ele>
        <time>2014-03-21T09:17:56Z</time>
      </trkpt>
      <trkpt lat="43.36287" lon="5.55859">
        <ele>431.29</ele>
        <time>2014-03-21T09:18:04Z</time>
      </trkpt>
      <trkpt lat="43.36288" lon="5.55864">
        <ele>431.77</ele>
        <time>2014-03-21T09:18:16Z</time>
      </trkpt>
      <trkpt lat="43.36286" lon="5.55869">
        <ele>431.77</ele>
        <time>2014-03-21T09:18:25Z</time>
      </trkpt>
      <trkpt lat="43.36292" lon="5.5587">
        <ele>430.81</ele>
        <time>2014-03-21T09:18:35Z</time>
      </trkpt>
      <trkpt lat="43.36291" lon="5.55871">
        <ele>431.29</ele>
        <time>2014-03-21T09:18:53Z</time>
      </trkpt>
      <trkpt lat="43.36291" lon="5.55871">
        <ele>430.81</ele>
        <time>2014-03-21T09:19:08Z</time>
      </trkpt>
      <trkpt lat="43.36292" lon="5.5587">
        <ele>431.29</ele>
        <time>2014-03-21T09:19:23Z</time>
      </trkpt>
      <trkpt lat="43.36292" lon="5.5587">
        <ele>431.29</ele>
        <time>2014-03-21T09:19:32Z</time>
      </trkpt>
      <trkpt lat="43.36285" lon="5.55873">
        <ele>432.73</ele>
        <time>2014-03-21T09:19:42Z</time>
      </trkpt>
      <trkpt lat="43.36284" lon="5.55884">
        <ele>433.21</ele>
        <time>2014-03-21T09:19:53Z</time>
      </trkpt>
      <trkpt lat="43.3628" lon="5.55894">
        <ele>433.69</ele>
        <time>2014-03-21T09:20:02Z</time>
      </trkpt>
      <trkpt lat="43.36275" lon="5.55901">
        <ele>434.65</ele>
        <time>2014-03-21T09:20:09Z</time>
      </trkpt>
      <trkpt lat="43.36273" lon="5.55902">
        <ele>434.65</ele>
        <time>2014-03-21T09:20:11Z</time>
      </trkpt>
      <trkpt lat="43.36271" lon="5.55902">
        <ele>435.13</ele>
        <time>2014-03-21T09:20:13Z</time>
      </trkpt>
      <trkpt lat="43.36262" lon="5.55906">
        <ele>436.58</ele>
        <time>2014-03-21T09:20:23Z</time>
      </trkpt>
      <trkpt lat="43.36256" lon="5.55912">
        <ele>438.5</ele>
        <time>2014-03-21T09:20:33Z</time>
      </trkpt>
      <trkpt lat="43.36253" lon="5.55919">
        <ele>439.94</ele>
        <time>2014-03-21T09:20:42Z</time>
      </trkpt>
      <trkpt lat="43.36249" lon="5.55928">
        <ele>441.86</ele>
        <time>2014-03-21T09:20:52Z</time>
      </trkpt>
      <trkpt lat="43.36246" lon="5.55941">
        <ele>443.79</ele>
        <time>2014-03-21T09:21:05Z</time>
      </trkpt>
      <trkpt lat="43.36248" lon="5.55949">
        <ele>445.23</ele>
        <time>2014-03-21T09:21:14Z</time>
      </trkpt>
      <trkpt lat="43.36249" lon="5.55959">
        <ele>446.19</ele>
        <time>2014-03-21T09:21:23Z</time>
      </trkpt>
      <trkpt lat="43.36246" lon="5.55968">
        <ele>448.11</ele>
        <time>2014-03-21T09:21:33Z</time>
      </trkpt>
      <trkpt lat="43.36245" lon="5.55979">
        <ele>449.55</ele>
        <time>2014-03-21T09:21:45Z</time>
      </trkpt>
      <trkpt lat="43.36242" lon="5.5599">
        <ele>451</ele>
        <time>2014-03-21T09:21:55Z</time>
      </trkpt>
      <trkpt lat="43.36239" lon="5.55997">
        <ele>451.48</ele>
        <time>2014-03-21T09:22:02Z</time>
      </trkpt>
      <trkpt lat="43.36236" lon="5.56001">
        <ele>450.52</ele>
        <time>2014-03-21T09:22:11Z</time>
      </trkpt>
      <trkpt lat="43.36236" lon="5.56003">
        <ele>451.96</ele>
        <time>2014-03-21T09:22:30Z</time>
      </trkpt>
      <trkpt lat="43.36235" lon="5.56007">
        <ele>451.96</ele>
        <time>2014-03-21T09:22:40Z</time>
      </trkpt>
      <trkpt lat="43.36233" lon="5.56008">
        <ele>451.96</ele>
        <time>2014-03-21T09:22:47Z</time>
      </trkpt>
      <trkpt lat="43.36227" lon="5.56015">
        <ele>451</ele>
        <time>2014-03-21T09:22:57Z</time>
      </trkpt>
      <trkpt lat="43.36223" lon="5.56016">
        <ele>450.03</ele>
        <time>2014-03-21T09:23:02Z</time>
      </trkpt>
      <trkpt lat="43.36218" lon="5.5602">
        <ele>449.07</ele>
        <time>2014-03-21T09:23:12Z</time>
      </trkpt>
      <trkpt lat="43.36218" lon="5.56029">
        <ele>446.19</ele>
        <time>2014-03-21T09:23:22Z</time>
      </trkpt>
      <trkpt lat="43.36219" lon="5.56033">
        <ele>445.23</ele>
        <time>2014-03-21T09:23:26Z</time>
      </trkpt>
      <trkpt lat="43.36221" lon="5.56045">
        <ele>443.31</ele>
        <time>2014-03-21T09:23:37Z</time>
      </trkpt>
      <trkpt lat="43.36222" lon="5.56051">
        <ele>441.38</ele>
        <time>2014-03-21T09:23:42Z</time>
      </trkpt>
      <trkpt lat="43.36224" lon="5.56051">
        <ele>441.38</ele>
        <time>2014-03-21T09:23:44Z</time>
      </trkpt>
      <trkpt lat="43.36224" lon="5.56061">
        <ele>439.46</ele>
        <time>2014-03-21T09:23:54Z</time>
      </trkpt>
      <trkpt lat="43.36224" lon="5.56063">
        <ele>438.98</ele>
        <time>2014-03-21T09:23:56Z</time>
      </trkpt>
      <trkpt lat="43.36215" lon="5.56071">
        <ele>438.5</ele>
        <time>2014-03-21T09:24:05Z</time>
      </trkpt>
      <trkpt lat="43.36216" lon="5.56081">
        <ele>436.58</ele>
        <time>2014-03-21T09:24:14Z</time>
      </trkpt>
      <trkpt lat="43.36218" lon="5.56086">
        <ele>435.61</ele>
        <time>2014-03-21T09:24:18Z</time>
      </trkpt>
      <trkpt lat="43.36222" lon="5.56099">
        <ele>433.69</ele>
        <time>2014-03-21T09:24:28Z</time>
      </trkpt>
      <trkpt lat="43.36222" lon="5.56104">
        <ele>432.73</ele>
        <time>2014-03-21T09:24:32Z</time>
      </trkpt>
      <trkpt lat="43.36225" lon="5.56114">
        <ele>430.81</ele>
        <time>2014-03-21T09:24:39Z</time>
      </trkpt>
      <trkpt lat="43.36231" lon="5.56134">
        <ele>427.92</ele>
        <time>2014-03-21T09:24:52Z</time>
      </trkpt>
      <trkpt lat="43.36233" lon="5.5614">
        <ele>426.48</ele>
        <time>2014-03-21T09:24:57Z</time>
      </trkpt>
      <trkpt lat="43.36235" lon="5.56156">
        <ele>425.04</ele>
        <time>2014-03-21T09:25:06Z</time>
      </trkpt>
      <trkpt lat="43.36235" lon="5.56166">
        <ele>424.08</ele>
        <time>2014-03-21T09:25:12Z</time>
      </trkpt>
      <trkpt lat="43.36236" lon="5.5617">
        <ele>423.12</ele>
        <time>2014-03-21T09:25:15Z</time>
      </trkpt>
      <trkpt lat="43.36237" lon="5.56174">
        <ele>422.64</ele>
        <time>2014-03-21T09:25:18Z</time>
      </trkpt>
      <trkpt lat="43.36238" lon="5.56182">
        <ele>421.68</ele>
        <time>2014-03-21T09:25:24Z</time>
      </trkpt>
      <trkpt lat="43.3624" lon="5.56186">
        <ele>421.19</ele>
        <time>2014-03-21T09:25:27Z</time>
      </trkpt>
      <trkpt lat="43.36244" lon="5.56201">
        <ele>420.23</ele>
        <time>2014-03-21T09:25:38Z</time>
      </trkpt>
      <trkpt lat="43.36246" lon="5.56215">
        <ele>418.79</ele>
        <time>2014-03-21T09:25:46Z</time>
      </trkpt>
      <trkpt lat="43.36249" lon="5.56227">
        <ele>417.83</ele>
        <time>2014-03-21T09:25:55Z</time>
      </trkpt>
      <trkpt lat="43.36252" lon="5.56239">
        <ele>417.35</ele>
        <time>2014-03-21T09:26:04Z</time>
      </trkpt>
      <trkpt lat="43.36252" lon="5.56246">
        <ele>416.87</ele>
        <time>2014-03-21T09:26:09Z</time>
      </trkpt>
      <trkpt lat="43.36253" lon="5.56252">
        <ele>416.87</ele>
        <time>2014-03-21T09:26:18Z</time>
      </trkpt>
      <trkpt lat="43.36253" lon="5.56257">
        <ele>416.39</ele>
        <time>2014-03-21T09:26:24Z</time>
      </trkpt>
      <trkpt lat="43.36249" lon="5.56262">
        <ele>416.39</ele>
        <time>2014-03-21T09:26:28Z</time>
      </trkpt>
      <trkpt lat="43.36245" lon="5.56266">
        <ele>416.87</ele>
        <time>2014-03-21T09:26:32Z</time>
      </trkpt>
      <trkpt lat="43.36236" lon="5.56269">
        <ele>416.87</ele>
        <time>2014-03-21T09:26:40Z</time>
      </trkpt>
      <trkpt lat="43.36232" lon="5.56272">
        <ele>416.87</ele>
        <time>2014-03-21T09:26:44Z</time>
      </trkpt>
      <trkpt lat="43.36227" lon="5.56279">
        <ele>417.35</ele>
        <time>2014-03-21T09:26:51Z</time>
      </trkpt>
      <trkpt lat="43.36223" lon="5.56283">
        <ele>417.35</ele>
        <time>2014-03-21T09:26:56Z</time>
      </trkpt>
      <trkpt lat="43.3622" lon="5.56285">
        <ele>417.83</ele>
        <time>2014-03-21T09:26:59Z</time>
      </trkpt>
      <trkpt lat="43.36214" lon="5.5629">
        <ele>418.31</ele>
        <time>2014-03-21T09:27:05Z</time>
      </trkpt>
      <trkpt lat="43.36212" lon="5.56293">
        <ele>418.79</ele>
        <time>2014-03-21T09:27:08Z</time>
      </trkpt>
      <trkpt lat="43.3621" lon="5.56301">
        <ele>419.75</ele>
        <time>2014-03-21T09:27:18Z</time>
      </trkpt>
      <trkpt lat="43.36213" lon="5.5631">
        <ele>421.19</ele>
        <time>2014-03-21T09:27:26Z</time>
      </trkpt>
      <trkpt lat="43.36214" lon="5.56312">
        <ele>422.16</ele>
        <time>2014-03-21T09:27:29Z</time>
      </trkpt>
      <trkpt lat="43.36218" lon="5.56314">
        <ele>422.16</ele>
        <time>2014-03-21T09:27:33Z</time>
      </trkpt>
      <trkpt lat="43.36223" lon="5.56324">
        <ele>423.6</ele>
        <time>2014-03-21T09:27:44Z</time>
      </trkpt>
      <trkpt lat="43.36224" lon="5.56325">
        <ele>424.08</ele>
        <time>2014-03-21T09:27:46Z</time>
      </trkpt>
      <trkpt lat="43.36227" lon="5.56329">
        <ele>425.04</ele>
        <time>2014-03-21T09:27:56Z</time>
      </trkpt>
      <trkpt lat="43.36229" lon="5.56332">
        <ele>425.52</ele>
        <time>2014-03-21T09:28:10Z</time>
      </trkpt>
      <trkpt lat="43.36231" lon="5.5634">
        <ele>427.44</ele>
        <time>2014-03-21T09:28:19Z</time>
      </trkpt>
      <trkpt lat="43.36232" lon="5.56348">
        <ele>428.4</ele>
        <time>2014-03-21T09:28:28Z</time>
      </trkpt>
      <trkpt lat="43.36233" lon="5.56356">
        <ele>430.33</ele>
        <time>2014-03-21T09:28:36Z</time>
      </trkpt>
      <trkpt lat="43.36233" lon="5.56364">
        <ele>431.77</ele>
        <time>2014-03-21T09:28:47Z</time>
      </trkpt>
      <trkpt lat="43.36233" lon="5.56374">
        <ele>432.73</ele>
        <time>2014-03-21T09:28:56Z</time>
      </trkpt>
      <trkpt lat="43.36233" lon="5.56375">
        <ele>433.21</ele>
        <time>2014-03-21T09:28:57Z</time>
      </trkpt>
      <trkpt lat="43.36233" lon="5.5638">
        <ele>433.69</ele>
        <time>2014-03-21T09:29:01Z</time>
      </trkpt>
      <trkpt lat="43.36235" lon="5.56392">
        <ele>434.65</ele>
        <time>2014-03-21T09:29:11Z</time>
      </trkpt>
      <trkpt lat="43.36234" lon="5.56402">
        <ele>435.61</ele>
        <time>2014-03-21T09:29:20Z</time>
      </trkpt>
      <trkpt lat="43.36231" lon="5.56413">
        <ele>436.58</ele>
        <time>2014-03-21T09:29:29Z</time>
      </trkpt>
      <trkpt lat="43.3623" lon="5.56414">
        <ele>437.06</ele>
        <time>2014-03-21T09:29:32Z</time>
      </trkpt>
      <trkpt lat="43.36227" lon="5.56421">
        <ele>438.5</ele>
        <time>2014-03-21T09:29:42Z</time>
      </trkpt>
      <trkpt lat="43.36224" lon="5.56427">
        <ele>440.42</ele>
        <time>2014-03-21T09:29:53Z</time>
      </trkpt>
      <trkpt lat="43.36221" lon="5.56433">
        <ele>441.86</ele>
        <time>2014-03-21T09:30:04Z</time>
      </trkpt>
      <trkpt lat="43.36219" lon="5.5644">
        <ele>443.79</ele>
        <time>2014-03-21T09:30:15Z</time>
      </trkpt>
      <trkpt lat="43.36217" lon="5.56444">
        <ele>445.23</ele>
        <time>2014-03-21T09:30:25Z</time>
      </trkpt>
      <trkpt lat="43.36214" lon="5.56452">
        <ele>447.15</ele>
        <time>2014-03-21T09:30:35Z</time>
      </trkpt>
      <trkpt lat="43.36216" lon="5.5646">
        <ele>448.11</ele>
        <time>2014-03-21T09:30:44Z</time>
      </trkpt>
      <trkpt lat="43.36215" lon="5.56469">
        <ele>449.07</ele>
        <time>2014-03-21T09:30:56Z</time>
      </trkpt>
      <trkpt lat="43.36216" lon="5.56471">
        <ele>449.07</ele>
        <time>2014-03-21T09:31:19Z</time>
      </trkpt>
      <trkpt lat="43.36216" lon="5.56471">
        <ele>449.07</ele>
        <time>2014-03-21T09:31:40Z</time>
      </trkpt>
      <trkpt lat="43.36216" lon="5.56472">
        <ele>449.07</ele>
        <time>2014-03-21T09:31:42Z</time>
      </trkpt>
      <trkpt lat="43.36216" lon="5.56485">
        <ele>451</ele>
        <time>2014-03-21T09:31:54Z</time>
      </trkpt>
      <trkpt lat="43.36215" lon="5.56496">
        <ele>451.96</ele>
        <time>2014-03-21T09:32:04Z</time>
      </trkpt>
      <trkpt lat="43.36214" lon="5.56504">
        <ele>452.92</ele>
        <time>2014-03-21T09:32:13Z</time>
      </trkpt>
      <trkpt lat="43.36212" lon="5.56513">
        <ele>454.84</ele>
        <time>2014-03-21T09:32:24Z</time>
      </trkpt>
      <trkpt lat="43.3621" lon="5.5652">
        <ele>455.8</ele>
        <time>2014-03-21T09:32:34Z</time>
      </trkpt>
      <trkpt lat="43.36207" lon="5.56527">
        <ele>457.72</ele>
        <time>2014-03-21T09:32:44Z</time>
      </trkpt>
      <trkpt lat="43.36202" lon="5.56533">
        <ele>459.65</ele>
        <time>2014-03-21T09:32:56Z</time>
      </trkpt>
      <trkpt lat="43.36197" lon="5.56539">
        <ele>460.61</ele>
        <time>2014-03-21T09:33:07Z</time>
      </trkpt>
      <trkpt lat="43.36192" lon="5.56544">
        <ele>462.53</ele>
        <time>2014-03-21T09:33:18Z</time>
      </trkpt>
      <trkpt lat="43.36188" lon="5.5655">
        <ele>463.97</ele>
        <time>2014-03-21T09:33:29Z</time>
      </trkpt>
      <trkpt lat="43.36184" lon="5.56556">
        <ele>465.42</ele>
        <time>2014-03-21T09:33:39Z</time>
      </trkpt>
      <trkpt lat="43.3618" lon="5.56562">
        <ele>466.86</ele>
        <time>2014-03-21T09:33:49Z</time>
      </trkpt>
      <trkpt lat="43.36178" lon="5.56571">
        <ele>468.3</ele>
        <time>2014-03-21T09:34:00Z</time>
      </trkpt>
      <trkpt lat="43.36176" lon="5.56577">
        <ele>469.74</ele>
        <time>2014-03-21T09:34:10Z</time>
      </trkpt>
      <trkpt lat="43.36171" lon="5.56587">
        <ele>471.18</ele>
        <time>2014-03-21T09:34:21Z</time>
      </trkpt>
      <trkpt lat="43.36168" lon="5.56596">
        <ele>472.63</ele>
        <time>2014-03-21T09:34:33Z</time>
      </trkpt>
      <trkpt lat="43.36163" lon="5.566">
        <ele>473.59</ele>
        <time>2014-03-21T09:34:43Z</time>
      </trkpt>
      <trkpt lat="43.3616" lon="5.56607">
        <ele>475.51</ele>
        <time>2014-03-21T09:34:53Z</time>
      </trkpt>
      <trkpt lat="43.36158" lon="5.56612">
        <ele>475.99</ele>
        <time>2014-03-21T09:35:03Z</time>
      </trkpt>
      <trkpt lat="43.36153" lon="5.56616">
        <ele>477.43</ele>
        <time>2014-03-21T09:35:12Z</time>
      </trkpt>
      <trkpt lat="43.36148" lon="5.56621">
        <ele>478.39</ele>
        <time>2014-03-21T09:35:21Z</time>
      </trkpt>
      <trkpt lat="43.36142" lon="5.56623">
        <ele>479.35</ele>
        <time>2014-03-21T09:35:32Z</time>
      </trkpt>
      <trkpt lat="43.36134" lon="5.56625">
        <ele>480.8</ele>
        <time>2014-03-21T09:35:41Z</time>
      </trkpt>
      <trkpt lat="43.36126" lon="5.56628">
        <ele>481.76</ele>
        <time>2014-03-21T09:35:52Z</time>
      </trkpt>
      <trkpt lat="43.36124" lon="5.56636">
        <ele>482.24</ele>
        <time>2014-03-21T09:36:01Z</time>
      </trkpt>
      <trkpt lat="43.36124" lon="5.5664">
        <ele>482.24</ele>
        <time>2014-03-21T09:36:04Z</time>
      </trkpt>
      <trkpt lat="43.36124" lon="5.56649">
        <ele>482.24</ele>
        <time>2014-03-21T09:36:11Z</time>
      </trkpt>
      <trkpt lat="43.36127" lon="5.56662">
        <ele>482.24</ele>
        <time>2014-03-21T09:36:21Z</time>
      </trkpt>
      <trkpt lat="43.36128" lon="5.56666">
        <ele>482.24</ele>
        <time>2014-03-21T09:36:25Z</time>
      </trkpt>
      <trkpt lat="43.36126" lon="5.56677">
        <ele>483.68</ele>
        <time>2014-03-21T09:36:36Z</time>
      </trkpt>
      <trkpt lat="43.36127" lon="5.56686">
        <ele>484.16</ele>
        <time>2014-03-21T09:36:47Z</time>
      </trkpt>
      <trkpt lat="43.36126" lon="5.56688">
        <ele>484.64</ele>
        <time>2014-03-21T09:36:55Z</time>
      </trkpt>
      <trkpt lat="43.36127" lon="5.56689">
        <ele>484.64</ele>
        <time>2014-03-21T09:37:16Z</time>
      </trkpt>
      <trkpt lat="43.36131" lon="5.56699">
        <ele>484.64</ele>
        <time>2014-03-21T09:37:26Z</time>
      </trkpt>
      <trkpt lat="43.36131" lon="5.56706">
        <ele>483.68</ele>
        <time>2014-03-21T09:37:32Z</time>
      </trkpt>
      <trkpt lat="43.36129" lon="5.56723">
        <ele>482.24</ele>
        <time>2014-03-21T09:37:44Z</time>
      </trkpt>
      <trkpt lat="43.36128" lon="5.56724">
        <ele>485.6</ele>
        <time>2014-03-21T09:37:45Z</time>
      </trkpt>
      <trkpt lat="43.36121" lon="5.56738">
        <ele>483.68</ele>
        <time>2014-03-21T09:37:57Z</time>
      </trkpt>
      <trkpt lat="43.36113" lon="5.5675">
        <ele>483.2</ele>
        <time>2014-03-21T09:38:08Z</time>
      </trkpt>
      <trkpt lat="43.36107" lon="5.56759">
        <ele>482.72</ele>
        <time>2014-03-21T09:38:17Z</time>
      </trkpt>
      <trkpt lat="43.36107" lon="5.56768">
        <ele>482.24</ele>
        <time>2014-03-21T09:38:24Z</time>
      </trkpt>
      <trkpt lat="43.36107" lon="5.56774">
        <ele>481.28</ele>
        <time>2014-03-21T09:38:28Z</time>
      </trkpt>
      <trkpt lat="43.36111" lon="5.56788">
        <ele>479.35</ele>
        <time>2014-03-21T09:38:38Z</time>
      </trkpt>
      <trkpt lat="43.36114" lon="5.56801">
        <ele>479.84</ele>
        <time>2014-03-21T09:38:47Z</time>
      </trkpt>
      <trkpt lat="43.36119" lon="5.56811">
        <ele>478.87</ele>
        <time>2014-03-21T09:38:53Z</time>
      </trkpt>
      <trkpt lat="43.36127" lon="5.56824">
        <ele>478.39</ele>
        <time>2014-03-21T09:39:04Z</time>
      </trkpt>
      <trkpt lat="43.36133" lon="5.56834">
        <ele>478.39</ele>
        <time>2014-03-21T09:39:13Z</time>
      </trkpt>
      <trkpt lat="43.36136" lon="5.56847">
        <ele>479.35</ele>
        <time>2014-03-21T09:39:22Z</time>
      </trkpt>
      <trkpt lat="43.36137" lon="5.5685">
        <ele>479.84</ele>
        <time>2014-03-21T09:39:25Z</time>
      </trkpt>
      <trkpt lat="43.3614" lon="5.56857">
        <ele>480.32</ele>
        <time>2014-03-21T09:39:30Z</time>
      </trkpt>
      <trkpt lat="43.36142" lon="5.56871">
        <ele>481.28</ele>
        <time>2014-03-21T09:39:39Z</time>
      </trkpt>
      <trkpt lat="43.36136" lon="5.56886">
        <ele>482.24</ele>
        <time>2014-03-21T09:39:49Z</time>
      </trkpt>
      <trkpt lat="43.36133" lon="5.569">
        <ele>482.72</ele>
        <time>2014-03-21T09:39:59Z</time>
      </trkpt>
      <trkpt lat="43.36135" lon="5.56913">
        <ele>481.76</ele>
        <time>2014-03-21T09:40:07Z</time>
      </trkpt>
      <trkpt lat="43.3614" lon="5.56923">
        <ele>481.76</ele>
        <time>2014-03-21T09:40:15Z</time>
      </trkpt>
      <trkpt lat="43.36142" lon="5.56936">
        <ele>482.72</ele>
        <time>2014-03-21T09:40:24Z</time>
      </trkpt>
      <trkpt lat="43.36146" lon="5.56949">
        <ele>484.64</ele>
        <time>2014-03-21T09:40:34Z</time>
      </trkpt>
      <trkpt lat="43.3615" lon="5.56962">
        <ele>484.64</ele>
        <time>2014-03-21T09:40:42Z</time>
      </trkpt>
      <trkpt lat="43.36151" lon="5.56964">
        <ele>484.64</ele>
        <time>2014-03-21T09:40:43Z</time>
      </trkpt>
      <trkpt lat="43.36155" lon="5.56969">
        <ele>484.64</ele>
        <time>2014-03-21T09:40:48Z</time>
      </trkpt>
      <trkpt lat="43.36162" lon="5.5698">
        <ele>484.64</ele>
        <time>2014-03-21T09:40:57Z</time>
      </trkpt>
      <trkpt lat="43.3617" lon="5.56991">
        <ele>486.08</ele>
        <time>2014-03-21T09:41:08Z</time>
      </trkpt>
      <trkpt lat="43.36169" lon="5.57005">
        <ele>487.53</ele>
        <time>2014-03-21T09:41:19Z</time>
      </trkpt>
      <trkpt lat="43.36167" lon="5.57019">
        <ele>488.97</ele>
        <time>2014-03-21T09:41:29Z</time>
      </trkpt>
      <trkpt lat="43.36162" lon="5.57037">
        <ele>488.97</ele>
        <time>2014-03-21T09:41:40Z</time>
      </trkpt>
      <trkpt lat="43.36158" lon="5.57048">
        <ele>489.45</ele>
        <time>2014-03-21T09:41:49Z</time>
      </trkpt>
      <trkpt lat="43.36156" lon="5.57051">
        <ele>489.45</ele>
        <time>2014-03-21T09:41:51Z</time>
      </trkpt>
      <trkpt lat="43.36151" lon="5.57062">
        <ele>490.89</ele>
        <time>2014-03-21T09:42:00Z</time>
      </trkpt>
      <trkpt lat="43.3615" lon="5.5707">
        <ele>490.89</ele>
        <time>2014-03-21T09:42:05Z</time>
      </trkpt>
      <trkpt lat="43.36152" lon="5.57084">
        <ele>490.89</ele>
        <time>2014-03-21T09:42:14Z</time>
      </trkpt>
      <trkpt lat="43.36152" lon="5.57087">
        <ele>491.37</ele>
        <time>2014-03-21T09:42:16Z</time>
      </trkpt>
      <trkpt lat="43.36155" lon="5.57096">
        <ele>491.85</ele>
        <time>2014-03-21T09:42:23Z</time>
      </trkpt>
      <trkpt lat="43.36155" lon="5.57108">
        <ele>492.81</ele>
        <time>2014-03-21T09:42:31Z</time>
      </trkpt>
      <trkpt lat="43.36158" lon="5.57119">
        <ele>494.74</ele>
        <time>2014-03-21T09:42:41Z</time>
      </trkpt>
      <trkpt lat="43.3616" lon="5.57131">
        <ele>496.66</ele>
        <time>2014-03-21T09:42:51Z</time>
      </trkpt>
      <trkpt lat="43.36163" lon="5.57138">
        <ele>497.14</ele>
        <time>2014-03-21T09:42:57Z</time>
      </trkpt>
      <trkpt lat="43.36166" lon="5.57142">
        <ele>497.62</ele>
        <time>2014-03-21T09:43:01Z</time>
      </trkpt>
      <trkpt lat="43.36173" lon="5.57151">
        <ele>498.1</ele>
        <time>2014-03-21T09:43:10Z</time>
      </trkpt>
      <trkpt lat="43.36178" lon="5.57165">
        <ele>498.58</ele>
        <time>2014-03-21T09:43:20Z</time>
      </trkpt>
      <trkpt lat="43.36181" lon="5.57176">
        <ele>499.06</ele>
        <time>2014-03-21T09:43:26Z</time>
      </trkpt>
      <trkpt lat="43.36184" lon="5.57184">
        <ele>499.54</ele>
        <time>2014-03-21T09:43:32Z</time>
      </trkpt>
      <trkpt lat="43.3619" lon="5.57192">
        <ele>500.5</ele>
        <time>2014-03-21T09:43:40Z</time>
      </trkpt>
      <trkpt lat="43.36192" lon="5.57195">
        <ele>500.5</ele>
        <time>2014-03-21T09:43:43Z</time>
      </trkpt>
      <trkpt lat="43.36196" lon="5.57204">
        <ele>501.46</ele>
        <time>2014-03-21T09:43:51Z</time>
      </trkpt>
      <trkpt lat="43.36201" lon="5.5722">
        <ele>502.43</ele>
        <time>2014-03-21T09:44:02Z</time>
      </trkpt>
      <trkpt lat="43.36208" lon="5.57234">
        <ele>502.43</ele>
        <time>2014-03-21T09:44:12Z</time>
      </trkpt>
      <trkpt lat="43.36212" lon="5.57247">
        <ele>502.91</ele>
        <time>2014-03-21T09:44:21Z</time>
      </trkpt>
      <trkpt lat="43.36212" lon="5.57253">
        <ele>503.39</ele>
        <time>2014-03-21T09:44:25Z</time>
      </trkpt>
      <trkpt lat="43.36214" lon="5.57266">
        <ele>503.87</ele>
        <time>2014-03-21T09:44:33Z</time>
      </trkpt>
      <trkpt lat="43.36214" lon="5.57269">
        <ele>504.35</ele>
        <time>2014-03-21T09:44:35Z</time>
      </trkpt>
      <trkpt lat="43.36215" lon="5.57275">
        <ele>504.35</ele>
        <time>2014-03-21T09:44:39Z</time>
      </trkpt>
      <trkpt lat="43.36219" lon="5.57294">
        <ele>504.83</ele>
        <time>2014-03-21T09:44:51Z</time>
      </trkpt>
      <trkpt lat="43.36222" lon="5.57308">
        <ele>504.83</ele>
        <time>2014-03-21T09:45:00Z</time>
      </trkpt>
      <trkpt lat="43.36222" lon="5.57315">
        <ele>504.83</ele>
        <time>2014-03-21T09:45:04Z</time>
      </trkpt>
      <trkpt lat="43.36225" lon="5.57332">
        <ele>505.31</ele>
        <time>2014-03-21T09:45:15Z</time>
      </trkpt>
      <trkpt lat="43.36225" lon="5.57341">
        <ele>505.79</ele>
        <time>2014-03-21T09:45:19Z</time>
      </trkpt>
      <trkpt lat="43.36226" lon="5.57349">
        <ele>505.79</ele>
        <time>2014-03-21T09:45:24Z</time>
      </trkpt>
      <trkpt lat="43.36225" lon="5.57364">
        <ele>506.75</ele>
        <time>2014-03-21T09:45:33Z</time>
      </trkpt>
      <trkpt lat="43.36227" lon="5.5737">
        <ele>507.23</ele>
        <time>2014-03-21T09:45:37Z</time>
      </trkpt>
      <trkpt lat="43.36228" lon="5.57378">
        <ele>507.71</ele>
        <time>2014-03-21T09:45:42Z</time>
      </trkpt>
      <trkpt lat="43.36231" lon="5.57397">
        <ele>508.19</ele>
        <time>2014-03-21T09:45:54Z</time>
      </trkpt>
      <trkpt lat="43.36232" lon="5.57406">
        <ele>508.67</ele>
        <time>2014-03-21T09:46:00Z</time>
      </trkpt>
      <trkpt lat="43.36233" lon="5.57421">
        <ele>509.64</ele>
        <time>2014-03-21T09:46:09Z</time>
      </trkpt>
      <trkpt lat="43.36235" lon="5.57441">
        <ele>510.12</ele>
        <time>2014-03-21T09:46:21Z</time>
      </trkpt>
      <trkpt lat="43.36237" lon="5.57457">
        <ele>510.12</ele>
        <time>2014-03-21T09:46:32Z</time>
      </trkpt>
      <trkpt lat="43.36238" lon="5.57465">
        <ele>510.6</ele>
        <time>2014-03-21T09:46:37Z</time>
      </trkpt>
      <trkpt lat="43.36238" lon="5.57473">
        <ele>511.08</ele>
        <time>2014-03-21T09:46:43Z</time>
      </trkpt>
      <trkpt lat="43.36237" lon="5.5748">
        <ele>511.08</ele>
        <time>2014-03-21T09:46:47Z</time>
      </trkpt>
      <trkpt lat="43.36237" lon="5.57492">
        <ele>510.6</ele>
        <time>2014-03-21T09:46:56Z</time>
      </trkpt>
      <trkpt lat="43.3624" lon="5.57512">
        <ele>512.04</ele>
        <time>2014-03-21T09:47:07Z</time>
      </trkpt>
      <trkpt lat="43.36242" lon="5.57521">
        <ele>512.04</ele>
        <time>2014-03-21T09:47:13Z</time>
      </trkpt>
      <trkpt lat="43.36242" lon="5.57541">
        <ele>512.52</ele>
        <time>2014-03-21T09:47:25Z</time>
      </trkpt>
      <trkpt lat="43.36247" lon="5.57552">
        <ele>513.48</ele>
        <time>2014-03-21T09:47:34Z</time>
      </trkpt>
      <trkpt lat="43.3625" lon="5.57563">
        <ele>515.4</ele>
        <time>2014-03-21T09:47:44Z</time>
      </trkpt>
      <trkpt lat="43.36252" lon="5.5757">
        <ele>515.88</ele>
        <time>2014-03-21T09:47:49Z</time>
      </trkpt>
      <trkpt lat="43.36256" lon="5.57584">
        <ele>517.33</ele>
        <time>2014-03-21T09:48:00Z</time>
      </trkpt>
      <trkpt lat="43.36256" lon="5.57586">
        <ele>517.81</ele>
        <time>2014-03-21T09:48:01Z</time>
      </trkpt>
      <trkpt lat="43.36258" lon="5.57588">
        <ele>517.81</ele>
        <time>2014-03-21T09:48:03Z</time>
      </trkpt>
      <trkpt lat="43.3626" lon="5.57595">
        <ele>517.81</ele>
        <time>2014-03-21T09:48:08Z</time>
      </trkpt>
      <trkpt lat="43.36265" lon="5.57601">
        <ele>518.29</ele>
        <time>2014-03-21T09:48:14Z</time>
      </trkpt>
      <trkpt lat="43.36272" lon="5.57617">
        <ele>517.81</ele>
        <time>2014-03-21T09:48:25Z</time>
      </trkpt>
      <trkpt lat="43.36274" lon="5.57632">
        <ele>517.33</ele>
        <time>2014-03-21T09:48:35Z</time>
      </trkpt>
      <trkpt lat="43.36272" lon="5.57637">
        <ele>517.33</ele>
        <time>2014-03-21T09:48:46Z</time>
      </trkpt>
      <trkpt lat="43.36271" lon="5.57638">
        <ele>517.33</ele>
        <time>2014-03-21T09:48:58Z</time>
      </trkpt>
      <trkpt lat="43.36271" lon="5.57638">
        <ele>517.33</ele>
        <time>2014-03-21T09:49:08Z</time>
      </trkpt>
      <trkpt lat="43.36271" lon="5.57638">
        <ele>518.29</ele>
        <time>2014-03-21T09:49:17Z</time>
      </trkpt>
      <trkpt lat="43.36272" lon="5.57638">
        <ele>518.29</ele>
        <time>2014-03-21T09:49:40Z</time>
      </trkpt>
      <trkpt lat="43.36272" lon="5.57638">
        <ele>518.29</ele>
        <time>2014-03-21T09:49:54Z</time>
      </trkpt>
      <trkpt lat="43.36272" lon="5.57638">
        <ele>518.29</ele>
        <time>2014-03-21T09:50:12Z</time>
      </trkpt>
      <trkpt lat="43.36272" lon="5.57639">
        <ele>518.29</ele>
        <time>2014-03-21T09:50:34Z</time>
      </trkpt>
      <trkpt lat="43.36275" lon="5.57641">
        <ele>517.81</ele>
        <time>2014-03-21T09:50:55Z</time>
      </trkpt>
      <trkpt lat="43.36277" lon="5.57641">
        <ele>517.33</ele>
        <time>2014-03-21T09:50:57Z</time>
      </trkpt>
      <trkpt lat="43.36281" lon="5.57642">
        <ele>516.85</ele>
        <time>2014-03-21T09:51:01Z</time>
      </trkpt>
      <trkpt lat="43.36289" lon="5.57641">
        <ele>515.88</ele>
        <time>2014-03-21T09:51:09Z</time>
      </trkpt>
      <trkpt lat="43.36301" lon="5.57639">
        <ele>513.96</ele>
        <time>2014-03-21T09:51:20Z</time>
      </trkpt>
      <trkpt lat="43.36305" lon="5.57639">
        <ele>513.48</ele>
        <time>2014-03-21T09:51:23Z</time>
      </trkpt>
      <trkpt lat="43.36315" lon="5.57644">
        <ele>512.04</ele>
        <time>2014-03-21T09:51:32Z</time>
      </trkpt>
      <trkpt lat="43.36326" lon="5.57651">
        <ele>510.12</ele>
        <time>2014-03-21T09:51:43Z</time>
      </trkpt>
      <trkpt lat="43.36336" lon="5.5766">
        <ele>508.67</ele>
        <time>2014-03-21T09:51:52Z</time>
      </trkpt>
      <trkpt lat="43.3634" lon="5.57664">
        <ele>508.19</ele>
        <time>2014-03-21T09:51:57Z</time>
      </trkpt>
      <trkpt lat="43.36352" lon="5.57669">
        <ele>506.75</ele>
        <time>2014-03-21T09:52:08Z</time>
      </trkpt>
      <trkpt lat="43.36364" lon="5.57665">
        <ele>505.31</ele>
        <time>2014-03-21T09:52:19Z</time>
      </trkpt>
      <trkpt lat="43.36365" lon="5.57665">
        <ele>505.31</ele>
        <time>2014-03-21T09:52:20Z</time>
      </trkpt>
      <trkpt lat="43.36371" lon="5.5765">
        <ele>503.87</ele>
        <time>2014-03-21T09:52:31Z</time>
      </trkpt>
      <trkpt lat="43.36371" lon="5.57647">
        <ele>503.87</ele>
        <time>2014-03-21T09:52:33Z</time>
      </trkpt>
      <trkpt lat="43.36373" lon="5.57632">
        <ele>502.43</ele>
        <time>2014-03-21T09:52:43Z</time>
      </trkpt>
      <trkpt lat="43.36379" lon="5.57623">
        <ele>501.46</ele>
        <time>2014-03-21T09:52:50Z</time>
      </trkpt>
      <trkpt lat="43.36385" lon="5.57625">
        <ele>500.98</ele>
        <time>2014-03-21T09:52:56Z</time>
      </trkpt>
      <trkpt lat="43.36395" lon="5.57637">
        <ele>499.06</ele>
        <time>2014-03-21T09:53:07Z</time>
      </trkpt>
      <trkpt lat="43.36401" lon="5.5765">
        <ele>498.1</ele>
        <time>2014-03-21T09:53:17Z</time>
      </trkpt>
      <trkpt lat="43.36405" lon="5.57662">
        <ele>497.14</ele>
        <time>2014-03-21T09:53:26Z</time>
      </trkpt>
      <trkpt lat="43.36406" lon="5.57667">
        <ele>496.66</ele>
        <time>2014-03-21T09:53:29Z</time>
      </trkpt>
      <trkpt lat="43.36409" lon="5.57676">
        <ele>496.18</ele>
        <time>2014-03-21T09:53:35Z</time>
      </trkpt>
      <trkpt lat="43.36411" lon="5.57695">
        <ele>494.26</ele>
        <time>2014-03-21T09:53:47Z</time>
      </trkpt>
      <trkpt lat="43.36412" lon="5.57702">
        <ele>493.77</ele>
        <time>2014-03-21T09:53:51Z</time>
      </trkpt>
      <trkpt lat="43.36413" lon="5.57716">
        <ele>492.33</ele>
        <time>2014-03-21T09:54:01Z</time>
      </trkpt>
      <trkpt lat="43.36414" lon="5.5772">
        <ele>491.85</ele>
        <time>2014-03-21T09:54:04Z</time>
      </trkpt>
      <trkpt lat="43.36413" lon="5.57729">
        <ele>490.89</ele>
        <time>2014-03-21T09:54:10Z</time>
      </trkpt>
      <trkpt lat="43.36413" lon="5.57737">
        <ele>489.93</ele>
        <time>2014-03-21T09:54:15Z</time>
      </trkpt>
      <trkpt lat="43.36417" lon="5.57742">
        <ele>488.97</ele>
        <time>2014-03-21T09:54:20Z</time>
      </trkpt>
      <trkpt lat="43.36428" lon="5.57739">
        <ele>487.53</ele>
        <time>2014-03-21T09:54:29Z</time>
      </trkpt>
      <trkpt lat="43.36431" lon="5.57723">
        <ele>486.08</ele>
        <time>2014-03-21T09:54:40Z</time>
      </trkpt>
      <trkpt lat="43.36432" lon="5.57721">
        <ele>485.6</ele>
        <time>2014-03-21T09:54:42Z</time>
      </trkpt>
      <trkpt lat="43.36435" lon="5.57707">
        <ele>483.68</ele>
        <time>2014-03-21T09:54:51Z</time>
      </trkpt>
      <trkpt lat="43.36438" lon="5.5769">
        <ele>481.76</ele>
        <time>2014-03-21T09:55:03Z</time>
      </trkpt>
      <trkpt lat="43.36439" lon="5.57684">
        <ele>481.28</ele>
        <time>2014-03-21T09:55:07Z</time>
      </trkpt>
      <trkpt lat="43.36441" lon="5.57674">
        <ele>480.32</ele>
        <time>2014-03-21T09:55:14Z</time>
      </trkpt>
      <trkpt lat="43.36442" lon="5.57657">
        <ele>478.87</ele>
        <time>2014-03-21T09:55:23Z</time>
      </trkpt>
      <trkpt lat="43.36442" lon="5.57653">
        <ele>478.87</ele>
        <time>2014-03-21T09:55:25Z</time>
      </trkpt>
      <trkpt lat="43.36442" lon="5.57639">
        <ele>476.95</ele>
        <time>2014-03-21T09:55:35Z</time>
      </trkpt>
      <trkpt lat="43.36442" lon="5.57633">
        <ele>476.47</ele>
        <time>2014-03-21T09:55:38Z</time>
      </trkpt>
      <trkpt lat="43.36444" lon="5.57623">
        <ele>475.03</ele>
        <time>2014-03-21T09:55:45Z</time>
      </trkpt>
      <trkpt lat="43.36444" lon="5.57617">
        <ele>474.55</ele>
        <time>2014-03-21T09:55:49Z</time>
      </trkpt>
      <trkpt lat="43.36444" lon="5.57611">
        <ele>474.07</ele>
        <time>2014-03-21T09:55:53Z</time>
      </trkpt>
      <trkpt lat="43.36444" lon="5.57606">
        <ele>473.59</ele>
        <time>2014-03-21T09:55:56Z</time>
      </trkpt>
      <trkpt lat="43.36444" lon="5.57602">
        <ele>473.11</ele>
        <time>2014-03-21T09:55:59Z</time>
      </trkpt>
      <trkpt lat="43.36443" lon="5.57594">
        <ele>472.14</ele>
        <time>2014-03-21T09:56:03Z</time>
      </trkpt>
      <trkpt lat="43.36446" lon="5.57585">
        <ele>471.18</ele>
        <time>2014-03-21T09:56:09Z</time>
      </trkpt>
      <trkpt lat="43.36454" lon="5.57572">
        <ele>469.74</ele>
        <time>2014-03-21T09:56:20Z</time>
      </trkpt>
      <trkpt lat="43.36458" lon="5.57563">
        <ele>467.82</ele>
        <time>2014-03-21T09:56:28Z</time>
      </trkpt>
      <trkpt lat="43.36462" lon="5.57555">
        <ele>467.34</ele>
        <time>2014-03-21T09:56:33Z</time>
      </trkpt>
      <trkpt lat="43.36472" lon="5.57548">
        <ele>465.42</ele>
        <time>2014-03-21T09:56:42Z</time>
      </trkpt>
      <trkpt lat="43.36473" lon="5.57545">
        <ele>464.93</ele>
        <time>2014-03-21T09:56:45Z</time>
      </trkpt>
      <trkpt lat="43.36481" lon="5.57534">
        <ele>463.01</ele>
        <time>2014-03-21T09:56:54Z</time>
      </trkpt>
      <trkpt lat="43.36483" lon="5.57532">
        <ele>462.53</ele>
        <time>2014-03-21T09:56:56Z</time>
      </trkpt>
      <trkpt lat="43.36488" lon="5.57528">
        <ele>461.09</ele>
        <time>2014-03-21T09:57:02Z</time>
      </trkpt>
      <trkpt lat="43.3649" lon="5.57527">
        <ele>460.61</ele>
        <time>2014-03-21T09:57:04Z</time>
      </trkpt>
      <trkpt lat="43.36504" lon="5.57528">
        <ele>458.69</ele>
        <time>2014-03-21T09:57:15Z</time>
      </trkpt>
      <trkpt lat="43.36509" lon="5.57527">
        <ele>458.21</ele>
        <time>2014-03-21T09:57:19Z</time>
      </trkpt>
      <trkpt lat="43.36517" lon="5.57535">
        <ele>457.72</ele>
        <time>2014-03-21T09:57:28Z</time>
      </trkpt>
      <trkpt lat="43.36533" lon="5.57544">
        <ele>456.28</ele>
        <time>2014-03-21T09:57:40Z</time>
      </trkpt>
      <trkpt lat="43.36542" lon="5.57548">
        <ele>456.28</ele>
        <time>2014-03-21T09:57:48Z</time>
      </trkpt>
      <trkpt lat="43.3655" lon="5.57563">
        <ele>455.8</ele>
        <time>2014-03-21T09:57:58Z</time>
      </trkpt>
      <trkpt lat="43.36551" lon="5.57568">
        <ele>455.32</ele>
        <time>2014-03-21T09:58:03Z</time>
      </trkpt>
      <trkpt lat="43.36558" lon="5.57571">
        <ele>454.36</ele>
        <time>2014-03-21T09:58:09Z</time>
      </trkpt>
      <trkpt lat="43.36563" lon="5.57575">
        <ele>453.4</ele>
        <time>2014-03-21T09:58:15Z</time>
      </trkpt>
      <trkpt lat="43.36577" lon="5.57587">
        <ele>451.48</ele>
        <time>2014-03-21T09:58:27Z</time>
      </trkpt>
      <trkpt lat="43.36589" lon="5.5759">
        <ele>450.03</ele>
        <time>2014-03-21T09:58:38Z</time>
      </trkpt>
      <trkpt lat="43.3659" lon="5.5759">
        <ele>450.03</ele>
        <time>2014-03-21T09:58:39Z</time>
      </trkpt>
      <trkpt lat="43.36602" lon="5.57596">
        <ele>448.11</ele>
        <time>2014-03-21T09:58:50Z</time>
      </trkpt>
      <trkpt lat="43.3661" lon="5.57597">
        <ele>446.67</ele>
        <time>2014-03-21T09:58:58Z</time>
      </trkpt>
      <trkpt lat="43.36622" lon="5.57596">
        <ele>445.23</ele>
        <time>2014-03-21T09:59:12Z</time>
      </trkpt>
      <trkpt lat="43.36624" lon="5.57593">
        <ele>445.71</ele>
        <time>2014-03-21T09:59:21Z</time>
      </trkpt>
      <trkpt lat="43.36624" lon="5.57591">
        <ele>445.71</ele>
        <time>2014-03-21T09:59:32Z</time>
      </trkpt>
      <trkpt lat="43.36624" lon="5.57594">
        <ele>445.23</ele>
        <time>2014-03-21T09:59:36Z</time>
      </trkpt>
      <trkpt lat="43.36627" lon="5.57597">
        <ele>444.75</ele>
        <time>2014-03-21T09:59:39Z</time>
      </trkpt>
      <trkpt lat="43.3664" lon="5.57597">
        <ele>443.31</ele>
        <time>2014-03-21T09:59:51Z</time>
      </trkpt>
      <trkpt lat="43.36643" lon="5.57597">
        <ele>442.82</ele>
        <time>2014-03-21T09:59:54Z</time>
      </trkpt>
      <trkpt lat="43.36651" lon="5.57604">
        <ele>440.9</ele>
        <time>2014-03-21T10:00:05Z</time>
      </trkpt>
      <trkpt lat="43.36651" lon="5.57607">
        <ele>440.9</ele>
        <time>2014-03-21T10:00:07Z</time>
      </trkpt>
      <trkpt lat="43.36644" lon="5.5762">
        <ele>438.5</ele>
        <time>2014-03-21T10:00:18Z</time>
      </trkpt>
      <trkpt lat="43.36638" lon="5.57625">
        <ele>438.02</ele>
        <time>2014-03-21T10:00:24Z</time>
      </trkpt>
      <trkpt lat="43.36626" lon="5.57626">
        <ele>437.06</ele>
        <time>2014-03-21T10:00:33Z</time>
      </trkpt>
      <trkpt lat="43.36623" lon="5.57627">
        <ele>436.58</ele>
        <time>2014-03-21T10:00:35Z</time>
      </trkpt>
      <trkpt lat="43.36621" lon="5.57628">
        <ele>436.58</ele>
        <time>2014-03-21T10:00:37Z</time>
      </trkpt>
      <trkpt lat="43.36619" lon="5.57628">
        <ele>436.58</ele>
        <time>2014-03-21T10:00:39Z</time>
      </trkpt>
      <trkpt lat="43.36614" lon="5.5763">
        <ele>436.1</ele>
        <time>2014-03-21T10:00:43Z</time>
      </trkpt>
      <trkpt lat="43.36606" lon="5.57631">
        <ele>435.13</ele>
        <time>2014-03-21T10:00:49Z</time>
      </trkpt>
      <trkpt lat="43.36595" lon="5.57636">
        <ele>433.69</ele>
        <time>2014-03-21T10:00:59Z</time>
      </trkpt>
      <trkpt lat="43.36593" lon="5.57649">
        <ele>432.25</ele>
        <time>2014-03-21T10:01:07Z</time>
      </trkpt>
      <trkpt lat="43.36602" lon="5.57659">
        <ele>431.29</ele>
        <time>2014-03-21T10:01:16Z</time>
      </trkpt>
      <trkpt lat="43.3661" lon="5.57662">
        <ele>429.85</ele>
        <time>2014-03-21T10:01:25Z</time>
      </trkpt>
      <trkpt lat="43.3661" lon="5.57662">
        <ele>429.85</ele>
        <time>2014-03-21T10:01:26Z</time>
      </trkpt>
      <trkpt lat="43.36606" lon="5.5766">
        <ele>430.33</ele>
        <time>2014-03-21T10:01:36Z</time>
      </trkpt>
      <trkpt lat="43.36607" lon="5.57661">
        <ele>429.85</ele>
        <time>2014-03-21T10:01:42Z</time>
      </trkpt>
      <trkpt lat="43.36623" lon="5.57668">
        <ele>428.4</ele>
        <time>2014-03-21T10:01:54Z</time>
      </trkpt>
      <trkpt lat="43.36637" lon="5.57675">
        <ele>426.96</ele>
        <time>2014-03-21T10:02:06Z</time>
      </trkpt>
      <trkpt lat="43.36649" lon="5.5768">
        <ele>424.56</ele>
        <time>2014-03-21T10:02:17Z</time>
      </trkpt>
      <trkpt lat="43.36657" lon="5.57688">
        <ele>422.64</ele>
        <time>2014-03-21T10:02:25Z</time>
      </trkpt>
      <trkpt lat="43.36662" lon="5.57689">
        <ele>421.68</ele>
        <time>2014-03-21T10:02:30Z</time>
      </trkpt>
      <trkpt lat="43.36667" lon="5.57697">
        <ele>419.75</ele>
        <time>2014-03-21T10:02:39Z</time>
      </trkpt>
      <trkpt lat="43.36671" lon="5.5771">
        <ele>417.35</ele>
        <time>2014-03-21T10:02:49Z</time>
      </trkpt>
      <trkpt lat="43.36671" lon="5.57711">
        <ele>417.35</ele>
        <time>2014-03-21T10:02:50Z</time>
      </trkpt>
      <trkpt lat="43.36669" lon="5.5773">
        <ele>415.43</ele>
        <time>2014-03-21T10:03:01Z</time>
      </trkpt>
      <trkpt lat="43.36667" lon="5.57749">
        <ele>414.47</ele>
        <time>2014-03-21T10:03:11Z</time>
      </trkpt>
      <trkpt lat="43.36665" lon="5.57767">
        <ele>413.02</ele>
        <time>2014-03-21T10:03:21Z</time>
      </trkpt>
      <trkpt lat="43.36665" lon="5.57772">
        <ele>413.02</ele>
        <time>2014-03-21T10:03:24Z</time>
      </trkpt>
      <trkpt lat="43.36663" lon="5.57789">
        <ele>411.58</ele>
        <time>2014-03-21T10:03:35Z</time>
      </trkpt>
      <trkpt lat="43.36661" lon="5.57804">
        <ele>410.62</ele>
        <time>2014-03-21T10:03:44Z</time>
      </trkpt>
      <trkpt lat="43.3666" lon="5.57821">
        <ele>408.7</ele>
        <time>2014-03-21T10:03:55Z</time>
      </trkpt>
      <trkpt lat="43.36659" lon="5.57837">
        <ele>407.74</ele>
        <time>2014-03-21T10:04:06Z</time>
      </trkpt>
      <trkpt lat="43.36659" lon="5.57853">
        <ele>406.77</ele>
        <time>2014-03-21T10:04:17Z</time>
      </trkpt>
      <trkpt lat="43.36658" lon="5.57858">
        <ele>406.77</ele>
        <time>2014-03-21T10:04:24Z</time>
      </trkpt>
      <trkpt lat="43.36654" lon="5.57863">
        <ele>406.29</ele>
        <time>2014-03-21T10:04:29Z</time>
      </trkpt>
      <trkpt lat="43.36645" lon="5.57852">
        <ele>405.33</ele>
        <time>2014-03-21T10:04:41Z</time>
      </trkpt>
      <trkpt lat="43.36638" lon="5.57841">
        <ele>403.89</ele>
        <time>2014-03-21T10:04:52Z</time>
      </trkpt>
      <trkpt lat="43.36631" lon="5.5783">
        <ele>402.45</ele>
        <time>2014-03-21T10:05:02Z</time>
      </trkpt>
      <trkpt lat="43.36627" lon="5.57824">
        <ele>401.49</ele>
        <time>2014-03-21T10:05:07Z</time>
      </trkpt>
      <trkpt lat="43.3662" lon="5.57812">
        <ele>400.05</ele>
        <time>2014-03-21T10:05:19Z</time>
      </trkpt>
      <trkpt lat="43.36603" lon="5.57809">
        <ele>400.05</ele>
        <time>2014-03-21T10:05:34Z</time>
      </trkpt>
      <trkpt lat="43.36598" lon="5.57812">
        <ele>400.05</ele>
        <time>2014-03-21T10:05:39Z</time>
      </trkpt>
      <trkpt lat="43.36591" lon="5.57825">
        <ele>400.53</ele>
        <time>2014-03-21T10:05:50Z</time>
      </trkpt>
      <trkpt lat="43.36586" lon="5.57837">
        <ele>401.01</ele>
        <time>2014-03-21T10:05:59Z</time>
      </trkpt>
      <trkpt lat="43.36581" lon="5.57847">
        <ele>401.97</ele>
        <time>2014-03-21T10:06:08Z</time>
      </trkpt>
      <trkpt lat="43.36576" lon="5.57858">
        <ele>402.93</ele>
        <time>2014-03-21T10:06:16Z</time>
      </trkpt>
      <trkpt lat="43.36571" lon="5.5787">
        <ele>403.89</ele>
        <time>2014-03-21T10:06:26Z</time>
      </trkpt>
      <trkpt lat="43.36564" lon="5.57884">
        <ele>405.33</ele>
        <time>2014-03-21T10:06:37Z</time>
      </trkpt>
      <trkpt lat="43.36561" lon="5.57891">
        <ele>405.81</ele>
        <time>2014-03-21T10:06:43Z</time>
      </trkpt>
      <trkpt lat="43.3656" lon="5.57894">
        <ele>405.81</ele>
        <time>2014-03-21T10:06:45Z</time>
      </trkpt>
      <trkpt lat="43.36554" lon="5.57907">
        <ele>406.77</ele>
        <time>2014-03-21T10:06:55Z</time>
      </trkpt>
      <trkpt lat="43.36551" lon="5.57911">
        <ele>407.26</ele>
        <time>2014-03-21T10:06:59Z</time>
      </trkpt>
      <trkpt lat="43.36546" lon="5.57916">
        <ele>407.74</ele>
        <time>2014-03-21T10:07:04Z</time>
      </trkpt>
      <trkpt lat="43.36542" lon="5.5792">
        <ele>407.74</ele>
        <time>2014-03-21T10:07:08Z</time>
      </trkpt>
      <trkpt lat="43.36535" lon="5.57922">
        <ele>407.74</ele>
        <time>2014-03-21T10:07:13Z</time>
      </trkpt>
      <trkpt lat="43.36528" lon="5.5792">
        <ele>407.26</ele>
        <time>2014-03-21T10:07:19Z</time>
      </trkpt>
      <trkpt lat="43.3652" lon="5.57923">
        <ele>407.74</ele>
        <time>2014-03-21T10:07:26Z</time>
      </trkpt>
      <trkpt lat="43.36515" lon="5.57928">
        <ele>408.7</ele>
        <time>2014-03-21T10:07:32Z</time>
      </trkpt>
      <trkpt lat="43.36515" lon="5.57931">
        <ele>408.22</ele>
        <time>2014-03-21T10:07:34Z</time>
      </trkpt>
      <trkpt lat="43.36514" lon="5.57939">
        <ele>408.22</ele>
        <time>2014-03-21T10:07:39Z</time>
      </trkpt>
      <trkpt lat="43.36513" lon="5.57945">
        <ele>408.22</ele>
        <time>2014-03-21T10:07:42Z</time>
      </trkpt>
      <trkpt lat="43.36512" lon="5.57956">
        <ele>407.74</ele>
        <time>2014-03-21T10:07:48Z</time>
      </trkpt>
      <trkpt lat="43.36512" lon="5.57974">
        <ele>406.77</ele>
        <time>2014-03-21T10:07:58Z</time>
      </trkpt>
      <trkpt lat="43.36514" lon="5.5799">
        <ele>405.81</ele>
        <time>2014-03-21T10:08:07Z</time>
      </trkpt>
      <trkpt lat="43.36515" lon="5.58002">
        <ele>404.85</ele>
        <time>2014-03-21T10:08:14Z</time>
      </trkpt>
      <trkpt lat="43.36517" lon="5.58019">
        <ele>403.41</ele>
        <time>2014-03-21T10:08:25Z</time>
      </trkpt>
      <trkpt lat="43.36519" lon="5.58031">
        <ele>401.97</ele>
        <time>2014-03-21T10:08:33Z</time>
      </trkpt>
      <trkpt lat="43.36519" lon="5.58035">
        <ele>401.49</ele>
        <time>2014-03-21T10:08:35Z</time>
      </trkpt>
      <trkpt lat="43.36522" lon="5.58055">
        <ele>400.53</ele>
        <time>2014-03-21T10:08:46Z</time>
      </trkpt>
      <trkpt lat="43.36524" lon="5.58071">
        <ele>400.05</ele>
        <time>2014-03-21T10:08:55Z</time>
      </trkpt>
      <trkpt lat="43.36523" lon="5.58078">
        <ele>401.01</ele>
        <time>2014-03-21T10:09:04Z</time>
      </trkpt>
      <trkpt lat="43.36523" lon="5.58078">
        <ele>401.01</ele>
        <time>2014-03-21T10:09:23Z</time>
      </trkpt>
      <trkpt lat="43.36522" lon="5.58079">
        <ele>401.01</ele>
        <time>2014-03-21T10:09:24Z</time>
      </trkpt>
      <trkpt lat="43.36516" lon="5.58085">
        <ele>401.01</ele>
        <time>2014-03-21T10:09:37Z</time>
      </trkpt>
      <trkpt lat="43.3652" lon="5.58074">
        <ele>401.49</ele>
        <time>2014-03-21T10:09:49Z</time>
      </trkpt>
      <trkpt lat="43.36513" lon="5.5807">
        <ele>403.41</ele>
        <time>2014-03-21T10:10:01Z</time>
      </trkpt>
      <trkpt lat="43.3651" lon="5.58065">
        <ele>404.37</ele>
        <time>2014-03-21T10:10:12Z</time>
      </trkpt>
      <trkpt lat="43.36504" lon="5.5806">
        <ele>405.81</ele>
        <time>2014-03-21T10:10:21Z</time>
      </trkpt>
      <trkpt lat="43.36499" lon="5.58055">
        <ele>407.74</ele>
        <time>2014-03-21T10:10:31Z</time>
      </trkpt>
      <trkpt lat="43.36498" lon="5.58055">
        <ele>408.22</ele>
        <time>2014-03-21T10:10:33Z</time>
      </trkpt>
      <trkpt lat="43.36494" lon="5.5805">
        <ele>409.66</ele>
        <time>2014-03-21T10:10:42Z</time>
      </trkpt>
      <trkpt lat="43.36486" lon="5.58047">
        <ele>411.58</ele>
        <time>2014-03-21T10:10:52Z</time>
      </trkpt>
      <trkpt lat="43.36484" lon="5.58048">
        <ele>412.54</ele>
        <time>2014-03-21T10:11:04Z</time>
      </trkpt>
      <trkpt lat="43.36479" lon="5.58047">
        <ele>413.5</ele>
        <time>2014-03-21T10:11:16Z</time>
      </trkpt>
      <trkpt lat="43.3647" lon="5.58046">
        <ele>414.47</ele>
        <time>2014-03-21T10:11:25Z</time>
      </trkpt>
      <trkpt lat="43.3646" lon="5.58047">
        <ele>415.43</ele>
        <time>2014-03-21T10:11:35Z</time>
      </trkpt>
      <trkpt lat="43.36449" lon="5.58053">
        <ele>415.43</ele>
        <time>2014-03-21T10:11:45Z</time>
      </trkpt>
      <trkpt lat="43.36439" lon="5.58055">
        <ele>415.91</ele>
        <time>2014-03-21T10:11:54Z</time>
      </trkpt>
      <trkpt lat="43.36428" lon="5.58056">
        <ele>416.87</ele>
        <time>2014-03-21T10:12:04Z</time>
      </trkpt>
      <trkpt lat="43.36422" lon="5.58055">
        <ele>418.31</ele>
        <time>2014-03-21T10:12:12Z</time>
      </trkpt>
      <trkpt lat="43.3642" lon="5.58056">
        <ele>418.79</ele>
        <time>2014-03-21T10:12:14Z</time>
      </trkpt>
      <trkpt lat="43.36412" lon="5.58058">
        <ele>419.75</ele>
        <time>2014-03-21T10:12:22Z</time>
      </trkpt>
      <trkpt lat="43.3641" lon="5.58058">
        <ele>420.23</ele>
        <time>2014-03-21T10:12:24Z</time>
      </trkpt>
      <trkpt lat="43.364" lon="5.58058">
        <ele>422.16</ele>
        <time>2014-03-21T10:12:35Z</time>
      </trkpt>
      <trkpt lat="43.36397" lon="5.58057">
        <ele>422.16</ele>
        <time>2014-03-21T10:12:38Z</time>
      </trkpt>
      <trkpt lat="43.36389" lon="5.58058">
        <ele>422.64</ele>
        <time>2014-03-21T10:12:45Z</time>
      </trkpt>
      <trkpt lat="43.36378" lon="5.58059">
        <ele>423.6</ele>
        <time>2014-03-21T10:12:55Z</time>
      </trkpt>
      <trkpt lat="43.36374" lon="5.58058">
        <ele>424.08</ele>
        <time>2014-03-21T10:13:00Z</time>
      </trkpt>
      <trkpt lat="43.3637" lon="5.58058">
        <ele>424.56</ele>
        <time>2014-03-21T10:13:03Z</time>
      </trkpt>
      <trkpt lat="43.36366" lon="5.58058">
        <ele>424.56</ele>
        <time>2014-03-21T10:13:07Z</time>
      </trkpt>
      <trkpt lat="43.36363" lon="5.58058">
        <ele>424.56</ele>
        <time>2014-03-21T10:13:10Z</time>
      </trkpt>
      <trkpt lat="43.3636" lon="5.58058">
        <ele>425.04</ele>
        <time>2014-03-21T10:13:13Z</time>
      </trkpt>
      <trkpt lat="43.36356" lon="5.58058">
        <ele>425.04</ele>
        <time>2014-03-21T10:13:16Z</time>
      </trkpt>
      <trkpt lat="43.36347" lon="5.58054">
        <ele>426.48</ele>
        <time>2014-03-21T10:13:26Z</time>
      </trkpt>
      <trkpt lat="43.3634" lon="5.58047">
        <ele>428.4</ele>
        <time>2014-03-21T10:13:36Z</time>
      </trkpt>
      <trkpt lat="43.36331" lon="5.58043">
        <ele>429.85</ele>
        <time>2014-03-21T10:13:47Z</time>
      </trkpt>
      <trkpt lat="43.36323" lon="5.58039">
        <ele>431.77</ele>
        <time>2014-03-21T10:13:57Z</time>
      </trkpt>
      <trkpt lat="43.36316" lon="5.58038">
        <ele>431.77</ele>
        <time>2014-03-21T10:14:04Z</time>
      </trkpt>
      <trkpt lat="43.36308" lon="5.58037">
        <ele>433.21</ele>
        <time>2014-03-21T10:14:12Z</time>
      </trkpt>
      <trkpt lat="43.36301" lon="5.58034">
        <ele>434.17</ele>
        <time>2014-03-21T10:14:20Z</time>
      </trkpt>
      <trkpt lat="43.36293" lon="5.58034">
        <ele>434.65</ele>
        <time>2014-03-21T10:14:29Z</time>
      </trkpt>
      <trkpt lat="43.36293" lon="5.58033">
        <ele>434.65</ele>
        <time>2014-03-21T10:14:46Z</time>
      </trkpt>
      <trkpt lat="43.36293" lon="5.58033">
        <ele>434.65</ele>
        <time>2014-03-21T10:15:06Z</time>
      </trkpt>
      <trkpt lat="43.36293" lon="5.58034">
        <ele>434.65</ele>
        <time>2014-03-21T10:15:25Z</time>
      </trkpt>
      <trkpt lat="43.36293" lon="5.58034">
        <ele>434.65</ele>
        <time>2014-03-21T10:15:40Z</time>
      </trkpt>
      <trkpt lat="43.36293" lon="5.58035">
        <ele>434.65</ele>
        <time>2014-03-21T10:15:58Z</time>
      </trkpt>
      <trkpt lat="43.36286" lon="5.58036">
        <ele>434.65</ele>
        <time>2014-03-21T10:16:08Z</time>
      </trkpt>
      <trkpt lat="43.36283" lon="5.58037">
        <ele>434.65</ele>
        <time>2014-03-21T10:16:11Z</time>
      </trkpt>
      <trkpt lat="43.3627" lon="5.58035">
        <ele>435.61</ele>
        <time>2014-03-21T10:16:22Z</time>
      </trkpt>
      <trkpt lat="43.36262" lon="5.58032">
        <ele>436.58</ele>
        <time>2014-03-21T10:16:32Z</time>
      </trkpt>
      <trkpt lat="43.36261" lon="5.58032">
        <ele>437.06</ele>
        <time>2014-03-21T10:16:34Z</time>
      </trkpt>
      <trkpt lat="43.3625" lon="5.58034">
        <ele>438.5</ele>
        <time>2014-03-21T10:16:46Z</time>
      </trkpt>
      <trkpt lat="43.36242" lon="5.58035">
        <ele>439.46</ele>
        <time>2014-03-21T10:16:55Z</time>
      </trkpt>
      <trkpt lat="43.36235" lon="5.58029">
        <ele>441.38</ele>
        <time>2014-03-21T10:17:06Z</time>
      </trkpt>
      <trkpt lat="43.36229" lon="5.5803">
        <ele>442.82</ele>
        <time>2014-03-21T10:17:14Z</time>
      </trkpt>
      <trkpt lat="43.36224" lon="5.5803">
        <ele>443.79</ele>
        <time>2014-03-21T10:17:20Z</time>
      </trkpt>
      <trkpt lat="43.36219" lon="5.58029">
        <ele>444.75</ele>
        <time>2014-03-21T10:17:28Z</time>
      </trkpt>
      <trkpt lat="43.36212" lon="5.5803">
        <ele>446.67</ele>
        <time>2014-03-21T10:17:38Z</time>
      </trkpt>
      <trkpt lat="43.36205" lon="5.58029">
        <ele>448.11</ele>
        <time>2014-03-21T10:17:48Z</time>
      </trkpt>
      <trkpt lat="43.362" lon="5.58031">
        <ele>449.55</ele>
        <time>2014-03-21T10:17:57Z</time>
      </trkpt>
      <trkpt lat="43.36195" lon="5.58031">
        <ele>451.96</ele>
        <time>2014-03-21T10:18:09Z</time>
      </trkpt>
      <trkpt lat="43.36192" lon="5.58034">
        <ele>452.92</ele>
        <time>2014-03-21T10:18:17Z</time>
      </trkpt>
      <trkpt lat="43.36186" lon="5.58035">
        <ele>454.84</ele>
        <time>2014-03-21T10:18:28Z</time>
      </trkpt>
      <trkpt lat="43.36183" lon="5.58038">
        <ele>456.28</ele>
        <time>2014-03-21T10:18:38Z</time>
      </trkpt>
      <trkpt lat="43.36178" lon="5.58043">
        <ele>457.72</ele>
        <time>2014-03-21T10:18:48Z</time>
      </trkpt>
      <trkpt lat="43.36177" lon="5.58047">
        <ele>459.17</ele>
        <time>2014-03-21T10:18:58Z</time>
      </trkpt>
      <trkpt lat="43.36172" lon="5.5805">
        <ele>460.61</ele>
        <time>2014-03-21T10:19:08Z</time>
      </trkpt>
      <trkpt lat="43.36167" lon="5.58052">
        <ele>462.05</ele>
        <time>2014-03-21T10:19:16Z</time>
      </trkpt>
      <trkpt lat="43.36161" lon="5.58054">
        <ele>463.49</ele>
        <time>2014-03-21T10:19:26Z</time>
      </trkpt>
      <trkpt lat="43.36155" lon="5.58056">
        <ele>465.9</ele>
        <time>2014-03-21T10:19:39Z</time>
      </trkpt>
      <trkpt lat="43.36149" lon="5.58059">
        <ele>467.34</ele>
        <time>2014-03-21T10:19:50Z</time>
      </trkpt>
      <trkpt lat="43.36145" lon="5.5806">
        <ele>469.26</ele>
        <time>2014-03-21T10:19:59Z</time>
      </trkpt>
      <trkpt lat="43.36139" lon="5.58058">
        <ele>470.7</ele>
        <time>2014-03-21T10:20:10Z</time>
      </trkpt>
      <trkpt lat="43.36136" lon="5.58063">
        <ele>472.63</ele>
        <time>2014-03-21T10:20:20Z</time>
      </trkpt>
      <trkpt lat="43.36132" lon="5.58074">
        <ele>474.07</ele>
        <time>2014-03-21T10:20:31Z</time>
      </trkpt>
      <trkpt lat="43.36128" lon="5.58076">
        <ele>474.55</ele>
        <time>2014-03-21T10:20:35Z</time>
      </trkpt>
      <trkpt lat="43.36118" lon="5.58078">
        <ele>475.51</ele>
        <time>2014-03-21T10:20:46Z</time>
      </trkpt>
      <trkpt lat="43.36118" lon="5.58078">
        <ele>475.99</ele>
        <time>2014-03-21T10:20:47Z</time>
      </trkpt>
      <trkpt lat="43.36114" lon="5.58083">
        <ele>475.99</ele>
        <time>2014-03-21T10:20:57Z</time>
      </trkpt>
      <trkpt lat="43.36115" lon="5.58083">
        <ele>475.99</ele>
        <time>2014-03-21T10:21:15Z</time>
      </trkpt>
      <trkpt lat="43.36113" lon="5.58081">
        <ele>475.99</ele>
        <time>2014-03-21T10:21:24Z</time>
      </trkpt>
      <trkpt lat="43.3611" lon="5.5808">
        <ele>477.43</ele>
        <time>2014-03-21T10:21:33Z</time>
      </trkpt>
      <trkpt lat="43.3611" lon="5.58079">
        <ele>475.99</ele>
        <time>2014-03-21T10:21:46Z</time>
      </trkpt>
      <trkpt lat="43.36109" lon="5.58078">
        <ele>475.99</ele>
        <time>2014-03-21T10:22:06Z</time>
      </trkpt>
      <trkpt lat="43.36109" lon="5.58077">
        <ele>475.99</ele>
        <time>2014-03-21T10:22:20Z</time>
      </trkpt>
      <trkpt lat="43.36109" lon="5.58076">
        <ele>476.47</ele>
        <time>2014-03-21T10:22:28Z</time>
      </trkpt>
      <trkpt lat="43.36109" lon="5.58076">
        <ele>476.47</ele>
        <time>2014-03-21T10:22:39Z</time>
      </trkpt>
      <trkpt lat="43.3611" lon="5.58078">
        <ele>475.99</ele>
        <time>2014-03-21T10:22:52Z</time>
      </trkpt>
      <trkpt lat="43.36111" lon="5.58079">
        <ele>475.99</ele>
        <time>2014-03-21T10:23:10Z</time>
      </trkpt>
      <trkpt lat="43.36111" lon="5.58079">
        <ele>475.99</ele>
        <time>2014-03-21T10:23:11Z</time>
      </trkpt>
      <trkpt lat="43.36116" lon="5.58071">
        <ele>476.47</ele>
        <time>2014-03-21T10:23:20Z</time>
      </trkpt>
      <trkpt lat="43.36117" lon="5.58069">
        <ele>476.47</ele>
        <time>2014-03-21T10:23:22Z</time>
      </trkpt>
      <trkpt lat="43.36116" lon="5.58059">
        <ele>476.95</ele>
        <time>2014-03-21T10:23:29Z</time>
      </trkpt>
      <trkpt lat="43.36115" lon="5.58051">
        <ele>476.95</ele>
        <time>2014-03-21T10:23:34Z</time>
      </trkpt>
      <trkpt lat="43.36109" lon="5.58034">
        <ele>477.91</ele>
        <time>2014-03-21T10:23:45Z</time>
      </trkpt>
      <trkpt lat="43.36104" lon="5.58023">
        <ele>478.39</ele>
        <time>2014-03-21T10:23:54Z</time>
      </trkpt>
      <trkpt lat="43.361" lon="5.58015">
        <ele>478.87</ele>
        <time>2014-03-21T10:24:00Z</time>
      </trkpt>
      <trkpt lat="43.36097" lon="5.58008">
        <ele>479.35</ele>
        <time>2014-03-21T10:24:06Z</time>
      </trkpt>
      <trkpt lat="43.36096" lon="5.57997">
        <ele>480.32</ele>
        <time>2014-03-21T10:24:16Z</time>
      </trkpt>
      <trkpt lat="43.36096" lon="5.57986">
        <ele>481.28</ele>
        <time>2014-03-21T10:24:26Z</time>
      </trkpt>
      <trkpt lat="43.36099" lon="5.57978">
        <ele>483.2</ele>
        <time>2014-03-21T10:24:36Z</time>
      </trkpt>
      <trkpt lat="43.36101" lon="5.57974">
        <ele>483.2</ele>
        <time>2014-03-21T10:24:40Z</time>
      </trkpt>
      <trkpt lat="43.36104" lon="5.5797">
        <ele>483.68</ele>
        <time>2014-03-21T10:24:46Z</time>
      </trkpt>
      <trkpt lat="43.3611" lon="5.57962">
        <ele>485.12</ele>
        <time>2014-03-21T10:24:56Z</time>
      </trkpt>
      <trkpt lat="43.36114" lon="5.57954">
        <ele>486.56</ele>
        <time>2014-03-21T10:25:06Z</time>
      </trkpt>
      <trkpt lat="43.36117" lon="5.57947">
        <ele>487.53</ele>
        <time>2014-03-21T10:25:13Z</time>
      </trkpt>
      <trkpt lat="43.36123" lon="5.57939">
        <ele>488.97</ele>
        <time>2014-03-21T10:25:23Z</time>
      </trkpt>
      <trkpt lat="43.36129" lon="5.57932">
        <ele>490.89</ele>
        <time>2014-03-21T10:25:33Z</time>
      </trkpt>
      <trkpt lat="43.36135" lon="5.57929">
        <ele>491.37</ele>
        <time>2014-03-21T10:25:39Z</time>
      </trkpt>
      <trkpt lat="43.36142" lon="5.57925">
        <ele>492.33</ele>
        <time>2014-03-21T10:25:48Z</time>
      </trkpt>
      <trkpt lat="43.36147" lon="5.5792">
        <ele>493.77</ele>
        <time>2014-03-21T10:25:58Z</time>
      </trkpt>
      <trkpt lat="43.3615" lon="5.57913">
        <ele>494.74</ele>
        <time>2014-03-21T10:26:10Z</time>
      </trkpt>
      <trkpt lat="43.36151" lon="5.57911">
        <ele>495.7</ele>
        <time>2014-03-21T10:26:25Z</time>
      </trkpt>
      <trkpt lat="43.36154" lon="5.57906">
        <ele>497.62</ele>
        <time>2014-03-21T10:26:35Z</time>
      </trkpt>
      <trkpt lat="43.3616" lon="5.57901">
        <ele>499.06</ele>
        <time>2014-03-21T10:26:46Z</time>
      </trkpt>
      <trkpt lat="43.36167" lon="5.57896">
        <ele>500.02</ele>
        <time>2014-03-21T10:26:55Z</time>
      </trkpt>
      <trkpt lat="43.36171" lon="5.57891">
        <ele>501.95</ele>
        <time>2014-03-21T10:27:06Z</time>
      </trkpt>
      <trkpt lat="43.36177" lon="5.57886">
        <ele>503.39</ele>
        <time>2014-03-21T10:27:18Z</time>
      </trkpt>
      <trkpt lat="43.36181" lon="5.57882">
        <ele>504.83</ele>
        <time>2014-03-21T10:27:27Z</time>
      </trkpt>
      <trkpt lat="43.36185" lon="5.57877">
        <ele>506.27</ele>
        <time>2014-03-21T10:27:37Z</time>
      </trkpt>
      <trkpt lat="43.36191" lon="5.5787">
        <ele>507.23</ele>
        <time>2014-03-21T10:27:49Z</time>
      </trkpt>
      <trkpt lat="43.36194" lon="5.57866">
        <ele>508.67</ele>
        <time>2014-03-21T10:27:58Z</time>
      </trkpt>
      <trkpt lat="43.36199" lon="5.57859">
        <ele>510.12</ele>
        <time>2014-03-21T10:28:09Z</time>
      </trkpt>
      <trkpt lat="43.36205" lon="5.57852">
        <ele>511.08</ele>
        <time>2014-03-21T10:28:20Z</time>
      </trkpt>
      <trkpt lat="43.36211" lon="5.57845">
        <ele>512.52</ele>
        <time>2014-03-21T10:28:32Z</time>
      </trkpt>
      <trkpt lat="43.36214" lon="5.5784">
        <ele>513.96</ele>
        <time>2014-03-21T10:28:40Z</time>
      </trkpt>
      <trkpt lat="43.3622" lon="5.57833">
        <ele>514.92</ele>
        <time>2014-03-21T10:28:50Z</time>
      </trkpt>
      <trkpt lat="43.36224" lon="5.57827">
        <ele>515.88</ele>
        <time>2014-03-21T10:29:00Z</time>
      </trkpt>
      <trkpt lat="43.36227" lon="5.57821">
        <ele>517.33</ele>
        <time>2014-03-21T10:29:10Z</time>
      </trkpt>
      <trkpt lat="43.3623" lon="5.57812">
        <ele>518.29</ele>
        <time>2014-03-21T10:29:20Z</time>
      </trkpt>
      <trkpt lat="43.36231" lon="5.578">
        <ele>519.73</ele>
        <time>2014-03-21T10:29:32Z</time>
      </trkpt>
      <trkpt lat="43.36229" lon="5.5779">
        <ele>521.17</ele>
        <time>2014-03-21T10:29:43Z</time>
      </trkpt>
      <trkpt lat="43.36224" lon="5.57784">
        <ele>522.13</ele>
        <time>2014-03-21T10:29:52Z</time>
      </trkpt>
      <trkpt lat="43.36218" lon="5.57782">
        <ele>523.09</ele>
        <time>2014-03-21T10:30:00Z</time>
      </trkpt>
      <trkpt lat="43.36211" lon="5.57779">
        <ele>524.06</ele>
        <time>2014-03-21T10:30:10Z</time>
      </trkpt>
      <trkpt lat="43.36204" lon="5.57776">
        <ele>525.98</ele>
        <time>2014-03-21T10:30:22Z</time>
      </trkpt>
      <trkpt lat="43.36198" lon="5.57774">
        <ele>526.46</ele>
        <time>2014-03-21T10:30:30Z</time>
      </trkpt>
      <trkpt lat="43.36195" lon="5.57772">
        <ele>526.94</ele>
        <time>2014-03-21T10:30:35Z</time>
      </trkpt>
      <trkpt lat="43.36189" lon="5.57768">
        <ele>528.38</ele>
        <time>2014-03-21T10:30:45Z</time>
      </trkpt>
      <trkpt lat="43.36184" lon="5.57761">
        <ele>529.34</ele>
        <time>2014-03-21T10:30:54Z</time>
      </trkpt>
      <trkpt lat="43.36181" lon="5.57755">
        <ele>529.82</ele>
        <time>2014-03-21T10:31:01Z</time>
      </trkpt>
      <trkpt lat="43.36175" lon="5.57749">
        <ele>530.79</ele>
        <time>2014-03-21T10:31:11Z</time>
      </trkpt>
      <trkpt lat="43.36169" lon="5.57742">
        <ele>531.75</ele>
        <time>2014-03-21T10:31:21Z</time>
      </trkpt>
      <trkpt lat="43.36164" lon="5.57736">
        <ele>532.71</ele>
        <time>2014-03-21T10:31:32Z</time>
      </trkpt>
      <trkpt lat="43.36163" lon="5.57734">
        <ele>533.19</ele>
        <time>2014-03-21T10:31:50Z</time>
      </trkpt>
      <trkpt lat="43.36164" lon="5.57734">
        <ele>533.19</ele>
        <time>2014-03-21T10:32:02Z</time>
      </trkpt>
      <trkpt lat="43.36162" lon="5.57736">
        <ele>533.67</ele>
        <time>2014-03-21T10:32:11Z</time>
      </trkpt>
      <trkpt lat="43.36153" lon="5.57744">
        <ele>534.63</ele>
        <time>2014-03-21T10:32:23Z</time>
      </trkpt>
      <trkpt lat="43.36152" lon="5.57744">
        <ele>535.11</ele>
        <time>2014-03-21T10:32:24Z</time>
      </trkpt>
      <trkpt lat="43.36149" lon="5.57744">
        <ele>535.11</ele>
        <time>2014-03-21T10:32:27Z</time>
      </trkpt>
      <trkpt lat="43.36146" lon="5.57743">
        <ele>536.07</ele>
        <time>2014-03-21T10:32:31Z</time>
      </trkpt>
      <trkpt lat="43.3614" lon="5.57737">
        <ele>537.03</ele>
        <time>2014-03-21T10:32:39Z</time>
      </trkpt>
      <trkpt lat="43.36139" lon="5.57726">
        <ele>538.48</ele>
        <time>2014-03-21T10:32:49Z</time>
      </trkpt>
      <trkpt lat="43.36135" lon="5.57715">
        <ele>538.96</ele>
        <time>2014-03-21T10:32:58Z</time>
      </trkpt>
      <trkpt lat="43.36133" lon="5.57699">
        <ele>539.92</ele>
        <time>2014-03-21T10:33:11Z</time>
      </trkpt>
      <trkpt lat="43.36131" lon="5.57687">
        <ele>540.88</ele>
        <time>2014-03-21T10:33:22Z</time>
      </trkpt>
      <trkpt lat="43.3613" lon="5.57672">
        <ele>542.32</ele>
        <time>2014-03-21T10:33:33Z</time>
      </trkpt>
      <trkpt lat="43.36124" lon="5.57661">
        <ele>544.24</ele>
        <time>2014-03-21T10:33:44Z</time>
      </trkpt>
      <trkpt lat="43.36119" lon="5.57649">
        <ele>545.2</ele>
        <time>2014-03-21T10:33:55Z</time>
      </trkpt>
      <trkpt lat="43.36114" lon="5.57639">
        <ele>546.17</ele>
        <time>2014-03-21T10:34:06Z</time>
      </trkpt>
      <trkpt lat="43.3611" lon="5.57624">
        <ele>547.13</ele>
        <time>2014-03-21T10:34:17Z</time>
      </trkpt>
      <trkpt lat="43.36108" lon="5.57615">
        <ele>547.61</ele>
        <time>2014-03-21T10:34:25Z</time>
      </trkpt>
      <trkpt lat="43.36108" lon="5.57612">
        <ele>548.09</ele>
        <time>2014-03-21T10:34:27Z</time>
      </trkpt>
      <trkpt lat="43.36104" lon="5.57597">
        <ele>548.57</ele>
        <time>2014-03-21T10:34:39Z</time>
      </trkpt>
      <trkpt lat="43.36102" lon="5.57586">
        <ele>549.05</ele>
        <time>2014-03-21T10:34:48Z</time>
      </trkpt>
      <trkpt lat="43.36101" lon="5.57585">
        <ele>549.05</ele>
        <time>2014-03-21T10:34:49Z</time>
      </trkpt>
      <trkpt lat="43.361" lon="5.57579">
        <ele>549.53</ele>
        <time>2014-03-21T10:34:54Z</time>
      </trkpt>
      <trkpt lat="43.36096" lon="5.57568">
        <ele>550.01</ele>
        <time>2014-03-21T10:35:05Z</time>
      </trkpt>
      <trkpt lat="43.36094" lon="5.57568">
        <ele>550.49</ele>
        <time>2014-03-21T10:35:16Z</time>
      </trkpt>
      <trkpt lat="43.36093" lon="5.57568">
        <ele>550.49</ele>
        <time>2014-03-21T10:35:37Z</time>
      </trkpt>
      <trkpt lat="43.36094" lon="5.57568">
        <ele>550.49</ele>
        <time>2014-03-21T10:35:56Z</time>
      </trkpt>
      <trkpt lat="43.36094" lon="5.57568">
        <ele>550.49</ele>
        <time>2014-03-21T10:36:17Z</time>
      </trkpt>
      <trkpt lat="43.36094" lon="5.57568">
        <ele>551.45</ele>
        <time>2014-03-21T10:36:27Z</time>
      </trkpt>
      <trkpt lat="43.36088" lon="5.57565">
        <ele>551.93</ele>
        <time>2014-03-21T10:36:37Z</time>
      </trkpt>
      <trkpt lat="43.36087" lon="5.57564">
        <ele>552.41</ele>
        <time>2014-03-21T10:36:39Z</time>
      </trkpt>
      <trkpt lat="43.36081" lon="5.57553">
        <ele>553.86</ele>
        <time>2014-03-21T10:36:49Z</time>
      </trkpt>
      <trkpt lat="43.36077" lon="5.57547">
        <ele>555.78</ele>
        <time>2014-03-21T10:37:00Z</time>
      </trkpt>
      <trkpt lat="43.36072" lon="5.57539">
        <ele>557.22</ele>
        <time>2014-03-21T10:37:08Z</time>
      </trkpt>
      <trkpt lat="43.36068" lon="5.57531">
        <ele>558.66</ele>
        <time>2014-03-21T10:37:17Z</time>
      </trkpt>
      <trkpt lat="43.36064" lon="5.57525">
        <ele>560.59</ele>
        <time>2014-03-21T10:37:28Z</time>
      </trkpt>
      <trkpt lat="43.36061" lon="5.5752">
        <ele>562.51</ele>
        <time>2014-03-21T10:37:38Z</time>
      </trkpt>
      <trkpt lat="43.36059" lon="5.57517">
        <ele>562.99</ele>
        <time>2014-03-21T10:37:44Z</time>
      </trkpt>
      <trkpt lat="43.36055" lon="5.57508">
        <ele>565.39</ele>
        <time>2014-03-21T10:37:56Z</time>
      </trkpt>
      <trkpt lat="43.36053" lon="5.57504">
        <ele>567.32</ele>
        <time>2014-03-21T10:38:09Z</time>
      </trkpt>
      <trkpt lat="43.3605" lon="5.57498">
        <ele>568.76</ele>
        <time>2014-03-21T10:38:18Z</time>
      </trkpt>
      <trkpt lat="43.36049" lon="5.57498">
        <ele>569.24</ele>
        <time>2014-03-21T10:38:20Z</time>
      </trkpt>
      <trkpt lat="43.36043" lon="5.57488">
        <ele>570.68</ele>
        <time>2014-03-21T10:38:31Z</time>
      </trkpt>
      <trkpt lat="43.36042" lon="5.57485">
        <ele>572.6</ele>
        <time>2014-03-21T10:38:40Z</time>
      </trkpt>
      <trkpt lat="43.3604" lon="5.57484">
        <ele>574.04</ele>
        <time>2014-03-21T10:38:50Z</time>
      </trkpt>
      <trkpt lat="43.36038" lon="5.57485">
        <ele>575.49</ele>
        <time>2014-03-21T10:38:59Z</time>
      </trkpt>
      <trkpt lat="43.36029" lon="5.57491">
        <ele>577.41</ele>
        <time>2014-03-21T10:39:09Z</time>
      </trkpt>
      <trkpt lat="43.36024" lon="5.57494">
        <ele>578.85</ele>
        <time>2014-03-21T10:39:19Z</time>
      </trkpt>
      <trkpt lat="43.36023" lon="5.57495">
        <ele>578.85</ele>
        <time>2014-03-21T10:39:21Z</time>
      </trkpt>
      <trkpt lat="43.36016" lon="5.57504">
        <ele>580.29</ele>
        <time>2014-03-21T10:39:32Z</time>
      </trkpt>
      <trkpt lat="43.36008" lon="5.5751">
        <ele>582.22</ele>
        <time>2014-03-21T10:39:43Z</time>
      </trkpt>
      <trkpt lat="43.36003" lon="5.57514">
        <ele>584.14</ele>
        <time>2014-03-21T10:39:53Z</time>
      </trkpt>
      <trkpt lat="43.35999" lon="5.57518">
        <ele>584.62</ele>
        <time>2014-03-21T10:40:04Z</time>
      </trkpt>
      <trkpt lat="43.35998" lon="5.57518">
        <ele>585.1</ele>
        <time>2014-03-21T10:40:17Z</time>
      </trkpt>
      <trkpt lat="43.35998" lon="5.57517">
        <ele>586.54</ele>
        <time>2014-03-21T10:40:26Z</time>
      </trkpt>
      <trkpt lat="43.35997" lon="5.57513">
        <ele>587.98</ele>
        <time>2014-03-21T10:40:34Z</time>
      </trkpt>
      <trkpt lat="43.35996" lon="5.57512">
        <ele>589.43</ele>
        <time>2014-03-21T10:40:42Z</time>
      </trkpt>
      <trkpt lat="43.35996" lon="5.57508">
        <ele>590.39</ele>
        <time>2014-03-21T10:40:51Z</time>
      </trkpt>
      <trkpt lat="43.35995" lon="5.57496">
        <ele>591.35</ele>
        <time>2014-03-21T10:41:02Z</time>
      </trkpt>
      <trkpt lat="43.35994" lon="5.5749">
        <ele>592.79</ele>
        <time>2014-03-21T10:41:14Z</time>
      </trkpt>
      <trkpt lat="43.35994" lon="5.57486">
        <ele>594.23</ele>
        <time>2014-03-21T10:41:22Z</time>
      </trkpt>
      <trkpt lat="43.35993" lon="5.57485">
        <ele>595.67</ele>
        <time>2014-03-21T10:41:35Z</time>
      </trkpt>
      <trkpt lat="43.35993" lon="5.57479">
        <ele>597.12</ele>
        <time>2014-03-21T10:41:43Z</time>
      </trkpt>
      <trkpt lat="43.35993" lon="5.57474">
        <ele>598.08</ele>
        <time>2014-03-21T10:41:52Z</time>
      </trkpt>
      <trkpt lat="43.35994" lon="5.57472">
        <ele>599.04</ele>
        <time>2014-03-21T10:42:02Z</time>
      </trkpt>
      <trkpt lat="43.35993" lon="5.57471">
        <ele>599.52</ele>
        <time>2014-03-21T10:42:06Z</time>
      </trkpt>
      <trkpt lat="43.35989" lon="5.57469">
        <ele>600.48</ele>
        <time>2014-03-21T10:42:15Z</time>
      </trkpt>
      <trkpt lat="43.35988" lon="5.57463">
        <ele>601.44</ele>
        <time>2014-03-21T10:42:27Z</time>
      </trkpt>
      <trkpt lat="43.35987" lon="5.57462">
        <ele>601.92</ele>
        <time>2014-03-21T10:42:37Z</time>
      </trkpt>
      <trkpt lat="43.35984" lon="5.5746">
        <ele>602.4</ele>
        <time>2014-03-21T10:42:47Z</time>
      </trkpt>
      <trkpt lat="43.35984" lon="5.57459">
        <ele>603.36</ele>
        <time>2014-03-21T10:42:57Z</time>
      </trkpt>
      <trkpt lat="43.35983" lon="5.57458">
        <ele>604.33</ele>
        <time>2014-03-21T10:43:08Z</time>
      </trkpt>
      <trkpt lat="43.3598" lon="5.5746">
        <ele>605.77</ele>
        <time>2014-03-21T10:43:17Z</time>
      </trkpt>
      <trkpt lat="43.35978" lon="5.57461">
        <ele>607.21</ele>
        <time>2014-03-21T10:43:26Z</time>
      </trkpt>
      <trkpt lat="43.35973" lon="5.57462">
        <ele>608.17</ele>
        <time>2014-03-21T10:43:34Z</time>
      </trkpt>
      <trkpt lat="43.35971" lon="5.57462">
        <ele>608.65</ele>
        <time>2014-03-21T10:43:36Z</time>
      </trkpt>
      <trkpt lat="43.35962" lon="5.57458">
        <ele>610.09</ele>
        <time>2014-03-21T10:43:46Z</time>
      </trkpt>
      <trkpt lat="43.35955" lon="5.5746">
        <ele>611.54</ele>
        <time>2014-03-21T10:43:56Z</time>
      </trkpt>
      <trkpt lat="43.35952" lon="5.57469">
        <ele>612.98</ele>
        <time>2014-03-21T10:44:07Z</time>
      </trkpt>
      <trkpt lat="43.35951" lon="5.57472">
        <ele>613.46</ele>
        <time>2014-03-21T10:44:10Z</time>
      </trkpt>
      <trkpt lat="43.35944" lon="5.57479">
        <ele>615.38</ele>
        <time>2014-03-21T10:44:24Z</time>
      </trkpt>
      <trkpt lat="43.35941" lon="5.57486">
        <ele>616.34</ele>
        <time>2014-03-21T10:44:34Z</time>
      </trkpt>
      <trkpt lat="43.35936" lon="5.57488">
        <ele>617.78</ele>
        <time>2014-03-21T10:44:44Z</time>
      </trkpt>
      <trkpt lat="43.35935" lon="5.57487">
        <ele>618.26</ele>
        <time>2014-03-21T10:44:56Z</time>
      </trkpt>
      <trkpt lat="43.35935" lon="5.57487">
        <ele>619.71</ele>
        <time>2014-03-21T10:45:04Z</time>
      </trkpt>
      <trkpt lat="43.35934" lon="5.57488">
        <ele>621.63</ele>
        <time>2014-03-21T10:45:15Z</time>
      </trkpt>
      <trkpt lat="43.35933" lon="5.57489">
        <ele>622.59</ele>
        <time>2014-03-21T10:45:26Z</time>
      </trkpt>
      <trkpt lat="43.35931" lon="5.57489">
        <ele>624.51</ele>
        <time>2014-03-21T10:45:40Z</time>
      </trkpt>
      <trkpt lat="43.35931" lon="5.57489">
        <ele>624.51</ele>
        <time>2014-03-21T10:45:52Z</time>
      </trkpt>
      <trkpt lat="43.35928" lon="5.57491">
        <ele>625.96</ele>
        <time>2014-03-21T10:46:03Z</time>
      </trkpt>
      <trkpt lat="43.35926" lon="5.57492">
        <ele>626.92</ele>
        <time>2014-03-21T10:46:11Z</time>
      </trkpt>
      <trkpt lat="43.35925" lon="5.57492">
        <ele>627.4</ele>
        <time>2014-03-21T10:46:16Z</time>
      </trkpt>
      <trkpt lat="43.35919" lon="5.57484">
        <ele>627.4</ele>
        <time>2014-03-21T10:46:26Z</time>
      </trkpt>
      <trkpt lat="43.35911" lon="5.5748">
        <ele>628.36</ele>
        <time>2014-03-21T10:46:36Z</time>
      </trkpt>
      <trkpt lat="43.35903" lon="5.57482">
        <ele>629.32</ele>
        <time>2014-03-21T10:46:46Z</time>
      </trkpt>
      <trkpt lat="43.35894" lon="5.57482">
        <ele>630.28</ele>
        <time>2014-03-21T10:46:56Z</time>
      </trkpt>
      <trkpt lat="43.35885" lon="5.5748">
        <ele>630.76</ele>
        <time>2014-03-21T10:47:05Z</time>
      </trkpt>
      <trkpt lat="43.35882" lon="5.57469">
        <ele>630.76</ele>
        <time>2014-03-21T10:47:14Z</time>
      </trkpt>
      <trkpt lat="43.35877" lon="5.57465">
        <ele>630.28</ele>
        <time>2014-03-21T10:47:23Z</time>
      </trkpt>
      <trkpt lat="43.35873" lon="5.57467">
        <ele>629.8</ele>
        <time>2014-03-21T10:47:35Z</time>
      </trkpt>
      <trkpt lat="43.35875" lon="5.57469">
        <ele>630.28</ele>
        <time>2014-03-21T10:47:44Z</time>
      </trkpt>
      <trkpt lat="43.35878" lon="5.57474">
        <ele>630.76</ele>
        <time>2014-03-21T10:47:53Z</time>
      </trkpt>
      <trkpt lat="43.35879" lon="5.57466">
        <ele>630.28</ele>
        <time>2014-03-21T10:48:01Z</time>
      </trkpt>
      <trkpt lat="43.35879" lon="5.57465">
        <ele>630.28</ele>
        <time>2014-03-21T10:48:10Z</time>
      </trkpt>
      <trkpt lat="43.35877" lon="5.57463">
        <ele>630.28</ele>
        <time>2014-03-21T10:48:13Z</time>
      </trkpt>
      <trkpt lat="43.35877" lon="5.5746">
        <ele>629.8</ele>
        <time>2014-03-21T10:48:16Z</time>
      </trkpt>
      <trkpt lat="43.35881" lon="5.57455">
        <ele>629.32</ele>
        <time>2014-03-21T10:48:22Z</time>
      </trkpt>
      <trkpt lat="43.35883" lon="5.57443">
        <ele>628.36</ele>
        <time>2014-03-21T10:48:33Z</time>
      </trkpt>
      <trkpt lat="43.35889" lon="5.5744">
        <ele>628.36</ele>
        <time>2014-03-21T10:48:42Z</time>
      </trkpt>
      <trkpt lat="43.35892" lon="5.57444">
        <ele>628.36</ele>
        <time>2014-03-21T10:48:53Z</time>
      </trkpt>
      <trkpt lat="43.35892" lon="5.57443">
        <ele>628.84</ele>
        <time>2014-03-21T10:49:00Z</time>
      </trkpt>
      <trkpt lat="43.35888" lon="5.57441">
        <ele>628.36</ele>
        <time>2014-03-21T10:49:04Z</time>
      </trkpt>
      <trkpt lat="43.35886" lon="5.57441">
        <ele>628.36</ele>
        <time>2014-03-21T10:49:06Z</time>
      </trkpt>
      <trkpt lat="43.35883" lon="5.57443">
        <ele>628.36</ele>
        <time>2014-03-21T10:49:09Z</time>
      </trkpt>
      <trkpt lat="43.35881" lon="5.57446">
        <ele>628.84</ele>
        <time>2014-03-21T10:49:14Z</time>
      </trkpt>
      <trkpt lat="43.35879" lon="5.57449">
        <ele>629.8</ele>
        <time>2014-03-21T10:49:22Z</time>
      </trkpt>
      <trkpt lat="43.35878" lon="5.5745">
        <ele>629.8</ele>
        <time>2014-03-21T10:49:24Z</time>
      </trkpt>
      <trkpt lat="43.35877" lon="5.57455">
        <ele>630.28</ele>
        <time>2014-03-21T10:49:27Z</time>
      </trkpt>
      <trkpt lat="43.35879" lon="5.57461">
        <ele>631.24</ele>
        <time>2014-03-21T10:49:37Z</time>
      </trkpt>
      <trkpt lat="43.35879" lon="5.57462">
        <ele>630.76</ele>
        <time>2014-03-21T10:49:50Z</time>
      </trkpt>
      <trkpt lat="43.35879" lon="5.57464">
        <ele>630.76</ele>
        <time>2014-03-21T10:49:59Z</time>
      </trkpt>
      <trkpt lat="43.35879" lon="5.57466">
        <ele>630.76</ele>
        <time>2014-03-21T10:50:12Z</time>
      </trkpt>
      <trkpt lat="43.35879" lon="5.57466">
        <ele>631.24</ele>
        <time>2014-03-21T10:50:21Z</time>
      </trkpt>
      <trkpt lat="43.35879" lon="5.57466">
        <ele>631.72</ele>
        <time>2014-03-21T10:50:41Z</time>
      </trkpt>
      <trkpt lat="43.35879" lon="5.57466">
        <ele>631.72</ele>
        <time>2014-03-21T10:50:57Z</time>
      </trkpt>
      <trkpt lat="43.35879" lon="5.57467">
        <ele>630.76</ele>
        <time>2014-03-21T10:51:06Z</time>
      </trkpt>
      <trkpt lat="43.35879" lon="5.57467">
        <ele>630.76</ele>
        <time>2014-03-21T10:51:24Z</time>
      </trkpt>
      <trkpt lat="43.3588" lon="5.57467">
        <ele>630.76</ele>
        <time>2014-03-21T10:51:46Z</time>
      </trkpt>
      <trkpt lat="43.3588" lon="5.57466">
        <ele>630.28</ele>
        <time>2014-03-21T10:52:03Z</time>
      </trkpt>
      <trkpt lat="43.3588" lon="5.57467">
        <ele>630.28</ele>
        <time>2014-03-21T10:52:21Z</time>
      </trkpt>
      <trkpt lat="43.3588" lon="5.57467">
        <ele>631.72</ele>
        <time>2014-03-21T10:52:41Z</time>
      </trkpt>
      <trkpt lat="43.35881" lon="5.57467">
        <ele>629.8</ele>
        <time>2014-03-21T10:52:53Z</time>
      </trkpt>
      <trkpt lat="43.35881" lon="5.57467">
        <ele>629.8</ele>
        <time>2014-03-21T10:53:08Z</time>
      </trkpt>
      <trkpt lat="43.35881" lon="5.57467">
        <ele>629.8</ele>
        <time>2014-03-21T10:53:26Z</time>
      </trkpt>
      <trkpt lat="43.35881" lon="5.57467">
        <ele>629.8</ele>
        <time>2014-03-21T10:53:42Z</time>
      </trkpt>
      <trkpt lat="43.35881" lon="5.57467">
        <ele>629.8</ele>
        <time>2014-03-21T10:54:01Z</time>
      </trkpt>
      <trkpt lat="43.35882" lon="5.57467">
        <ele>629.8</ele>
        <time>2014-03-21T10:54:18Z</time>
      </trkpt>
      <trkpt lat="43.35882" lon="5.57467">
        <ele>629.8</ele>
        <time>2014-03-21T10:54:35Z</time>
      </trkpt>
      <trkpt lat="43.35883" lon="5.57467">
        <ele>629.8</ele>
        <time>2014-03-21T10:54:52Z</time>
      </trkpt>
      <trkpt lat="43.35883" lon="5.57467">
        <ele>629.8</ele>
        <time>2014-03-21T10:55:08Z</time>
      </trkpt>
      <trkpt lat="43.35884" lon="5.57467">
        <ele>629.8</ele>
        <time>2014-03-21T10:55:24Z</time>
      </trkpt>
      <trkpt lat="43.35884" lon="5.57467">
        <ele>629.32</ele>
        <time>2014-03-21T10:55:41Z</time>
      </trkpt>
      <trkpt lat="43.35884" lon="5.57468">
        <ele>629.32</ele>
        <time>2014-03-21T10:55:57Z</time>
      </trkpt>
      <trkpt lat="43.35884" lon="5.57468">
        <ele>629.32</ele>
        <time>2014-03-21T10:56:13Z</time>
      </trkpt>
      <trkpt lat="43.35884" lon="5.57468">
        <ele>629.32</ele>
        <time>2014-03-21T10:56:32Z</time>
      </trkpt>
      <trkpt lat="43.35885" lon="5.57468">
        <ele>628.84</ele>
        <time>2014-03-21T10:56:52Z</time>
      </trkpt>
      <trkpt lat="43.35886" lon="5.57469">
        <ele>628.36</ele>
        <time>2014-03-21T10:57:10Z</time>
      </trkpt>
      <trkpt lat="43.35887" lon="5.57471">
        <ele>628.36</ele>
        <time>2014-03-21T10:57:24Z</time>
      </trkpt>
      <trkpt lat="43.35887" lon="5.57471">
        <ele>628.84</ele>
        <time>2014-03-21T10:57:41Z</time>
      </trkpt>
      <trkpt lat="43.35887" lon="5.57472">
        <ele>628.36</ele>
        <time>2014-03-21T10:57:59Z</time>
      </trkpt>
      <trkpt lat="43.35887" lon="5.57471">
        <ele>628.36</ele>
        <time>2014-03-21T10:58:16Z</time>
      </trkpt>
      <trkpt lat="43.35888" lon="5.57471">
        <ele>627.88</ele>
        <time>2014-03-21T10:58:32Z</time>
      </trkpt>
      <trkpt lat="43.35891" lon="5.5747">
        <ele>628.36</ele>
        <time>2014-03-21T10:58:49Z</time>
      </trkpt>
      <trkpt lat="43.35892" lon="5.57471">
        <ele>627.4</ele>
        <time>2014-03-21T10:59:10Z</time>
      </trkpt>
      <trkpt lat="43.35893" lon="5.57472">
        <ele>627.4</ele>
        <time>2014-03-21T10:59:29Z</time>
      </trkpt>
      <trkpt lat="43.35895" lon="5.57472">
        <ele>627.4</ele>
        <time>2014-03-21T10:59:44Z</time>
      </trkpt>
      <trkpt lat="43.35895" lon="5.57469">
        <ele>627.4</ele>
        <time>2014-03-21T10:59:59Z</time>
      </trkpt>
      <trkpt lat="43.35894" lon="5.57467">
        <ele>627.4</ele>
        <time>2014-03-21T11:00:15Z</time>
      </trkpt>
      <trkpt lat="43.35892" lon="5.57466">
        <ele>627.4</ele>
        <time>2014-03-21T11:00:31Z</time>
      </trkpt>
      <trkpt lat="43.35896" lon="5.57462">
        <ele>627.4</ele>
        <time>2014-03-21T11:00:55Z</time>
      </trkpt>
      <trkpt lat="43.35897" lon="5.57459">
        <ele>626.92</ele>
        <time>2014-03-21T11:01:23Z</time>
      </trkpt>
      <trkpt lat="43.35897" lon="5.57459">
        <ele>626.44</ele>
        <time>2014-03-21T11:01:46Z</time>
      </trkpt>
      <trkpt lat="43.35895" lon="5.57461">
        <ele>625.96</ele>
        <time>2014-03-21T11:02:02Z</time>
      </trkpt>
      <trkpt lat="43.35894" lon="5.57462">
        <ele>626.44</ele>
        <time>2014-03-21T11:02:23Z</time>
      </trkpt>
      <trkpt lat="43.35893" lon="5.57462">
        <ele>626.44</ele>
        <time>2014-03-21T11:02:39Z</time>
      </trkpt>
      <trkpt lat="43.35893" lon="5.5746">
        <ele>626.44</ele>
        <time>2014-03-21T11:02:55Z</time>
      </trkpt>
      <trkpt lat="43.35894" lon="5.57459">
        <ele>625.96</ele>
        <time>2014-03-21T11:03:12Z</time>
      </trkpt>
      <trkpt lat="43.35894" lon="5.57456">
        <ele>625.96</ele>
        <time>2014-03-21T11:03:34Z</time>
      </trkpt>
      <trkpt lat="43.35895" lon="5.57456">
        <ele>625.96</ele>
        <time>2014-03-21T11:03:52Z</time>
      </trkpt>
      <trkpt lat="43.35894" lon="5.57456">
        <ele>625.47</ele>
        <time>2014-03-21T11:04:09Z</time>
      </trkpt>
      <trkpt lat="43.35895" lon="5.57456">
        <ele>625.47</ele>
        <time>2014-03-21T11:04:24Z</time>
      </trkpt>
      <trkpt lat="43.35894" lon="5.57457">
        <ele>625.96</ele>
        <time>2014-03-21T11:04:40Z</time>
      </trkpt>
      <trkpt lat="43.35894" lon="5.57453">
        <ele>625.96</ele>
        <time>2014-03-21T11:04:56Z</time>
      </trkpt>
      <trkpt lat="43.35897" lon="5.57448">
        <ele>625.96</ele>
        <time>2014-03-21T11:05:07Z</time>
      </trkpt>
      <trkpt lat="43.35902" lon="5.57442">
        <ele>625.47</ele>
        <time>2014-03-21T11:05:32Z</time>
      </trkpt>
      <trkpt lat="43.35907" lon="5.57442">
        <ele>624.99</ele>
        <time>2014-03-21T11:05:55Z</time>
      </trkpt>
      <trkpt lat="43.35904" lon="5.57442">
        <ele>624.99</ele>
        <time>2014-03-21T11:06:16Z</time>
      </trkpt>
      <trkpt lat="43.35901" lon="5.57443">
        <ele>624.99</ele>
        <time>2014-03-21T11:06:41Z</time>
      </trkpt>
      <trkpt lat="43.359" lon="5.57444">
        <ele>624.99</ele>
        <time>2014-03-21T11:06:57Z</time>
      </trkpt>
      <trkpt lat="43.35898" lon="5.57445">
        <ele>624.99</ele>
        <time>2014-03-21T11:07:18Z</time>
      </trkpt>
      <trkpt lat="43.35898" lon="5.57445">
        <ele>624.51</ele>
        <time>2014-03-21T11:07:42Z</time>
      </trkpt>
      <trkpt lat="43.35897" lon="5.57446">
        <ele>624.51</ele>
        <time>2014-03-21T11:08:04Z</time>
      </trkpt>
      <trkpt lat="43.35896" lon="5.57447">
        <ele>624.51</ele>
        <time>2014-03-21T11:08:27Z</time>
      </trkpt>
      <trkpt lat="43.35894" lon="5.57448">
        <ele>624.99</ele>
        <time>2014-03-21T11:08:45Z</time>
      </trkpt>
      <trkpt lat="43.35893" lon="5.57448">
        <ele>624.99</ele>
        <time>2014-03-21T11:09:07Z</time>
      </trkpt>
      <trkpt lat="43.35892" lon="5.57448">
        <ele>624.99</ele>
        <time>2014-03-21T11:09:29Z</time>
      </trkpt>
      <trkpt lat="43.35891" lon="5.57449">
        <ele>625.47</ele>
        <time>2014-03-21T11:09:49Z</time>
      </trkpt>
      <trkpt lat="43.3589" lon="5.57449">
        <ele>624.51</ele>
        <time>2014-03-21T11:10:15Z</time>
      </trkpt>
      <trkpt lat="43.35889" lon="5.5745">
        <ele>625.47</ele>
        <time>2014-03-21T11:10:41Z</time>
      </trkpt>
      <trkpt lat="43.35889" lon="5.57451">
        <ele>625.47</ele>
        <time>2014-03-21T11:11:02Z</time>
      </trkpt>
      <trkpt lat="43.35887" lon="5.57452">
        <ele>625.47</ele>
        <time>2014-03-21T11:11:13Z</time>
      </trkpt>
      <trkpt lat="43.35887" lon="5.57452">
        <ele>625.96</ele>
        <time>2014-03-21T11:11:22Z</time>
      </trkpt>
      <trkpt lat="43.35885" lon="5.57453">
        <ele>625.96</ele>
        <time>2014-03-21T11:11:40Z</time>
      </trkpt>
      <trkpt lat="43.35884" lon="5.57453">
        <ele>626.44</ele>
        <time>2014-03-21T11:11:54Z</time>
      </trkpt>
      <trkpt lat="43.35883" lon="5.57452">
        <ele>626.44</ele>
        <time>2014-03-21T11:12:06Z</time>
      </trkpt>
      <trkpt lat="43.35882" lon="5.5745">
        <ele>626.44</ele>
        <time>2014-03-21T11:12:29Z</time>
      </trkpt>
      <trkpt lat="43.35881" lon="5.5745">
        <ele>626.44</ele>
        <time>2014-03-21T11:12:42Z</time>
      </trkpt>
      <trkpt lat="43.35881" lon="5.5745">
        <ele>626.44</ele>
        <time>2014-03-21T11:12:57Z</time>
      </trkpt>
      <trkpt lat="43.35878" lon="5.57454">
        <ele>625.96</ele>
        <time>2014-03-21T11:13:06Z</time>
      </trkpt>
      <trkpt lat="43.35878" lon="5.57454">
        <ele>625.47</ele>
        <time>2014-03-21T11:13:16Z</time>
      </trkpt>
      <trkpt lat="43.35878" lon="5.57456">
        <ele>624.99</ele>
        <time>2014-03-21T11:13:24Z</time>
      </trkpt>
      <trkpt lat="43.3588" lon="5.57452">
        <ele>624.99</ele>
        <time>2014-03-21T11:13:28Z</time>
      </trkpt>
      <trkpt lat="43.35884" lon="5.57446">
        <ele>624.51</ele>
        <time>2014-03-21T11:13:37Z</time>
      </trkpt>
      <trkpt lat="43.35885" lon="5.57443">
        <ele>624.51</ele>
        <time>2014-03-21T11:13:49Z</time>
      </trkpt>
      <trkpt lat="43.35891" lon="5.57432">
        <ele>623.07</ele>
        <time>2014-03-21T11:13:59Z</time>
      </trkpt>
      <trkpt lat="43.35894" lon="5.57421">
        <ele>622.11</ele>
        <time>2014-03-21T11:14:09Z</time>
      </trkpt>
      <trkpt lat="43.35892" lon="5.57405">
        <ele>620.67</ele>
        <time>2014-03-21T11:14:19Z</time>
      </trkpt>
      <trkpt lat="43.35888" lon="5.57396">
        <ele>619.71</ele>
        <time>2014-03-21T11:14:24Z</time>
      </trkpt>
      <trkpt lat="43.35885" lon="5.57392">
        <ele>618.75</ele>
        <time>2014-03-21T11:14:29Z</time>
      </trkpt>
      <trkpt lat="43.35878" lon="5.57381">
        <ele>617.78</ele>
        <time>2014-03-21T11:14:37Z</time>
      </trkpt>
      <trkpt lat="43.3587" lon="5.57371">
        <ele>616.82</ele>
        <time>2014-03-21T11:14:48Z</time>
      </trkpt>
      <trkpt lat="43.35864" lon="5.57359">
        <ele>615.38</ele>
        <time>2014-03-21T11:14:57Z</time>
      </trkpt>
      <trkpt lat="43.35853" lon="5.57348">
        <ele>614.42</ele>
        <time>2014-03-21T11:15:06Z</time>
      </trkpt>
      <trkpt lat="43.35849" lon="5.57341">
        <ele>612.98</ele>
        <time>2014-03-21T11:15:13Z</time>
      </trkpt>
      <trkpt lat="43.35839" lon="5.57329">
        <ele>612.5</ele>
        <time>2014-03-21T11:15:22Z</time>
      </trkpt>
      <trkpt lat="43.3583" lon="5.57318">
        <ele>612.02</ele>
        <time>2014-03-21T11:15:32Z</time>
      </trkpt>
      <trkpt lat="43.3583" lon="5.57316">
        <ele>612.02</ele>
        <time>2014-03-21T11:15:34Z</time>
      </trkpt>
      <trkpt lat="43.35825" lon="5.57308">
        <ele>611.54</ele>
        <time>2014-03-21T11:15:39Z</time>
      </trkpt>
      <trkpt lat="43.35817" lon="5.57293">
        <ele>611.06</ele>
        <time>2014-03-21T11:15:48Z</time>
      </trkpt>
      <trkpt lat="43.3581" lon="5.57279">
        <ele>611.06</ele>
        <time>2014-03-21T11:15:57Z</time>
      </trkpt>
      <trkpt lat="43.35807" lon="5.57272">
        <ele>611.06</ele>
        <time>2014-03-21T11:16:03Z</time>
      </trkpt>
      <trkpt lat="43.35796" lon="5.57253">
        <ele>609.61</ele>
        <time>2014-03-21T11:16:15Z</time>
      </trkpt>
      <trkpt lat="43.35793" lon="5.57246">
        <ele>609.61</ele>
        <time>2014-03-21T11:16:22Z</time>
      </trkpt>
      <trkpt lat="43.35792" lon="5.57245">
        <ele>609.61</ele>
        <time>2014-03-21T11:16:24Z</time>
      </trkpt>
      <trkpt lat="43.35789" lon="5.57236">
        <ele>609.13</ele>
        <time>2014-03-21T11:16:29Z</time>
      </trkpt>
      <trkpt lat="43.35788" lon="5.5723">
        <ele>608.65</ele>
        <time>2014-03-21T11:16:33Z</time>
      </trkpt>
      <trkpt lat="43.35792" lon="5.57227">
        <ele>608.65</ele>
        <time>2014-03-21T11:16:38Z</time>
      </trkpt>
      <trkpt lat="43.35797" lon="5.57223">
        <ele>608.65</ele>
        <time>2014-03-21T11:16:48Z</time>
      </trkpt>
      <trkpt lat="43.35797" lon="5.57223">
        <ele>608.65</ele>
        <time>2014-03-21T11:16:52Z</time>
      </trkpt>
      <trkpt lat="43.35788" lon="5.57221">
        <ele>608.17</ele>
        <time>2014-03-21T11:17:00Z</time>
      </trkpt>
      <trkpt lat="43.3578" lon="5.57213">
        <ele>608.17</ele>
        <time>2014-03-21T11:17:08Z</time>
      </trkpt>
      <trkpt lat="43.35778" lon="5.57207">
        <ele>608.65</ele>
        <time>2014-03-21T11:17:13Z</time>
      </trkpt>
      <trkpt lat="43.35775" lon="5.57201">
        <ele>608.65</ele>
        <time>2014-03-21T11:17:18Z</time>
      </trkpt>
      <trkpt lat="43.3577" lon="5.57204">
        <ele>609.13</ele>
        <time>2014-03-21T11:17:24Z</time>
      </trkpt>
      <trkpt lat="43.35768" lon="5.57203">
        <ele>608.65</ele>
        <time>2014-03-21T11:17:37Z</time>
      </trkpt>
      <trkpt lat="43.35768" lon="5.57203">
        <ele>608.65</ele>
        <time>2014-03-21T11:17:52Z</time>
      </trkpt>
      <trkpt lat="43.35768" lon="5.57196">
        <ele>609.13</ele>
        <time>2014-03-21T11:18:01Z</time>
      </trkpt>
      <trkpt lat="43.35769" lon="5.57193">
        <ele>609.13</ele>
        <time>2014-03-21T11:18:05Z</time>
      </trkpt>
      <trkpt lat="43.35765" lon="5.57177">
        <ele>609.61</ele>
        <time>2014-03-21T11:18:15Z</time>
      </trkpt>
      <trkpt lat="43.35764" lon="5.57173">
        <ele>610.09</ele>
        <time>2014-03-21T11:18:18Z</time>
      </trkpt>
      <trkpt lat="43.35761" lon="5.57164">
        <ele>610.09</ele>
        <time>2014-03-21T11:18:25Z</time>
      </trkpt>
      <trkpt lat="43.35755" lon="5.57151">
        <ele>610.09</ele>
        <time>2014-03-21T11:18:35Z</time>
      </trkpt>
      <trkpt lat="43.35754" lon="5.57147">
        <ele>610.57</ele>
        <time>2014-03-21T11:18:38Z</time>
      </trkpt>
      <trkpt lat="43.35752" lon="5.57145">
        <ele>610.57</ele>
        <time>2014-03-21T11:18:40Z</time>
      </trkpt>
      <trkpt lat="43.35748" lon="5.5713">
        <ele>610.57</ele>
        <time>2014-03-21T11:18:49Z</time>
      </trkpt>
      <trkpt lat="43.35747" lon="5.57129">
        <ele>610.09</ele>
        <time>2014-03-21T11:18:50Z</time>
      </trkpt>
      <trkpt lat="43.35746" lon="5.57126">
        <ele>610.09</ele>
        <time>2014-03-21T11:18:52Z</time>
      </trkpt>
      <trkpt lat="43.3574" lon="5.57108">
        <ele>610.09</ele>
        <time>2014-03-21T11:19:02Z</time>
      </trkpt>
      <trkpt lat="43.35739" lon="5.57104">
        <ele>609.61</ele>
        <time>2014-03-21T11:19:06Z</time>
      </trkpt>
      <trkpt lat="43.35738" lon="5.57101">
        <ele>610.09</ele>
        <time>2014-03-21T11:19:08Z</time>
      </trkpt>
      <trkpt lat="43.35733" lon="5.57086">
        <ele>609.61</ele>
        <time>2014-03-21T11:19:17Z</time>
      </trkpt>
      <trkpt lat="43.35732" lon="5.57082">
        <ele>609.61</ele>
        <time>2014-03-21T11:19:19Z</time>
      </trkpt>
      <trkpt lat="43.35727" lon="5.57069">
        <ele>609.13</ele>
        <time>2014-03-21T11:19:29Z</time>
      </trkpt>
      <trkpt lat="43.35721" lon="5.57055">
        <ele>608.65</ele>
        <time>2014-03-21T11:19:37Z</time>
      </trkpt>
      <trkpt lat="43.35719" lon="5.57047">
        <ele>608.65</ele>
        <time>2014-03-21T11:19:41Z</time>
      </trkpt>
      <trkpt lat="43.35718" lon="5.57045">
        <ele>608.65</ele>
        <time>2014-03-21T11:19:43Z</time>
      </trkpt>
      <trkpt lat="43.35716" lon="5.57038">
        <ele>608.17</ele>
        <time>2014-03-21T11:19:53Z</time>
      </trkpt>
      <trkpt lat="43.35716" lon="5.57035">
        <ele>608.17</ele>
        <time>2014-03-21T11:19:55Z</time>
      </trkpt>
      <trkpt lat="43.35716" lon="5.57029">
        <ele>608.65</ele>
        <time>2014-03-21T11:20:00Z</time>
      </trkpt>
      <trkpt lat="43.35715" lon="5.57026">
        <ele>608.65</ele>
        <time>2014-03-21T11:20:02Z</time>
      </trkpt>
      <trkpt lat="43.35714" lon="5.57021">
        <ele>608.65</ele>
        <time>2014-03-21T11:20:05Z</time>
      </trkpt>
      <trkpt lat="43.35715" lon="5.57018">
        <ele>609.13</ele>
        <time>2014-03-21T11:20:07Z</time>
      </trkpt>
      <trkpt lat="43.35714" lon="5.57013">
        <ele>609.13</ele>
        <time>2014-03-21T11:20:11Z</time>
      </trkpt>
      <trkpt lat="43.35714" lon="5.57008">
        <ele>609.13</ele>
        <time>2014-03-21T11:20:14Z</time>
      </trkpt>
      <trkpt lat="43.35714" lon="5.56996">
        <ele>609.13</ele>
        <time>2014-03-21T11:20:20Z</time>
      </trkpt>
      <trkpt lat="43.35715" lon="5.5699">
        <ele>609.13</ele>
        <time>2014-03-21T11:20:25Z</time>
      </trkpt>
      <trkpt lat="43.35715" lon="5.56973">
        <ele>609.13</ele>
        <time>2014-03-21T11:20:35Z</time>
      </trkpt>
      <trkpt lat="43.35715" lon="5.56971">
        <ele>609.13</ele>
        <time>2014-03-21T11:20:37Z</time>
      </trkpt>
      <trkpt lat="43.3571" lon="5.56954">
        <ele>609.13</ele>
        <time>2014-03-21T11:20:47Z</time>
      </trkpt>
      <trkpt lat="43.35709" lon="5.56951">
        <ele>608.65</ele>
        <time>2014-03-21T11:20:49Z</time>
      </trkpt>
      <trkpt lat="43.35709" lon="5.5694">
        <ele>609.13</ele>
        <time>2014-03-21T11:20:56Z</time>
      </trkpt>
      <trkpt lat="43.35708" lon="5.56925">
        <ele>609.61</ele>
        <time>2014-03-21T11:21:05Z</time>
      </trkpt>
      <trkpt lat="43.35709" lon="5.5692">
        <ele>609.13</ele>
        <time>2014-03-21T11:21:08Z</time>
      </trkpt>
      <trkpt lat="43.35706" lon="5.56901">
        <ele>610.09</ele>
        <time>2014-03-21T11:21:19Z</time>
      </trkpt>
      <trkpt lat="43.35706" lon="5.56899">
        <ele>610.09</ele>
        <time>2014-03-21T11:21:21Z</time>
      </trkpt>
      <trkpt lat="43.35702" lon="5.56884">
        <ele>610.09</ele>
        <time>2014-03-21T11:21:31Z</time>
      </trkpt>
      <trkpt lat="43.357" lon="5.56866">
        <ele>611.54</ele>
        <time>2014-03-21T11:21:44Z</time>
      </trkpt>
      <trkpt lat="43.35699" lon="5.56859">
        <ele>612.02</ele>
        <time>2014-03-21T11:21:49Z</time>
      </trkpt>
      <trkpt lat="43.35696" lon="5.56841">
        <ele>612.98</ele>
        <time>2014-03-21T11:22:01Z</time>
      </trkpt>
      <trkpt lat="43.35689" lon="5.56829">
        <ele>612.98</ele>
        <time>2014-03-21T11:22:11Z</time>
      </trkpt>
      <trkpt lat="43.35685" lon="5.56823">
        <ele>613.94</ele>
        <time>2014-03-21T11:22:16Z</time>
      </trkpt>
      <trkpt lat="43.35674" lon="5.56814">
        <ele>614.9</ele>
        <time>2014-03-21T11:22:29Z</time>
      </trkpt>
      <trkpt lat="43.3567" lon="5.56809">
        <ele>615.38</ele>
        <time>2014-03-21T11:22:35Z</time>
      </trkpt>
      <trkpt lat="43.35667" lon="5.56802">
        <ele>615.38</ele>
        <time>2014-03-21T11:22:40Z</time>
      </trkpt>
      <trkpt lat="43.35661" lon="5.56788">
        <ele>615.86</ele>
        <time>2014-03-21T11:22:50Z</time>
      </trkpt>
      <trkpt lat="43.35655" lon="5.56774">
        <ele>615.86</ele>
        <time>2014-03-21T11:22:59Z</time>
      </trkpt>
      <trkpt lat="43.35651" lon="5.56768">
        <ele>616.34</ele>
        <time>2014-03-21T11:23:04Z</time>
      </trkpt>
      <trkpt lat="43.35646" lon="5.56756">
        <ele>616.82</ele>
        <time>2014-03-21T11:23:12Z</time>
      </trkpt>
      <trkpt lat="43.35635" lon="5.56743">
        <ele>617.3</ele>
        <time>2014-03-21T11:23:24Z</time>
      </trkpt>
      <trkpt lat="43.35623" lon="5.56732">
        <ele>617.3</ele>
        <time>2014-03-21T11:23:35Z</time>
      </trkpt>
      <trkpt lat="43.35607" lon="5.56723">
        <ele>617.3</ele>
        <time>2014-03-21T11:23:48Z</time>
      </trkpt>
      <trkpt lat="43.35606" lon="5.56722">
        <ele>617.3</ele>
        <time>2014-03-21T11:23:49Z</time>
      </trkpt>
      <trkpt lat="43.35592" lon="5.56717">
        <ele>617.3</ele>
        <time>2014-03-21T11:24:01Z</time>
      </trkpt>
      <trkpt lat="43.35591" lon="5.56716">
        <ele>617.3</ele>
        <time>2014-03-21T11:24:02Z</time>
      </trkpt>
      <trkpt lat="43.35579" lon="5.5671">
        <ele>617.3</ele>
        <time>2014-03-21T11:24:11Z</time>
      </trkpt>
      <trkpt lat="43.35564" lon="5.56705">
        <ele>617.3</ele>
        <time>2014-03-21T11:24:23Z</time>
      </trkpt>
      <trkpt lat="43.35563" lon="5.56705">
        <ele>617.3</ele>
        <time>2014-03-21T11:24:24Z</time>
      </trkpt>
      <trkpt lat="43.35547" lon="5.56701">
        <ele>617.3</ele>
        <time>2014-03-21T11:24:36Z</time>
      </trkpt>
      <trkpt lat="43.35535" lon="5.567">
        <ele>616.82</ele>
        <time>2014-03-21T11:24:46Z</time>
      </trkpt>
      <trkpt lat="43.35521" lon="5.56697">
        <ele>616.82</ele>
        <time>2014-03-21T11:24:58Z</time>
      </trkpt>
      <trkpt lat="43.35513" lon="5.56694">
        <ele>616.34</ele>
        <time>2014-03-21T11:25:05Z</time>
      </trkpt>
      <trkpt lat="43.35498" lon="5.56701">
        <ele>616.82</ele>
        <time>2014-03-21T11:25:18Z</time>
      </trkpt>
      <trkpt lat="43.35495" lon="5.56701">
        <ele>616.82</ele>
        <time>2014-03-21T11:25:20Z</time>
      </trkpt>
      <trkpt lat="43.35488" lon="5.56705">
        <ele>617.3</ele>
        <time>2014-03-21T11:25:26Z</time>
      </trkpt>
      <trkpt lat="43.35472" lon="5.56707">
        <ele>618.75</ele>
        <time>2014-03-21T11:25:39Z</time>
      </trkpt>
      <trkpt lat="43.3546" lon="5.56713">
        <ele>619.71</ele>
        <time>2014-03-21T11:25:50Z</time>
      </trkpt>
      <trkpt lat="43.35449" lon="5.56723">
        <ele>620.19</ele>
        <time>2014-03-21T11:26:01Z</time>
      </trkpt>
      <trkpt lat="43.35441" lon="5.56733">
        <ele>619.71</ele>
        <time>2014-03-21T11:26:10Z</time>
      </trkpt>
      <trkpt lat="43.35431" lon="5.56736">
        <ele>619.71</ele>
        <time>2014-03-21T11:26:18Z</time>
      </trkpt>
      <trkpt lat="43.35419" lon="5.56746">
        <ele>619.71</ele>
        <time>2014-03-21T11:26:30Z</time>
      </trkpt>
      <trkpt lat="43.35408" lon="5.56754">
        <ele>620.67</ele>
        <time>2014-03-21T11:26:40Z</time>
      </trkpt>
      <trkpt lat="43.35398" lon="5.56764">
        <ele>621.15</ele>
        <time>2014-03-21T11:26:51Z</time>
      </trkpt>
      <trkpt lat="43.35389" lon="5.56769">
        <ele>621.63</ele>
        <time>2014-03-21T11:27:00Z</time>
      </trkpt>
      <trkpt lat="43.35376" lon="5.56775">
        <ele>621.15</ele>
        <time>2014-03-21T11:27:11Z</time>
      </trkpt>
      <trkpt lat="43.35365" lon="5.56779">
        <ele>621.63</ele>
        <time>2014-03-21T11:27:21Z</time>
      </trkpt>
      <trkpt lat="43.35361" lon="5.56779">
        <ele>621.63</ele>
        <time>2014-03-21T11:27:24Z</time>
      </trkpt>
      <trkpt lat="43.35357" lon="5.56779">
        <ele>622.11</ele>
        <time>2014-03-21T11:27:27Z</time>
      </trkpt>
      <trkpt lat="43.35341" lon="5.56777">
        <ele>622.11</ele>
        <time>2014-03-21T11:27:39Z</time>
      </trkpt>
      <trkpt lat="43.35329" lon="5.56776">
        <ele>622.11</ele>
        <time>2014-03-21T11:27:48Z</time>
      </trkpt>
      <trkpt lat="43.35327" lon="5.56777">
        <ele>622.59</ele>
        <time>2014-03-21T11:27:50Z</time>
      </trkpt>
      <trkpt lat="43.35315" lon="5.56777">
        <ele>622.59</ele>
        <time>2014-03-21T11:27:59Z</time>
      </trkpt>
      <trkpt lat="43.35309" lon="5.56778">
        <ele>622.59</ele>
        <time>2014-03-21T11:28:04Z</time>
      </trkpt>
      <trkpt lat="43.35294" lon="5.56776">
        <ele>623.07</ele>
        <time>2014-03-21T11:28:16Z</time>
      </trkpt>
      <trkpt lat="43.35282" lon="5.56768">
        <ele>623.07</ele>
        <time>2014-03-21T11:28:26Z</time>
      </trkpt>
      <trkpt lat="43.35277" lon="5.56764">
        <ele>624.51</ele>
        <time>2014-03-21T11:28:35Z</time>
      </trkpt>
      <trkpt lat="43.35277" lon="5.56767">
        <ele>624.03</ele>
        <time>2014-03-21T11:28:41Z</time>
      </trkpt>
      <trkpt lat="43.35261" lon="5.56758">
        <ele>624.03</ele>
        <time>2014-03-21T11:28:54Z</time>
      </trkpt>
      <trkpt lat="43.35255" lon="5.56754">
        <ele>624.51</ele>
        <time>2014-03-21T11:29:00Z</time>
      </trkpt>
      <trkpt lat="43.35243" lon="5.56744">
        <ele>624.03</ele>
        <time>2014-03-21T11:29:12Z</time>
      </trkpt>
      <trkpt lat="43.35234" lon="5.56736">
        <ele>624.03</ele>
        <time>2014-03-21T11:29:21Z</time>
      </trkpt>
      <trkpt lat="43.35234" lon="5.56727">
        <ele>624.51</ele>
        <time>2014-03-21T11:29:29Z</time>
      </trkpt>
      <trkpt lat="43.35241" lon="5.56716">
        <ele>625.96</ele>
        <time>2014-03-21T11:29:39Z</time>
      </trkpt>
      <trkpt lat="43.35246" lon="5.56706">
        <ele>626.92</ele>
        <time>2014-03-21T11:29:47Z</time>
      </trkpt>
      <trkpt lat="43.3525" lon="5.56694">
        <ele>627.88</ele>
        <time>2014-03-21T11:29:56Z</time>
      </trkpt>
      <trkpt lat="43.3525" lon="5.56692">
        <ele>627.88</ele>
        <time>2014-03-21T11:29:58Z</time>
      </trkpt>
      <trkpt lat="43.3525" lon="5.56674">
        <ele>628.36</ele>
        <time>2014-03-21T11:30:08Z</time>
      </trkpt>
      <trkpt lat="43.3525" lon="5.56673">
        <ele>627.88</ele>
        <time>2014-03-21T11:30:09Z</time>
      </trkpt>
      <trkpt lat="43.3525" lon="5.56665">
        <ele>627.88</ele>
        <time>2014-03-21T11:30:16Z</time>
      </trkpt>
      <trkpt lat="43.35247" lon="5.5665">
        <ele>626.44</ele>
        <time>2014-03-21T11:30:27Z</time>
      </trkpt>
      <trkpt lat="43.35242" lon="5.56639">
        <ele>624.99</ele>
        <time>2014-03-21T11:30:37Z</time>
      </trkpt>
      <trkpt lat="43.35237" lon="5.56631">
        <ele>624.03</ele>
        <time>2014-03-21T11:30:43Z</time>
      </trkpt>
      <trkpt lat="43.35227" lon="5.5662">
        <ele>622.11</ele>
        <time>2014-03-21T11:30:55Z</time>
      </trkpt>
      <trkpt lat="43.35226" lon="5.5662">
        <ele>621.63</ele>
        <time>2014-03-21T11:30:56Z</time>
      </trkpt>
      <trkpt lat="43.35219" lon="5.56624">
        <ele>620.67</ele>
        <time>2014-03-21T11:31:03Z</time>
      </trkpt>
      <trkpt lat="43.35214" lon="5.56629">
        <ele>619.71</ele>
        <time>2014-03-21T11:31:09Z</time>
      </trkpt>
      <trkpt lat="43.35208" lon="5.5663">
        <ele>618.75</ele>
        <time>2014-03-21T11:31:15Z</time>
      </trkpt>
      <trkpt lat="43.35205" lon="5.5663">
        <ele>618.26</ele>
        <time>2014-03-21T11:31:18Z</time>
      </trkpt>
      <trkpt lat="43.35195" lon="5.56621">
        <ele>616.82</ele>
        <time>2014-03-21T11:31:28Z</time>
      </trkpt>
      <trkpt lat="43.35194" lon="5.5662">
        <ele>616.34</ele>
        <time>2014-03-21T11:31:29Z</time>
      </trkpt>
      <trkpt lat="43.35191" lon="5.56615">
        <ele>615.86</ele>
        <time>2014-03-21T11:31:34Z</time>
      </trkpt>
      <trkpt lat="43.35189" lon="5.56601">
        <ele>614.9</ele>
        <time>2014-03-21T11:31:43Z</time>
      </trkpt>
      <trkpt lat="43.35188" lon="5.56592">
        <ele>614.42</ele>
        <time>2014-03-21T11:31:50Z</time>
      </trkpt>
      <trkpt lat="43.3519" lon="5.5658">
        <ele>613.94</ele>
        <time>2014-03-21T11:31:57Z</time>
      </trkpt>
      <trkpt lat="43.35196" lon="5.56565">
        <ele>612.98</ele>
        <time>2014-03-21T11:32:08Z</time>
      </trkpt>
      <trkpt lat="43.35202" lon="5.56549">
        <ele>612.5</ele>
        <time>2014-03-21T11:32:19Z</time>
      </trkpt>
      <trkpt lat="43.35209" lon="5.56534">
        <ele>612.5</ele>
        <time>2014-03-21T11:32:30Z</time>
      </trkpt>
      <trkpt lat="43.35214" lon="5.56519">
        <ele>611.54</ele>
        <time>2014-03-21T11:32:40Z</time>
      </trkpt>
      <trkpt lat="43.35216" lon="5.56515">
        <ele>611.06</ele>
        <time>2014-03-21T11:32:43Z</time>
      </trkpt>
      <trkpt lat="43.35221" lon="5.56504">
        <ele>611.06</ele>
        <time>2014-03-21T11:32:51Z</time>
      </trkpt>
      <trkpt lat="43.35227" lon="5.56495">
        <ele>610.57</ele>
        <time>2014-03-21T11:32:58Z</time>
      </trkpt>
      <trkpt lat="43.3523" lon="5.56488">
        <ele>610.57</ele>
        <time>2014-03-21T11:33:06Z</time>
      </trkpt>
      <trkpt lat="43.35231" lon="5.56483">
        <ele>610.57</ele>
        <time>2014-03-21T11:33:12Z</time>
      </trkpt>
      <trkpt lat="43.35237" lon="5.56471">
        <ele>610.57</ele>
        <time>2014-03-21T11:33:21Z</time>
      </trkpt>
      <trkpt lat="43.35241" lon="5.56461">
        <ele>610.57</ele>
        <time>2014-03-21T11:33:28Z</time>
      </trkpt>
      <trkpt lat="43.35245" lon="5.56453">
        <ele>610.09</ele>
        <time>2014-03-21T11:33:33Z</time>
      </trkpt>
      <trkpt lat="43.35246" lon="5.56449">
        <ele>610.09</ele>
        <time>2014-03-21T11:33:36Z</time>
      </trkpt>
      <trkpt lat="43.3525" lon="5.56442">
        <ele>609.61</ele>
        <time>2014-03-21T11:33:41Z</time>
      </trkpt>
      <trkpt lat="43.35254" lon="5.56426">
        <ele>609.61</ele>
        <time>2014-03-21T11:33:51Z</time>
      </trkpt>
      <trkpt lat="43.3526" lon="5.56414">
        <ele>609.13</ele>
        <time>2014-03-21T11:34:00Z</time>
      </trkpt>
      <trkpt lat="43.35273" lon="5.56402">
        <ele>609.61</ele>
        <time>2014-03-21T11:34:11Z</time>
      </trkpt>
      <trkpt lat="43.35284" lon="5.56393">
        <ele>609.61</ele>
        <time>2014-03-21T11:34:20Z</time>
      </trkpt>
      <trkpt lat="43.35294" lon="5.56395">
        <ele>611.06</ele>
        <time>2014-03-21T11:34:30Z</time>
      </trkpt>
      <trkpt lat="43.35296" lon="5.56395">
        <ele>611.06</ele>
        <time>2014-03-21T11:34:32Z</time>
      </trkpt>
      <trkpt lat="43.35298" lon="5.56399">
        <ele>612.02</ele>
        <time>2014-03-21T11:34:36Z</time>
      </trkpt>
      <trkpt lat="43.35307" lon="5.564">
        <ele>613.94</ele>
        <time>2014-03-21T11:34:46Z</time>
      </trkpt>
      <trkpt lat="43.35308" lon="5.564">
        <ele>613.94</ele>
        <time>2014-03-21T11:34:47Z</time>
      </trkpt>
      <trkpt lat="43.3532" lon="5.56395">
        <ele>614.9</ele>
        <time>2014-03-21T11:34:57Z</time>
      </trkpt>
      <trkpt lat="43.35323" lon="5.56394">
        <ele>614.9</ele>
        <time>2014-03-21T11:35:00Z</time>
      </trkpt>
      <trkpt lat="43.35333" lon="5.56383">
        <ele>614.42</ele>
        <time>2014-03-21T11:35:10Z</time>
      </trkpt>
      <trkpt lat="43.35337" lon="5.56376">
        <ele>613.94</ele>
        <time>2014-03-21T11:35:17Z</time>
      </trkpt>
      <trkpt lat="43.35342" lon="5.56372">
        <ele>613.46</ele>
        <time>2014-03-21T11:35:22Z</time>
      </trkpt>
      <trkpt lat="43.35345" lon="5.56366">
        <ele>613.46</ele>
        <time>2014-03-21T11:35:27Z</time>
      </trkpt>
      <trkpt lat="43.35343" lon="5.56343">
        <ele>612.02</ele>
        <time>2014-03-21T11:35:41Z</time>
      </trkpt>
      <trkpt lat="43.35343" lon="5.56342">
        <ele>611.54</ele>
        <time>2014-03-21T11:35:42Z</time>
      </trkpt>
      <trkpt lat="43.35342" lon="5.56331">
        <ele>611.06</ele>
        <time>2014-03-21T11:35:49Z</time>
      </trkpt>
      <trkpt lat="43.35341" lon="5.56328">
        <ele>611.06</ele>
        <time>2014-03-21T11:35:51Z</time>
      </trkpt>
      <trkpt lat="43.3534" lon="5.56326">
        <ele>611.06</ele>
        <time>2014-03-21T11:35:53Z</time>
      </trkpt>
      <trkpt lat="43.3534" lon="5.56312">
        <ele>610.09</ele>
        <time>2014-03-21T11:36:02Z</time>
      </trkpt>
      <trkpt lat="43.3534" lon="5.56309">
        <ele>609.61</ele>
        <time>2014-03-21T11:36:04Z</time>
      </trkpt>
      <trkpt lat="43.35341" lon="5.56299">
        <ele>609.61</ele>
        <time>2014-03-21T11:36:11Z</time>
      </trkpt>
      <trkpt lat="43.35342" lon="5.56287">
        <ele>609.13</ele>
        <time>2014-03-21T11:36:19Z</time>
      </trkpt>
      <trkpt lat="43.35346" lon="5.56271">
        <ele>608.17</ele>
        <time>2014-03-21T11:36:29Z</time>
      </trkpt>
      <trkpt lat="43.35346" lon="5.56267">
        <ele>608.17</ele>
        <time>2014-03-21T11:36:32Z</time>
      </trkpt>
      <trkpt lat="43.35348" lon="5.56254">
        <ele>607.21</ele>
        <time>2014-03-21T11:36:40Z</time>
      </trkpt>
      <trkpt lat="43.35349" lon="5.56248">
        <ele>607.21</ele>
        <time>2014-03-21T11:36:44Z</time>
      </trkpt>
      <trkpt lat="43.3535" lon="5.56238">
        <ele>606.25</ele>
        <time>2014-03-21T11:36:51Z</time>
      </trkpt>
      <trkpt lat="43.35351" lon="5.5623">
        <ele>606.25</ele>
        <time>2014-03-21T11:36:56Z</time>
      </trkpt>
      <trkpt lat="43.35353" lon="5.56224">
        <ele>605.77</ele>
        <time>2014-03-21T11:36:59Z</time>
      </trkpt>
      <trkpt lat="43.35353" lon="5.56222">
        <ele>605.77</ele>
        <time>2014-03-21T11:37:01Z</time>
      </trkpt>
      <trkpt lat="43.35354" lon="5.56218">
        <ele>605.29</ele>
        <time>2014-03-21T11:37:04Z</time>
      </trkpt>
      <trkpt lat="43.35354" lon="5.56212">
        <ele>604.81</ele>
        <time>2014-03-21T11:37:08Z</time>
      </trkpt>
      <trkpt lat="43.35356" lon="5.56201">
        <ele>604.33</ele>
        <time>2014-03-21T11:37:15Z</time>
      </trkpt>
      <trkpt lat="43.35359" lon="5.56191">
        <ele>603.85</ele>
        <time>2014-03-21T11:37:21Z</time>
      </trkpt>
      <trkpt lat="43.3536" lon="5.56184">
        <ele>603.36</ele>
        <time>2014-03-21T11:37:26Z</time>
      </trkpt>
      <trkpt lat="43.35363" lon="5.56169">
        <ele>602.4</ele>
        <time>2014-03-21T11:37:36Z</time>
      </trkpt>
      <trkpt lat="43.35365" lon="5.56162">
        <ele>601.92</ele>
        <time>2014-03-21T11:37:40Z</time>
      </trkpt>
      <trkpt lat="43.35367" lon="5.56154">
        <ele>601.44</ele>
        <time>2014-03-21T11:37:45Z</time>
      </trkpt>
      <trkpt lat="43.3537" lon="5.56141">
        <ele>600.48</ele>
        <time>2014-03-21T11:37:54Z</time>
      </trkpt>
      <trkpt lat="43.35373" lon="5.56134">
        <ele>600</ele>
        <time>2014-03-21T11:37:59Z</time>
      </trkpt>
      <trkpt lat="43.35378" lon="5.56125">
        <ele>598.56</ele>
        <time>2014-03-21T11:38:07Z</time>
      </trkpt>
      <trkpt lat="43.35379" lon="5.56123">
        <ele>598.08</ele>
        <time>2014-03-21T11:38:09Z</time>
      </trkpt>
      <trkpt lat="43.35384" lon="5.56112">
        <ele>597.12</ele>
        <time>2014-03-21T11:38:17Z</time>
      </trkpt>
      <trkpt lat="43.35384" lon="5.56103">
        <ele>596.64</ele>
        <time>2014-03-21T11:38:22Z</time>
      </trkpt>
      <trkpt lat="43.35386" lon="5.56098">
        <ele>595.67</ele>
        <time>2014-03-21T11:38:26Z</time>
      </trkpt>
      <trkpt lat="43.35387" lon="5.56093">
        <ele>595.67</ele>
        <time>2014-03-21T11:38:29Z</time>
      </trkpt>
      <trkpt lat="43.35388" lon="5.56085">
        <ele>595.19</ele>
        <time>2014-03-21T11:38:33Z</time>
      </trkpt>
      <trkpt lat="43.35389" lon="5.56082">
        <ele>594.71</ele>
        <time>2014-03-21T11:38:35Z</time>
      </trkpt>
      <trkpt lat="43.35387" lon="5.56067">
        <ele>594.23</ele>
        <time>2014-03-21T11:38:45Z</time>
      </trkpt>
      <trkpt lat="43.35386" lon="5.56062">
        <ele>593.75</ele>
        <time>2014-03-21T11:38:48Z</time>
      </trkpt>
      <trkpt lat="43.35385" lon="5.56056">
        <ele>593.75</ele>
        <time>2014-03-21T11:38:52Z</time>
      </trkpt>
      <trkpt lat="43.35385" lon="5.56037">
        <ele>592.79</ele>
        <time>2014-03-21T11:39:04Z</time>
      </trkpt>
      <trkpt lat="43.35386" lon="5.56021">
        <ele>592.79</ele>
        <time>2014-03-21T11:39:15Z</time>
      </trkpt>
      <trkpt lat="43.35386" lon="5.5602">
        <ele>592.31</ele>
        <time>2014-03-21T11:39:21Z</time>
      </trkpt>
      <trkpt lat="43.35398" lon="5.56009">
        <ele>591.35</ele>
        <time>2014-03-21T11:39:31Z</time>
      </trkpt>
      <trkpt lat="43.354" lon="5.56005">
        <ele>591.35</ele>
        <time>2014-03-21T11:39:35Z</time>
      </trkpt>
      <trkpt lat="43.35402" lon="5.56003">
        <ele>590.87</ele>
        <time>2014-03-21T11:39:37Z</time>
      </trkpt>
      <trkpt lat="43.35412" lon="5.55993">
        <ele>589.91</ele>
        <time>2014-03-21T11:39:47Z</time>
      </trkpt>
      <trkpt lat="43.35419" lon="5.55984">
        <ele>589.91</ele>
        <time>2014-03-21T11:39:55Z</time>
      </trkpt>
      <trkpt lat="43.35428" lon="5.55972">
        <ele>589.43</ele>
        <time>2014-03-21T11:40:05Z</time>
      </trkpt>
      <trkpt lat="43.35431" lon="5.55969">
        <ele>589.43</ele>
        <time>2014-03-21T11:40:08Z</time>
      </trkpt>
      <trkpt lat="43.35431" lon="5.55961">
        <ele>588.95</ele>
        <time>2014-03-21T11:40:18Z</time>
      </trkpt>
      <trkpt lat="43.35432" lon="5.55955">
        <ele>588.95</ele>
        <time>2014-03-21T11:40:29Z</time>
      </trkpt>
      <trkpt lat="43.35432" lon="5.55956">
        <ele>588.95</ele>
        <time>2014-03-21T11:40:43Z</time>
      </trkpt>
      <trkpt lat="43.35432" lon="5.55954">
        <ele>588.95</ele>
        <time>2014-03-21T11:40:53Z</time>
      </trkpt>
      <trkpt lat="43.35435" lon="5.55952">
        <ele>588.95</ele>
        <time>2014-03-21T11:40:59Z</time>
      </trkpt>
      <trkpt lat="43.35443" lon="5.55944">
        <ele>588.46</ele>
        <time>2014-03-21T11:41:07Z</time>
      </trkpt>
      <trkpt lat="43.35445" lon="5.55942">
        <ele>588.95</ele>
        <time>2014-03-21T11:41:10Z</time>
      </trkpt>
      <trkpt lat="43.35456" lon="5.5593">
        <ele>589.91</ele>
        <time>2014-03-21T11:41:21Z</time>
      </trkpt>
      <trkpt lat="43.35463" lon="5.55919">
        <ele>590.39</ele>
        <time>2014-03-21T11:41:30Z</time>
      </trkpt>
      <trkpt lat="43.35464" lon="5.55919">
        <ele>590.39</ele>
        <time>2014-03-21T11:41:31Z</time>
      </trkpt>
      <trkpt lat="43.35472" lon="5.55908">
        <ele>591.83</ele>
        <time>2014-03-21T11:41:41Z</time>
      </trkpt>
      <trkpt lat="43.35477" lon="5.55899">
        <ele>592.79</ele>
        <time>2014-03-21T11:41:48Z</time>
      </trkpt>
      <trkpt lat="43.35483" lon="5.55888">
        <ele>594.23</ele>
        <time>2014-03-21T11:41:58Z</time>
      </trkpt>
      <trkpt lat="43.35489" lon="5.55881">
        <ele>594.71</ele>
        <time>2014-03-21T11:42:05Z</time>
      </trkpt>
      <trkpt lat="43.35491" lon="5.55876">
        <ele>595.67</ele>
        <time>2014-03-21T11:42:09Z</time>
      </trkpt>
      <trkpt lat="43.35494" lon="5.55872">
        <ele>596.15</ele>
        <time>2014-03-21T11:42:13Z</time>
      </trkpt>
      <trkpt lat="43.35497" lon="5.55867">
        <ele>596.15</ele>
        <time>2014-03-21T11:42:17Z</time>
      </trkpt>
      <trkpt lat="43.355" lon="5.55863">
        <ele>596.64</ele>
        <time>2014-03-21T11:42:21Z</time>
      </trkpt>
      <trkpt lat="43.35502" lon="5.55858">
        <ele>597.12</ele>
        <time>2014-03-21T11:42:25Z</time>
      </trkpt>
      <trkpt lat="43.35506" lon="5.55853">
        <ele>597.6</ele>
        <time>2014-03-21T11:42:29Z</time>
      </trkpt>
      <trkpt lat="43.35508" lon="5.55845">
        <ele>597.6</ele>
        <time>2014-03-21T11:42:35Z</time>
      </trkpt>
      <trkpt lat="43.35516" lon="5.55834">
        <ele>598.56</ele>
        <time>2014-03-21T11:42:44Z</time>
      </trkpt>
      <trkpt lat="43.35518" lon="5.55832">
        <ele>598.56</ele>
        <time>2014-03-21T11:42:46Z</time>
      </trkpt>
      <trkpt lat="43.35519" lon="5.55828">
        <ele>599.04</ele>
        <time>2014-03-21T11:42:49Z</time>
      </trkpt>
      <trkpt lat="43.3552" lon="5.55823">
        <ele>599.04</ele>
        <time>2014-03-21T11:42:52Z</time>
      </trkpt>
      <trkpt lat="43.35519" lon="5.55809">
        <ele>600.48</ele>
        <time>2014-03-21T11:43:01Z</time>
      </trkpt>
      <trkpt lat="43.3552" lon="5.55804">
        <ele>600</ele>
        <time>2014-03-21T11:43:04Z</time>
      </trkpt>
      <trkpt lat="43.35517" lon="5.55795">
        <ele>600.48</ele>
        <time>2014-03-21T11:43:10Z</time>
      </trkpt>
      <trkpt lat="43.35517" lon="5.55787">
        <ele>600.96</ele>
        <time>2014-03-21T11:43:15Z</time>
      </trkpt>
      <trkpt lat="43.35516" lon="5.55782">
        <ele>600.96</ele>
        <time>2014-03-21T11:43:18Z</time>
      </trkpt>
      <trkpt lat="43.35513" lon="5.55774">
        <ele>601.92</ele>
        <time>2014-03-21T11:43:24Z</time>
      </trkpt>
      <trkpt lat="43.35511" lon="5.55758">
        <ele>602.4</ele>
        <time>2014-03-21T11:43:35Z</time>
      </trkpt>
      <trkpt lat="43.35513" lon="5.55749">
        <ele>603.85</ele>
        <time>2014-03-21T11:43:42Z</time>
      </trkpt>
      <trkpt lat="43.35521" lon="5.55742">
        <ele>605.29</ele>
        <time>2014-03-21T11:43:51Z</time>
      </trkpt>
      <trkpt lat="43.35531" lon="5.55739">
        <ele>606.25</ele>
        <time>2014-03-21T11:44:01Z</time>
      </trkpt>
      <trkpt lat="43.35531" lon="5.55738">
        <ele>606.25</ele>
        <time>2014-03-21T11:44:02Z</time>
      </trkpt>
      <trkpt lat="43.35534" lon="5.55733">
        <ele>607.21</ele>
        <time>2014-03-21T11:44:07Z</time>
      </trkpt>
      <trkpt lat="43.35534" lon="5.55729">
        <ele>607.21</ele>
        <time>2014-03-21T11:44:10Z</time>
      </trkpt>
      <trkpt lat="43.3553" lon="5.55722">
        <ele>608.65</ele>
        <time>2014-03-21T11:44:17Z</time>
      </trkpt>
      <trkpt lat="43.35529" lon="5.5572">
        <ele>609.13</ele>
        <time>2014-03-21T11:44:19Z</time>
      </trkpt>
      <trkpt lat="43.35525" lon="5.55716">
        <ele>609.61</ele>
        <time>2014-03-21T11:44:23Z</time>
      </trkpt>
      <trkpt lat="43.35525" lon="5.55709">
        <ele>610.57</ele>
        <time>2014-03-21T11:44:28Z</time>
      </trkpt>
      <trkpt lat="43.35524" lon="5.55703">
        <ele>610.57</ele>
        <time>2014-03-21T11:44:33Z</time>
      </trkpt>
      <trkpt lat="43.35529" lon="5.5569">
        <ele>611.54</ele>
        <time>2014-03-21T11:44:43Z</time>
      </trkpt>
      <trkpt lat="43.35536" lon="5.55687">
        <ele>612.02</ele>
        <time>2014-03-21T11:44:49Z</time>
      </trkpt>
      <trkpt lat="43.35538" lon="5.55688">
        <ele>612.5</ele>
        <time>2014-03-21T11:44:51Z</time>
      </trkpt>
      <trkpt lat="43.35549" lon="5.55687">
        <ele>613.94</ele>
        <time>2014-03-21T11:45:01Z</time>
      </trkpt>
      <trkpt lat="43.35554" lon="5.55686">
        <ele>614.42</ele>
        <time>2014-03-21T11:45:06Z</time>
      </trkpt>
      <trkpt lat="43.35563" lon="5.55677">
        <ele>615.38</ele>
        <time>2014-03-21T11:45:16Z</time>
      </trkpt>
      <trkpt lat="43.35566" lon="5.55674">
        <ele>615.86</ele>
        <time>2014-03-21T11:45:19Z</time>
      </trkpt>
      <trkpt lat="43.35568" lon="5.55673">
        <ele>615.86</ele>
        <time>2014-03-21T11:45:21Z</time>
      </trkpt>
      <trkpt lat="43.35571" lon="5.55666">
        <ele>616.82</ele>
        <time>2014-03-21T11:45:26Z</time>
      </trkpt>
      <trkpt lat="43.35574" lon="5.55664">
        <ele>617.3</ele>
        <time>2014-03-21T11:45:29Z</time>
      </trkpt>
      <trkpt lat="43.35578" lon="5.55657">
        <ele>617.78</ele>
        <time>2014-03-21T11:45:35Z</time>
      </trkpt>
      <trkpt lat="43.35585" lon="5.55647">
        <ele>619.23</ele>
        <time>2014-03-21T11:45:46Z</time>
      </trkpt>
      <trkpt lat="43.35585" lon="5.55646">
        <ele>619.23</ele>
        <time>2014-03-21T11:45:47Z</time>
      </trkpt>
      <trkpt lat="43.35592" lon="5.55634">
        <ele>621.15</ele>
        <time>2014-03-21T11:45:58Z</time>
      </trkpt>
      <trkpt lat="43.35594" lon="5.55629">
        <ele>622.11</ele>
        <time>2014-03-21T11:46:03Z</time>
      </trkpt>
      <trkpt lat="43.35598" lon="5.55615">
        <ele>623.07</ele>
        <time>2014-03-21T11:46:13Z</time>
      </trkpt>
      <trkpt lat="43.35599" lon="5.55611">
        <ele>623.55</ele>
        <time>2014-03-21T11:46:17Z</time>
      </trkpt>
      <trkpt lat="43.356" lon="5.55604">
        <ele>624.03</ele>
        <time>2014-03-21T11:46:21Z</time>
      </trkpt>
      <trkpt lat="43.35599" lon="5.55598">
        <ele>624.51</ele>
        <time>2014-03-21T11:46:25Z</time>
      </trkpt>
      <trkpt lat="43.356" lon="5.55593">
        <ele>624.99</ele>
        <time>2014-03-21T11:46:29Z</time>
      </trkpt>
      <trkpt lat="43.35597" lon="5.55585">
        <ele>625.47</ele>
        <time>2014-03-21T11:46:34Z</time>
      </trkpt>
      <trkpt lat="43.35598" lon="5.5558">
        <ele>625.96</ele>
        <time>2014-03-21T11:46:38Z</time>
      </trkpt>
      <trkpt lat="43.35597" lon="5.55575">
        <ele>626.44</ele>
        <time>2014-03-21T11:46:41Z</time>
      </trkpt>
      <trkpt lat="43.35597" lon="5.55564">
        <ele>626.44</ele>
        <time>2014-03-21T11:46:48Z</time>
      </trkpt>
      <trkpt lat="43.35593" lon="5.55548">
        <ele>626.92</ele>
        <time>2014-03-21T11:46:58Z</time>
      </trkpt>
      <trkpt lat="43.35589" lon="5.55532">
        <ele>626.92</ele>
        <time>2014-03-21T11:47:09Z</time>
      </trkpt>
      <trkpt lat="43.35588" lon="5.55523">
        <ele>626.92</ele>
        <time>2014-03-21T11:47:14Z</time>
      </trkpt>
      <trkpt lat="43.35585" lon="5.55513">
        <ele>626.92</ele>
        <time>2014-03-21T11:47:20Z</time>
      </trkpt>
      <trkpt lat="43.35583" lon="5.55496">
        <ele>626.92</ele>
        <time>2014-03-21T11:47:31Z</time>
      </trkpt>
      <trkpt lat="43.3558" lon="5.5548">
        <ele>625.96</ele>
        <time>2014-03-21T11:47:41Z</time>
      </trkpt>
      <trkpt lat="43.35573" lon="5.55462">
        <ele>624.51</ele>
        <time>2014-03-21T11:47:52Z</time>
      </trkpt>
      <trkpt lat="43.35569" lon="5.55447">
        <ele>623.55</ele>
        <time>2014-03-21T11:48:02Z</time>
      </trkpt>
      <trkpt lat="43.35558" lon="5.55432">
        <ele>622.59</ele>
        <time>2014-03-21T11:48:13Z</time>
      </trkpt>
      <trkpt lat="43.35547" lon="5.55423">
        <ele>622.59</ele>
        <time>2014-03-21T11:48:23Z</time>
      </trkpt>
      <trkpt lat="43.35535" lon="5.55414">
        <ele>622.11</ele>
        <time>2014-03-21T11:48:33Z</time>
      </trkpt>
      <trkpt lat="43.35524" lon="5.55404">
        <ele>621.63</ele>
        <time>2014-03-21T11:48:43Z</time>
      </trkpt>
      <trkpt lat="43.3552" lon="5.55399">
        <ele>621.15</ele>
        <time>2014-03-21T11:48:47Z</time>
      </trkpt>
      <trkpt lat="43.35515" lon="5.55381">
        <ele>620.19</ele>
        <time>2014-03-21T11:48:58Z</time>
      </trkpt>
      <trkpt lat="43.3551" lon="5.55366">
        <ele>619.23</ele>
        <time>2014-03-21T11:49:09Z</time>
      </trkpt>
      <trkpt lat="43.35509" lon="5.55347">
        <ele>618.75</ele>
        <time>2014-03-21T11:49:20Z</time>
      </trkpt>
      <trkpt lat="43.35506" lon="5.55336">
        <ele>618.75</ele>
        <time>2014-03-21T11:49:27Z</time>
      </trkpt>
      <trkpt lat="43.35503" lon="5.55325">
        <ele>618.75</ele>
        <time>2014-03-21T11:49:35Z</time>
      </trkpt>
      <trkpt lat="43.35499" lon="5.55319">
        <ele>619.71</ele>
        <time>2014-03-21T11:49:40Z</time>
      </trkpt>
      <trkpt lat="43.35498" lon="5.55318">
        <ele>619.71</ele>
        <time>2014-03-21T11:49:42Z</time>
      </trkpt>
      <trkpt lat="43.35493" lon="5.5531">
        <ele>620.19</ele>
        <time>2014-03-21T11:49:52Z</time>
      </trkpt>
      <trkpt lat="43.3549" lon="5.55303">
        <ele>621.15</ele>
        <time>2014-03-21T11:50:04Z</time>
      </trkpt>
      <trkpt lat="43.35483" lon="5.55293">
        <ele>622.11</ele>
        <time>2014-03-21T11:50:13Z</time>
      </trkpt>
      <trkpt lat="43.35474" lon="5.55285">
        <ele>623.55</ele>
        <time>2014-03-21T11:50:22Z</time>
      </trkpt>
      <trkpt lat="43.35464" lon="5.55276">
        <ele>624.03</ele>
        <time>2014-03-21T11:50:32Z</time>
      </trkpt>
      <trkpt lat="43.35451" lon="5.5527">
        <ele>624.99</ele>
        <time>2014-03-21T11:50:44Z</time>
      </trkpt>
      <trkpt lat="43.35448" lon="5.55268">
        <ele>625.96</ele>
        <time>2014-03-21T11:50:48Z</time>
      </trkpt>
      <trkpt lat="43.35436" lon="5.55266">
        <ele>626.92</ele>
        <time>2014-03-21T11:51:00Z</time>
      </trkpt>
      <trkpt lat="43.35423" lon="5.55264">
        <ele>627.88</ele>
        <time>2014-03-21T11:51:12Z</time>
      </trkpt>
      <trkpt lat="43.35413" lon="5.55264">
        <ele>628.84</ele>
        <time>2014-03-21T11:51:21Z</time>
      </trkpt>
      <trkpt lat="43.35407" lon="5.55262">
        <ele>629.32</ele>
        <time>2014-03-21T11:51:26Z</time>
      </trkpt>
      <trkpt lat="43.35401" lon="5.55259">
        <ele>630.28</ele>
        <time>2014-03-21T11:51:33Z</time>
      </trkpt>
      <trkpt lat="43.35397" lon="5.55256">
        <ele>630.28</ele>
        <time>2014-03-21T11:51:37Z</time>
      </trkpt>
      <trkpt lat="43.35395" lon="5.55253">
        <ele>630.28</ele>
        <time>2014-03-21T11:51:40Z</time>
      </trkpt>
      <trkpt lat="43.35385" lon="5.5524">
        <ele>632.2</ele>
        <time>2014-03-21T11:51:53Z</time>
      </trkpt>
      <trkpt lat="43.35379" lon="5.55232">
        <ele>632.68</ele>
        <time>2014-03-21T11:52:00Z</time>
      </trkpt>
      <trkpt lat="43.3537" lon="5.55225">
        <ele>633.17</ele>
        <time>2014-03-21T11:52:09Z</time>
      </trkpt>
      <trkpt lat="43.35361" lon="5.55215">
        <ele>633.65</ele>
        <time>2014-03-21T11:52:19Z</time>
      </trkpt>
      <trkpt lat="43.35351" lon="5.55205">
        <ele>634.13</ele>
        <time>2014-03-21T11:52:29Z</time>
      </trkpt>
      <trkpt lat="43.3534" lon="5.55194">
        <ele>634.61</ele>
        <time>2014-03-21T11:52:39Z</time>
      </trkpt>
      <trkpt lat="43.3533" lon="5.55182">
        <ele>634.61</ele>
        <time>2014-03-21T11:52:50Z</time>
      </trkpt>
      <trkpt lat="43.35329" lon="5.55178">
        <ele>634.61</ele>
        <time>2014-03-21T11:52:53Z</time>
      </trkpt>
      <trkpt lat="43.35327" lon="5.5517">
        <ele>635.09</ele>
        <time>2014-03-21T11:52:58Z</time>
      </trkpt>
      <trkpt lat="43.3532" lon="5.55158">
        <ele>635.09</ele>
        <time>2014-03-21T11:53:06Z</time>
      </trkpt>
      <trkpt lat="43.35319" lon="5.5515">
        <ele>635.57</ele>
        <time>2014-03-21T11:53:11Z</time>
      </trkpt>
      <trkpt lat="43.35316" lon="5.55139">
        <ele>635.57</ele>
        <time>2014-03-21T11:53:18Z</time>
      </trkpt>
      <trkpt lat="43.35317" lon="5.55122">
        <ele>636.05</ele>
        <time>2014-03-21T11:53:29Z</time>
      </trkpt>
      <trkpt lat="43.35317" lon="5.55114">
        <ele>636.53</ele>
        <time>2014-03-21T11:53:35Z</time>
      </trkpt>
      <trkpt lat="43.35317" lon="5.55101">
        <ele>636.53</ele>
        <time>2014-03-21T11:53:42Z</time>
      </trkpt>
      <trkpt lat="43.35321" lon="5.55084">
        <ele>637.01</ele>
        <time>2014-03-21T11:53:52Z</time>
      </trkpt>
      <trkpt lat="43.35322" lon="5.55077">
        <ele>637.97</ele>
        <time>2014-03-21T11:53:58Z</time>
      </trkpt>
      <trkpt lat="43.35326" lon="5.55063">
        <ele>638.45</ele>
        <time>2014-03-21T11:54:08Z</time>
      </trkpt>
      <trkpt lat="43.35329" lon="5.5505">
        <ele>639.41</ele>
        <time>2014-03-21T11:54:18Z</time>
      </trkpt>
      <trkpt lat="43.35331" lon="5.55049">
        <ele>639.41</ele>
        <time>2014-03-21T11:54:20Z</time>
      </trkpt>
      <trkpt lat="43.35336" lon="5.5504">
        <ele>639.89</ele>
        <time>2014-03-21T11:54:27Z</time>
      </trkpt>
      <trkpt lat="43.35339" lon="5.55037">
        <ele>640.38</ele>
        <time>2014-03-21T11:54:30Z</time>
      </trkpt>
      <trkpt lat="43.35342" lon="5.5503">
        <ele>640.86</ele>
        <time>2014-03-21T11:54:36Z</time>
      </trkpt>
      <trkpt lat="43.35346" lon="5.55026">
        <ele>641.34</ele>
        <time>2014-03-21T11:54:40Z</time>
      </trkpt>
      <trkpt lat="43.35352" lon="5.55012">
        <ele>642.3</ele>
        <time>2014-03-21T11:54:52Z</time>
      </trkpt>
      <trkpt lat="43.35352" lon="5.55008">
        <ele>642.3</ele>
        <time>2014-03-21T11:54:55Z</time>
      </trkpt>
      <trkpt lat="43.35351" lon="5.55005">
        <ele>642.3</ele>
        <time>2014-03-21T11:54:57Z</time>
      </trkpt>
      <trkpt lat="43.35349" lon="5.55003">
        <ele>642.78</ele>
        <time>2014-03-21T11:54:59Z</time>
      </trkpt>
      <trkpt lat="43.35338" lon="5.54991">
        <ele>642.78</ele>
        <time>2014-03-21T11:55:10Z</time>
      </trkpt>
      <trkpt lat="43.35329" lon="5.54978">
        <ele>641.82</ele>
        <time>2014-03-21T11:55:21Z</time>
      </trkpt>
      <trkpt lat="43.35327" lon="5.54976">
        <ele>641.82</ele>
        <time>2014-03-21T11:55:23Z</time>
      </trkpt>
      <trkpt lat="43.35325" lon="5.54958">
        <ele>641.82</ele>
        <time>2014-03-21T11:55:34Z</time>
      </trkpt>
      <trkpt lat="43.35324" lon="5.54954">
        <ele>642.3</ele>
        <time>2014-03-21T11:55:37Z</time>
      </trkpt>
      <trkpt lat="43.35324" lon="5.54941">
        <ele>643.26</ele>
        <time>2014-03-21T11:55:46Z</time>
      </trkpt>
      <trkpt lat="43.35322" lon="5.54929">
        <ele>643.74</ele>
        <time>2014-03-21T11:55:53Z</time>
      </trkpt>
      <trkpt lat="43.35322" lon="5.54919">
        <ele>644.22</ele>
        <time>2014-03-21T11:56:00Z</time>
      </trkpt>
      <trkpt lat="43.35322" lon="5.54915">
        <ele>644.7</ele>
        <time>2014-03-21T11:56:03Z</time>
      </trkpt>
      <trkpt lat="43.35322" lon="5.54902">
        <ele>645.66</ele>
        <time>2014-03-21T11:56:12Z</time>
      </trkpt>
      <trkpt lat="43.35322" lon="5.5489">
        <ele>647.1</ele>
        <time>2014-03-21T11:56:20Z</time>
      </trkpt>
      <trkpt lat="43.35321" lon="5.54875">
        <ele>648.07</ele>
        <time>2014-03-21T11:56:30Z</time>
      </trkpt>
      <trkpt lat="43.35319" lon="5.54861">
        <ele>649.51</ele>
        <time>2014-03-21T11:56:39Z</time>
      </trkpt>
      <trkpt lat="43.35317" lon="5.54847">
        <ele>650.95</ele>
        <time>2014-03-21T11:56:49Z</time>
      </trkpt>
      <trkpt lat="43.35315" lon="5.54836">
        <ele>651.43</ele>
        <time>2014-03-21T11:56:57Z</time>
      </trkpt>
      <trkpt lat="43.35313" lon="5.5483">
        <ele>652.39</ele>
        <time>2014-03-21T11:57:02Z</time>
      </trkpt>
      <trkpt lat="43.35311" lon="5.54828">
        <ele>652.39</ele>
        <time>2014-03-21T11:57:14Z</time>
      </trkpt>
      <trkpt lat="43.35308" lon="5.54816">
        <ele>653.35</ele>
        <time>2014-03-21T11:57:23Z</time>
      </trkpt>
      <trkpt lat="43.35304" lon="5.54807">
        <ele>653.83</ele>
        <time>2014-03-21T11:57:30Z</time>
      </trkpt>
      <trkpt lat="43.35297" lon="5.54789">
        <ele>654.8</ele>
        <time>2014-03-21T11:57:43Z</time>
      </trkpt>
      <trkpt lat="43.35292" lon="5.54775">
        <ele>656.24</ele>
        <time>2014-03-21T11:57:54Z</time>
      </trkpt>
      <trkpt lat="43.3529" lon="5.54766">
        <ele>656.72</ele>
        <time>2014-03-21T11:58:01Z</time>
      </trkpt>
      <trkpt lat="43.35289" lon="5.54763">
        <ele>656.72</ele>
        <time>2014-03-21T11:58:04Z</time>
      </trkpt>
      <trkpt lat="43.35285" lon="5.54752">
        <ele>656.72</ele>
        <time>2014-03-21T11:58:13Z</time>
      </trkpt>
      <trkpt lat="43.35285" lon="5.54749">
        <ele>656.72</ele>
        <time>2014-03-21T11:58:16Z</time>
      </trkpt>
      <trkpt lat="43.35284" lon="5.54743">
        <ele>656.24</ele>
        <time>2014-03-21T11:58:26Z</time>
      </trkpt>
      <trkpt lat="43.35285" lon="5.54744">
        <ele>656.72</ele>
        <time>2014-03-21T11:58:40Z</time>
      </trkpt>
      <trkpt lat="43.35285" lon="5.54745">
        <ele>656.72</ele>
        <time>2014-03-21T11:59:02Z</time>
      </trkpt>
      <trkpt lat="43.35286" lon="5.54745">
        <ele>656.24</ele>
        <time>2014-03-21T11:59:19Z</time>
      </trkpt>
      <trkpt lat="43.35285" lon="5.54745">
        <ele>656.72</ele>
        <time>2014-03-21T11:59:32Z</time>
      </trkpt>
      <trkpt lat="43.35279" lon="5.54732">
        <ele>656.24</ele>
        <time>2014-03-21T11:59:42Z</time>
      </trkpt>
      <trkpt lat="43.35274" lon="5.54717">
        <ele>656.24</ele>
        <time>2014-03-21T11:59:52Z</time>
      </trkpt>
      <trkpt lat="43.35271" lon="5.54712">
        <ele>656.24</ele>
        <time>2014-03-21T11:59:56Z</time>
      </trkpt>
      <trkpt lat="43.35264" lon="5.54698">
        <ele>656.24</ele>
        <time>2014-03-21T12:00:06Z</time>
      </trkpt>
      <trkpt lat="43.35257" lon="5.54683">
        <ele>656.24</ele>
        <time>2014-03-21T12:00:17Z</time>
      </trkpt>
      <trkpt lat="43.35257" lon="5.54682">
        <ele>656.24</ele>
        <time>2014-03-21T12:00:18Z</time>
      </trkpt>
      <trkpt lat="43.35248" lon="5.54665">
        <ele>655.76</ele>
        <time>2014-03-21T12:00:31Z</time>
      </trkpt>
      <trkpt lat="43.35245" lon="5.54655">
        <ele>655.76</ele>
        <time>2014-03-21T12:00:38Z</time>
      </trkpt>
      <trkpt lat="43.35244" lon="5.54648">
        <ele>655.76</ele>
        <time>2014-03-21T12:00:42Z</time>
      </trkpt>
      <trkpt lat="43.35236" lon="5.54633">
        <ele>655.28</ele>
        <time>2014-03-21T12:00:53Z</time>
      </trkpt>
      <trkpt lat="43.35235" lon="5.54632">
        <ele>655.28</ele>
        <time>2014-03-21T12:00:54Z</time>
      </trkpt>
      <trkpt lat="43.35229" lon="5.54618">
        <ele>655.28</ele>
        <time>2014-03-21T12:01:05Z</time>
      </trkpt>
      <trkpt lat="43.35225" lon="5.54613">
        <ele>655.28</ele>
        <time>2014-03-21T12:01:14Z</time>
      </trkpt>
      <trkpt lat="43.35225" lon="5.54612">
        <ele>655.28</ele>
        <time>2014-03-21T12:01:28Z</time>
      </trkpt>
      <trkpt lat="43.35225" lon="5.54613">
        <ele>655.28</ele>
        <time>2014-03-21T12:01:50Z</time>
      </trkpt>
      <trkpt lat="43.35225" lon="5.54612">
        <ele>655.28</ele>
        <time>2014-03-21T12:02:11Z</time>
      </trkpt>
      <trkpt lat="43.35225" lon="5.54613">
        <ele>655.28</ele>
        <time>2014-03-21T12:02:30Z</time>
      </trkpt>
      <trkpt lat="43.35225" lon="5.54614">
        <ele>655.28</ele>
        <time>2014-03-21T12:02:31Z</time>
      </trkpt>
      <trkpt lat="43.35229" lon="5.54622">
        <ele>655.76</ele>
        <time>2014-03-21T12:02:38Z</time>
      </trkpt>
      <trkpt lat="43.35237" lon="5.54634">
        <ele>655.28</ele>
        <time>2014-03-21T12:02:48Z</time>
      </trkpt>
      <trkpt lat="43.35243" lon="5.54651">
        <ele>655.76</ele>
        <time>2014-03-21T12:02:59Z</time>
      </trkpt>
      <trkpt lat="43.35248" lon="5.54658">
        <ele>655.76</ele>
        <time>2014-03-21T12:03:05Z</time>
      </trkpt>
      <trkpt lat="43.35253" lon="5.54665">
        <ele>656.24</ele>
        <time>2014-03-21T12:03:11Z</time>
      </trkpt>
      <trkpt lat="43.35255" lon="5.54671">
        <ele>656.24</ele>
        <time>2014-03-21T12:03:15Z</time>
      </trkpt>
      <trkpt lat="43.35262" lon="5.54693">
        <ele>656.24</ele>
        <time>2014-03-21T12:03:28Z</time>
      </trkpt>
      <trkpt lat="43.35269" lon="5.54707">
        <ele>656.24</ele>
        <time>2014-03-21T12:03:38Z</time>
      </trkpt>
      <trkpt lat="43.35277" lon="5.54724">
        <ele>656.24</ele>
        <time>2014-03-21T12:03:50Z</time>
      </trkpt>
      <trkpt lat="43.3528" lon="5.5473">
        <ele>656.24</ele>
        <time>2014-03-21T12:03:54Z</time>
      </trkpt>
      <trkpt lat="43.35283" lon="5.54748">
        <ele>656.72</ele>
        <time>2014-03-21T12:04:05Z</time>
      </trkpt>
      <trkpt lat="43.35285" lon="5.54751">
        <ele>656.72</ele>
        <time>2014-03-21T12:04:07Z</time>
      </trkpt>
      <trkpt lat="43.3529" lon="5.54764">
        <ele>657.2</ele>
        <time>2014-03-21T12:04:17Z</time>
      </trkpt>
      <trkpt lat="43.35288" lon="5.5477">
        <ele>657.2</ele>
        <time>2014-03-21T12:04:21Z</time>
      </trkpt>
      <trkpt lat="43.35278" lon="5.54781">
        <ele>656.72</ele>
        <time>2014-03-21T12:04:31Z</time>
      </trkpt>
      <trkpt lat="43.35275" lon="5.54788">
        <ele>655.28</ele>
        <time>2014-03-21T12:04:36Z</time>
      </trkpt>
      <trkpt lat="43.3527" lon="5.54793">
        <ele>654.31</ele>
        <time>2014-03-21T12:04:41Z</time>
      </trkpt>
      <trkpt lat="43.35267" lon="5.54796">
        <ele>653.83</ele>
        <time>2014-03-21T12:04:44Z</time>
      </trkpt>
      <trkpt lat="43.35266" lon="5.54799">
        <ele>653.35</ele>
        <time>2014-03-21T12:04:46Z</time>
      </trkpt>
      <trkpt lat="43.35265" lon="5.54801">
        <ele>652.87</ele>
        <time>2014-03-21T12:04:48Z</time>
      </trkpt>
      <trkpt lat="43.35263" lon="5.54807">
        <ele>650.95</ele>
        <time>2014-03-21T12:04:56Z</time>
      </trkpt>
      <trkpt lat="43.35261" lon="5.54816">
        <ele>648.55</ele>
        <time>2014-03-21T12:05:04Z</time>
      </trkpt>
      <trkpt lat="43.3526" lon="5.54816">
        <ele>648.55</ele>
        <time>2014-03-21T12:05:05Z</time>
      </trkpt>
      <trkpt lat="43.35255" lon="5.5482">
        <ele>648.07</ele>
        <time>2014-03-21T12:05:10Z</time>
      </trkpt>
      <trkpt lat="43.35252" lon="5.54828">
        <ele>646.62</ele>
        <time>2014-03-21T12:05:15Z</time>
      </trkpt>
      <trkpt lat="43.35251" lon="5.54833">
        <ele>645.66</ele>
        <time>2014-03-21T12:05:18Z</time>
      </trkpt>
      <trkpt lat="43.3525" lon="5.54836">
        <ele>644.7</ele>
        <time>2014-03-21T12:05:20Z</time>
      </trkpt>
      <trkpt lat="43.35245" lon="5.54844">
        <ele>643.74</ele>
        <time>2014-03-21T12:05:26Z</time>
      </trkpt>
      <trkpt lat="43.35236" lon="5.5485">
        <ele>643.26</ele>
        <time>2014-03-21T12:05:34Z</time>
      </trkpt>
      <trkpt lat="43.3523" lon="5.5486">
        <ele>641.82</ele>
        <time>2014-03-21T12:05:42Z</time>
      </trkpt>
      <trkpt lat="43.35221" lon="5.54863">
        <ele>640.86</ele>
        <time>2014-03-21T12:05:49Z</time>
      </trkpt>
      <trkpt lat="43.3521" lon="5.54873">
        <ele>639.41</ele>
        <time>2014-03-21T12:06:00Z</time>
      </trkpt>
      <trkpt lat="43.3521" lon="5.54874">
        <ele>638.93</ele>
        <time>2014-03-21T12:06:01Z</time>
      </trkpt>
      <trkpt lat="43.35198" lon="5.54881">
        <ele>638.45</ele>
        <time>2014-03-21T12:06:11Z</time>
      </trkpt>
      <trkpt lat="43.35193" lon="5.54877">
        <ele>637.97</ele>
        <time>2014-03-21T12:06:16Z</time>
      </trkpt>
      <trkpt lat="43.3518" lon="5.54877">
        <ele>636.05</ele>
        <time>2014-03-21T12:06:26Z</time>
      </trkpt>
      <trkpt lat="43.35178" lon="5.54881">
        <ele>635.57</ele>
        <time>2014-03-21T12:06:30Z</time>
      </trkpt>
      <trkpt lat="43.3517" lon="5.54882">
        <ele>634.13</ele>
        <time>2014-03-21T12:06:37Z</time>
      </trkpt>
      <trkpt lat="43.35161" lon="5.54872">
        <ele>633.17</ele>
        <time>2014-03-21T12:06:46Z</time>
      </trkpt>
      <trkpt lat="43.35153" lon="5.54867">
        <ele>632.68</ele>
        <time>2014-03-21T12:06:51Z</time>
      </trkpt>
      <trkpt lat="43.35142" lon="5.54876">
        <ele>631.72</ele>
        <time>2014-03-21T12:07:02Z</time>
      </trkpt>
      <trkpt lat="43.35139" lon="5.5488">
        <ele>632.2</ele>
        <time>2014-03-21T12:07:06Z</time>
      </trkpt>
      <trkpt lat="43.35137" lon="5.54888">
        <ele>632.68</ele>
        <time>2014-03-21T12:07:10Z</time>
      </trkpt>
      <trkpt lat="43.3513" lon="5.549">
        <ele>633.65</ele>
        <time>2014-03-21T12:07:21Z</time>
      </trkpt>
      <trkpt lat="43.3513" lon="5.54901">
        <ele>634.13</ele>
        <time>2014-03-21T12:07:29Z</time>
      </trkpt>
      <trkpt lat="43.35132" lon="5.54906">
        <ele>633.65</ele>
        <time>2014-03-21T12:07:32Z</time>
      </trkpt>
      <trkpt lat="43.35134" lon="5.54924">
        <ele>634.13</ele>
        <time>2014-03-21T12:07:43Z</time>
      </trkpt>
      <trkpt lat="43.35132" lon="5.54931">
        <ele>634.61</ele>
        <time>2014-03-21T12:07:48Z</time>
      </trkpt>
      <trkpt lat="43.35128" lon="5.54947">
        <ele>635.09</ele>
        <time>2014-03-21T12:07:58Z</time>
      </trkpt>
      <trkpt lat="43.35125" lon="5.54951">
        <ele>635.57</ele>
        <time>2014-03-21T12:08:02Z</time>
      </trkpt>
      <trkpt lat="43.35118" lon="5.5496">
        <ele>636.05</ele>
        <time>2014-03-21T12:08:11Z</time>
      </trkpt>
      <trkpt lat="43.35111" lon="5.54966">
        <ele>637.49</ele>
        <time>2014-03-21T12:08:20Z</time>
      </trkpt>
      <trkpt lat="43.35104" lon="5.54971">
        <ele>637.97</ele>
        <time>2014-03-21T12:08:29Z</time>
      </trkpt>
      <trkpt lat="43.35103" lon="5.54972">
        <ele>637.97</ele>
        <time>2014-03-21T12:08:41Z</time>
      </trkpt>
      <trkpt lat="43.35103" lon="5.54972">
        <ele>638.45</ele>
        <time>2014-03-21T12:08:57Z</time>
      </trkpt>
      <trkpt lat="43.35101" lon="5.54971">
        <ele>638.45</ele>
        <time>2014-03-21T12:09:11Z</time>
      </trkpt>
      <trkpt lat="43.35103" lon="5.54974">
        <ele>638.45</ele>
        <time>2014-03-21T12:09:20Z</time>
      </trkpt>
      <trkpt lat="43.35104" lon="5.54974">
        <ele>638.45</ele>
        <time>2014-03-21T12:09:21Z</time>
      </trkpt>
      <trkpt lat="43.35104" lon="5.54972">
        <ele>637.97</ele>
        <time>2014-03-21T12:09:33Z</time>
      </trkpt>
      <trkpt lat="43.35106" lon="5.5497">
        <ele>637.97</ele>
        <time>2014-03-21T12:09:37Z</time>
      </trkpt>
      <trkpt lat="43.35114" lon="5.54966">
        <ele>637.49</ele>
        <time>2014-03-21T12:09:47Z</time>
      </trkpt>
      <trkpt lat="43.35121" lon="5.54961">
        <ele>636.53</ele>
        <time>2014-03-21T12:09:55Z</time>
      </trkpt>
      <trkpt lat="43.35123" lon="5.54957">
        <ele>636.05</ele>
        <time>2014-03-21T12:09:59Z</time>
      </trkpt>
      <trkpt lat="43.35129" lon="5.54948">
        <ele>635.57</ele>
        <time>2014-03-21T12:10:06Z</time>
      </trkpt>
      <trkpt lat="43.35135" lon="5.54932">
        <ele>634.61</ele>
        <time>2014-03-21T12:10:17Z</time>
      </trkpt>
      <trkpt lat="43.35136" lon="5.54913">
        <ele>634.13</ele>
        <time>2014-03-21T12:10:29Z</time>
      </trkpt>
      <trkpt lat="43.35137" lon="5.54899">
        <ele>633.65</ele>
        <time>2014-03-21T12:10:37Z</time>
      </trkpt>
      <trkpt lat="43.35139" lon="5.54886">
        <ele>633.17</ele>
        <time>2014-03-21T12:10:45Z</time>
      </trkpt>
      <trkpt lat="43.35145" lon="5.54879">
        <ele>631.72</ele>
        <time>2014-03-21T12:10:51Z</time>
      </trkpt>
      <trkpt lat="43.35152" lon="5.54874">
        <ele>632.2</ele>
        <time>2014-03-21T12:10:58Z</time>
      </trkpt>
      <trkpt lat="43.35163" lon="5.54876">
        <ele>632.68</ele>
        <time>2014-03-21T12:11:08Z</time>
      </trkpt>
      <trkpt lat="43.35167" lon="5.54881">
        <ele>633.65</ele>
        <time>2014-03-21T12:11:17Z</time>
      </trkpt>
      <trkpt lat="43.35176" lon="5.5489">
        <ele>634.61</ele>
        <time>2014-03-21T12:11:27Z</time>
      </trkpt>
      <trkpt lat="43.35177" lon="5.54895">
        <ele>635.09</ele>
        <time>2014-03-21T12:11:30Z</time>
      </trkpt>
      <trkpt lat="43.35185" lon="5.54909">
        <ele>636.05</ele>
        <time>2014-03-21T12:11:42Z</time>
      </trkpt>
      <trkpt lat="43.35187" lon="5.54914">
        <ele>636.05</ele>
        <time>2014-03-21T12:11:46Z</time>
      </trkpt>
      <trkpt lat="43.35201" lon="5.54921">
        <ele>637.01</ele>
        <time>2014-03-21T12:11:58Z</time>
      </trkpt>
      <trkpt lat="43.35202" lon="5.54922">
        <ele>637.01</ele>
        <time>2014-03-21T12:11:59Z</time>
      </trkpt>
      <trkpt lat="43.35213" lon="5.54924">
        <ele>637.49</ele>
        <time>2014-03-21T12:12:09Z</time>
      </trkpt>
      <trkpt lat="43.35222" lon="5.54925">
        <ele>637.49</ele>
        <time>2014-03-21T12:12:16Z</time>
      </trkpt>
      <trkpt lat="43.35234" lon="5.5492">
        <ele>637.97</ele>
        <time>2014-03-21T12:12:26Z</time>
      </trkpt>
      <trkpt lat="43.35246" lon="5.54916">
        <ele>638.93</ele>
        <time>2014-03-21T12:12:37Z</time>
      </trkpt>
      <trkpt lat="43.35256" lon="5.54911">
        <ele>639.41</ele>
        <time>2014-03-21T12:12:46Z</time>
      </trkpt>
      <trkpt lat="43.35264" lon="5.54907">
        <ele>640.38</ele>
        <time>2014-03-21T12:12:53Z</time>
      </trkpt>
      <trkpt lat="43.3527" lon="5.54909">
        <ele>640.38</ele>
        <time>2014-03-21T12:12:58Z</time>
      </trkpt>
      <trkpt lat="43.3528" lon="5.54913">
        <ele>641.34</ele>
        <time>2014-03-21T12:13:08Z</time>
      </trkpt>
      <trkpt lat="43.35281" lon="5.54913">
        <ele>641.34</ele>
        <time>2014-03-21T12:13:09Z</time>
      </trkpt>
      <trkpt lat="43.3529" lon="5.54921">
        <ele>642.3</ele>
        <time>2014-03-21T12:13:19Z</time>
      </trkpt>
      <trkpt lat="43.35292" lon="5.54924">
        <ele>642.3</ele>
        <time>2014-03-21T12:13:22Z</time>
      </trkpt>
      <trkpt lat="43.35297" lon="5.54926">
        <ele>642.78</ele>
        <time>2014-03-21T12:13:26Z</time>
      </trkpt>
      <trkpt lat="43.35304" lon="5.54939">
        <ele>642.78</ele>
        <time>2014-03-21T12:13:36Z</time>
      </trkpt>
      <trkpt lat="43.35306" lon="5.54943">
        <ele>642.78</ele>
        <time>2014-03-21T12:13:39Z</time>
      </trkpt>
      <trkpt lat="43.35313" lon="5.54952">
        <ele>643.26</ele>
        <time>2014-03-21T12:13:48Z</time>
      </trkpt>
      <trkpt lat="43.35316" lon="5.54956">
        <ele>643.26</ele>
        <time>2014-03-21T12:13:55Z</time>
      </trkpt>
      <trkpt lat="43.35322" lon="5.54955">
        <ele>643.74</ele>
        <time>2014-03-21T12:14:00Z</time>
      </trkpt>
      <trkpt lat="43.35322" lon="5.54951">
        <ele>644.22</ele>
        <time>2014-03-21T12:14:09Z</time>
      </trkpt>
      <trkpt lat="43.35323" lon="5.54947">
        <ele>644.22</ele>
        <time>2014-03-21T12:14:20Z</time>
      </trkpt>
      <trkpt lat="43.35323" lon="5.54945">
        <ele>644.22</ele>
        <time>2014-03-21T12:14:22Z</time>
      </trkpt>
      <trkpt lat="43.35321" lon="5.54928">
        <ele>645.66</ele>
        <time>2014-03-21T12:14:33Z</time>
      </trkpt>
      <trkpt lat="43.35321" lon="5.54926">
        <ele>645.66</ele>
        <time>2014-03-21T12:14:34Z</time>
      </trkpt>
      <trkpt lat="43.35321" lon="5.5491">
        <ele>647.1</ele>
        <time>2014-03-21T12:14:44Z</time>
      </trkpt>
      <trkpt lat="43.35322" lon="5.54895">
        <ele>648.07</ele>
        <time>2014-03-21T12:14:54Z</time>
      </trkpt>
      <trkpt lat="43.35321" lon="5.54879">
        <ele>649.51</ele>
        <time>2014-03-21T12:15:04Z</time>
      </trkpt>
      <trkpt lat="43.35321" lon="5.54877">
        <ele>649.51</ele>
        <time>2014-03-21T12:15:05Z</time>
      </trkpt>
      <trkpt lat="43.3532" lon="5.54865">
        <ele>650.47</ele>
        <time>2014-03-21T12:15:13Z</time>
      </trkpt>
      <trkpt lat="43.35318" lon="5.54849">
        <ele>651.91</ele>
        <time>2014-03-21T12:15:24Z</time>
      </trkpt>
      <trkpt lat="43.35315" lon="5.54837">
        <ele>653.35</ele>
        <time>2014-03-21T12:15:33Z</time>
      </trkpt>
      <trkpt lat="43.35315" lon="5.54836">
        <ele>653.35</ele>
        <time>2014-03-21T12:15:34Z</time>
      </trkpt>
      <trkpt lat="43.35311" lon="5.54828">
        <ele>653.83</ele>
        <time>2014-03-21T12:15:40Z</time>
      </trkpt>
      <trkpt lat="43.35309" lon="5.54822">
        <ele>654.31</ele>
        <time>2014-03-21T12:15:44Z</time>
      </trkpt>
      <trkpt lat="43.35304" lon="5.54805">
        <ele>655.28</ele>
        <time>2014-03-21T12:15:56Z</time>
      </trkpt>
      <trkpt lat="43.35303" lon="5.54804">
        <ele>655.28</ele>
        <time>2014-03-21T12:15:57Z</time>
      </trkpt>
      <trkpt lat="43.35302" lon="5.548">
        <ele>655.76</ele>
        <time>2014-03-21T12:16:00Z</time>
      </trkpt>
      <trkpt lat="43.35299" lon="5.54791">
        <ele>656.24</ele>
        <time>2014-03-21T12:16:10Z</time>
      </trkpt>
      <trkpt lat="43.35298" lon="5.5479">
        <ele>656.24</ele>
        <time>2014-03-21T12:16:11Z</time>
      </trkpt>
      <trkpt lat="43.35294" lon="5.54777">
        <ele>657.2</ele>
        <time>2014-03-21T12:16:21Z</time>
      </trkpt>
      <trkpt lat="43.35294" lon="5.54774">
        <ele>657.2</ele>
        <time>2014-03-21T12:16:23Z</time>
      </trkpt>
      <trkpt lat="43.35293" lon="5.5477">
        <ele>657.68</ele>
        <time>2014-03-21T12:16:26Z</time>
      </trkpt>
      <trkpt lat="43.3529" lon="5.54762">
        <ele>658.16</ele>
        <time>2014-03-21T12:16:32Z</time>
      </trkpt>
      <trkpt lat="43.3529" lon="5.54755">
        <ele>657.68</ele>
        <time>2014-03-21T12:16:36Z</time>
      </trkpt>
      <trkpt lat="43.35283" lon="5.54737">
        <ele>657.2</ele>
        <time>2014-03-21T12:16:48Z</time>
      </trkpt>
      <trkpt lat="43.35279" lon="5.54729">
        <ele>657.2</ele>
        <time>2014-03-21T12:16:54Z</time>
      </trkpt>
      <trkpt lat="43.3527" lon="5.54712">
        <ele>657.2</ele>
        <time>2014-03-21T12:17:05Z</time>
      </trkpt>
      <trkpt lat="43.35265" lon="5.54696">
        <ele>656.72</ele>
        <time>2014-03-21T12:17:16Z</time>
      </trkpt>
      <trkpt lat="43.35265" lon="5.54696">
        <ele>657.2</ele>
        <time>2014-03-21T12:17:18Z</time>
      </trkpt>
      <trkpt lat="43.35264" lon="5.54693">
        <ele>656.72</ele>
        <time>2014-03-21T12:17:20Z</time>
      </trkpt>
      <trkpt lat="43.35257" lon="5.54682">
        <ele>657.2</ele>
        <time>2014-03-21T12:17:29Z</time>
      </trkpt>
      <trkpt lat="43.35256" lon="5.54673">
        <ele>657.2</ele>
        <time>2014-03-21T12:17:34Z</time>
      </trkpt>
      <trkpt lat="43.3525" lon="5.54661">
        <ele>656.72</ele>
        <time>2014-03-21T12:17:42Z</time>
      </trkpt>
      <trkpt lat="43.35242" lon="5.54645">
        <ele>656.24</ele>
        <time>2014-03-21T12:17:54Z</time>
      </trkpt>
      <trkpt lat="43.35242" lon="5.54645">
        <ele>656.24</ele>
        <time>2014-03-21T12:18:12Z</time>
      </trkpt>
      <trkpt lat="43.35241" lon="5.54645">
        <ele>656.72</ele>
        <time>2014-03-21T12:18:23Z</time>
      </trkpt>
      <trkpt lat="43.35241" lon="5.54644">
        <ele>656.72</ele>
        <time>2014-03-21T12:18:37Z</time>
      </trkpt>
      <trkpt lat="43.3524" lon="5.54643">
        <ele>656.72</ele>
        <time>2014-03-21T12:18:46Z</time>
      </trkpt>
      <trkpt lat="43.3524" lon="5.54643">
        <ele>656.72</ele>
        <time>2014-03-21T12:18:57Z</time>
      </trkpt>
      <trkpt lat="43.35233" lon="5.54625">
        <ele>656.24</ele>
        <time>2014-03-21T12:19:09Z</time>
      </trkpt>
      <trkpt lat="43.3523" lon="5.54615">
        <ele>656.24</ele>
        <time>2014-03-21T12:19:17Z</time>
      </trkpt>
      <trkpt lat="43.35227" lon="5.54607">
        <ele>656.24</ele>
        <time>2014-03-21T12:19:23Z</time>
      </trkpt>
      <trkpt lat="43.3522" lon="5.54593">
        <ele>656.72</ele>
        <time>2014-03-21T12:19:33Z</time>
      </trkpt>
      <trkpt lat="43.35218" lon="5.54585">
        <ele>656.72</ele>
        <time>2014-03-21T12:19:38Z</time>
      </trkpt>
      <trkpt lat="43.35212" lon="5.54569">
        <ele>657.2</ele>
        <time>2014-03-21T12:19:48Z</time>
      </trkpt>
      <trkpt lat="43.35211" lon="5.54561">
        <ele>657.68</ele>
        <time>2014-03-21T12:19:56Z</time>
      </trkpt>
      <trkpt lat="43.35207" lon="5.54547">
        <ele>658.64</ele>
        <time>2014-03-21T12:20:05Z</time>
      </trkpt>
      <trkpt lat="43.35207" lon="5.54534">
        <ele>659.6</ele>
        <time>2014-03-21T12:20:13Z</time>
      </trkpt>
      <trkpt lat="43.35206" lon="5.54529">
        <ele>659.6</ele>
        <time>2014-03-21T12:20:16Z</time>
      </trkpt>
      <trkpt lat="43.35206" lon="5.54519">
        <ele>660.56</ele>
        <time>2014-03-21T12:20:22Z</time>
      </trkpt>
      <trkpt lat="43.35205" lon="5.54513">
        <ele>661.04</ele>
        <time>2014-03-21T12:20:26Z</time>
      </trkpt>
      <trkpt lat="43.35206" lon="5.54497">
        <ele>662.97</ele>
        <time>2014-03-21T12:20:39Z</time>
      </trkpt>
      <trkpt lat="43.35206" lon="5.54493">
        <ele>663.45</ele>
        <time>2014-03-21T12:20:43Z</time>
      </trkpt>
      <trkpt lat="43.35205" lon="5.54483">
        <ele>665.37</ele>
        <time>2014-03-21T12:20:52Z</time>
      </trkpt>
      <trkpt lat="43.35207" lon="5.54474">
        <ele>666.81</ele>
        <time>2014-03-21T12:21:02Z</time>
      </trkpt>
      <trkpt lat="43.35207" lon="5.54463">
        <ele>668.25</ele>
        <time>2014-03-21T12:21:12Z</time>
      </trkpt>
      <trkpt lat="43.35207" lon="5.5446">
        <ele>668.73</ele>
        <time>2014-03-21T12:21:15Z</time>
      </trkpt>
      <trkpt lat="43.35209" lon="5.54447">
        <ele>670.18</ele>
        <time>2014-03-21T12:21:26Z</time>
      </trkpt>
      <trkpt lat="43.3521" lon="5.54438">
        <ele>670.66</ele>
        <time>2014-03-21T12:21:33Z</time>
      </trkpt>
      <trkpt lat="43.35211" lon="5.54436">
        <ele>670.66</ele>
        <time>2014-03-21T12:21:35Z</time>
      </trkpt>
      <trkpt lat="43.35212" lon="5.54432">
        <ele>671.14</ele>
        <time>2014-03-21T12:21:38Z</time>
      </trkpt>
      <trkpt lat="43.35214" lon="5.54415">
        <ele>671.14</ele>
        <time>2014-03-21T12:21:50Z</time>
      </trkpt>
      <trkpt lat="43.35216" lon="5.54404">
        <ele>670.66</ele>
        <time>2014-03-21T12:21:58Z</time>
      </trkpt>
      <trkpt lat="43.35216" lon="5.54399">
        <ele>670.18</ele>
        <time>2014-03-21T12:22:01Z</time>
      </trkpt>
      <trkpt lat="43.35215" lon="5.54392">
        <ele>669.7</ele>
        <time>2014-03-21T12:22:06Z</time>
      </trkpt>
      <trkpt lat="43.35217" lon="5.54385">
        <ele>669.22</ele>
        <time>2014-03-21T12:22:16Z</time>
      </trkpt>
      <trkpt lat="43.35217" lon="5.54383">
        <ele>669.22</ele>
        <time>2014-03-21T12:22:28Z</time>
      </trkpt>
      <trkpt lat="43.35214" lon="5.54382">
        <ele>669.22</ele>
        <time>2014-03-21T12:22:36Z</time>
      </trkpt>
      <trkpt lat="43.35214" lon="5.54381">
        <ele>669.22</ele>
        <time>2014-03-21T12:22:58Z</time>
      </trkpt>
      <trkpt lat="43.35212" lon="5.54377">
        <ele>669.22</ele>
        <time>2014-03-21T12:23:02Z</time>
      </trkpt>
      <trkpt lat="43.35212" lon="5.54371">
        <ele>668.73</ele>
        <time>2014-03-21T12:23:09Z</time>
      </trkpt>
      <trkpt lat="43.35212" lon="5.54368">
        <ele>668.25</ele>
        <time>2014-03-21T12:23:11Z</time>
      </trkpt>
      <trkpt lat="43.35213" lon="5.54359">
        <ele>668.25</ele>
        <time>2014-03-21T12:23:22Z</time>
      </trkpt>
      <trkpt lat="43.35213" lon="5.54359">
        <ele>668.25</ele>
        <time>2014-03-21T12:23:23Z</time>
      </trkpt>
      <trkpt lat="43.35212" lon="5.54357">
        <ele>667.77</ele>
        <time>2014-03-21T12:23:25Z</time>
      </trkpt>
      <trkpt lat="43.35211" lon="5.54352">
        <ele>666.81</ele>
        <time>2014-03-21T12:23:36Z</time>
      </trkpt>
      <trkpt lat="43.35211" lon="5.54352">
        <ele>666.81</ele>
        <time>2014-03-21T12:23:37Z</time>
      </trkpt>
      <trkpt lat="43.35209" lon="5.54339">
        <ele>665.37</ele>
        <time>2014-03-21T12:23:47Z</time>
      </trkpt>
      <trkpt lat="43.35208" lon="5.54332">
        <ele>664.89</ele>
        <time>2014-03-21T12:23:52Z</time>
      </trkpt>
      <trkpt lat="43.35206" lon="5.54324">
        <ele>663.93</ele>
        <time>2014-03-21T12:23:58Z</time>
      </trkpt>
      <trkpt lat="43.35202" lon="5.54308">
        <ele>662.01</ele>
        <time>2014-03-21T12:24:10Z</time>
      </trkpt>
      <trkpt lat="43.35198" lon="5.54296">
        <ele>660.08</ele>
        <time>2014-03-21T12:24:20Z</time>
      </trkpt>
      <trkpt lat="43.35195" lon="5.5429">
        <ele>658.64</ele>
        <time>2014-03-21T12:24:28Z</time>
      </trkpt>
      <trkpt lat="43.35193" lon="5.54287">
        <ele>658.64</ele>
        <time>2014-03-21T12:24:30Z</time>
      </trkpt>
      <trkpt lat="43.3519" lon="5.54284">
        <ele>657.68</ele>
        <time>2014-03-21T12:24:34Z</time>
      </trkpt>
      <trkpt lat="43.35183" lon="5.54275">
        <ele>656.72</ele>
        <time>2014-03-21T12:24:43Z</time>
      </trkpt>
      <trkpt lat="43.35183" lon="5.54274">
        <ele>656.24</ele>
        <time>2014-03-21T12:24:44Z</time>
      </trkpt>
      <trkpt lat="43.3518" lon="5.54272">
        <ele>655.76</ele>
        <time>2014-03-21T12:24:47Z</time>
      </trkpt>
      <trkpt lat="43.35177" lon="5.54266">
        <ele>655.28</ele>
        <time>2014-03-21T12:24:52Z</time>
      </trkpt>
      <trkpt lat="43.35173" lon="5.54255">
        <ele>653.35</ele>
        <time>2014-03-21T12:25:02Z</time>
      </trkpt>
      <trkpt lat="43.35167" lon="5.54247">
        <ele>651.91</ele>
        <time>2014-03-21T12:25:12Z</time>
      </trkpt>
      <trkpt lat="43.35166" lon="5.54241">
        <ele>651.43</ele>
        <time>2014-03-21T12:25:21Z</time>
      </trkpt>
      <trkpt lat="43.35164" lon="5.54236">
        <ele>651.43</ele>
        <time>2014-03-21T12:25:31Z</time>
      </trkpt>
      <trkpt lat="43.35161" lon="5.54232">
        <ele>649.99</ele>
        <time>2014-03-21T12:25:42Z</time>
      </trkpt>
      <trkpt lat="43.35157" lon="5.54225">
        <ele>649.03</ele>
        <time>2014-03-21T12:25:51Z</time>
      </trkpt>
      <trkpt lat="43.35154" lon="5.54222">
        <ele>648.55</ele>
        <time>2014-03-21T12:25:54Z</time>
      </trkpt>
      <trkpt lat="43.35146" lon="5.54212">
        <ele>647.1</ele>
        <time>2014-03-21T12:26:05Z</time>
      </trkpt>
      <trkpt lat="43.35146" lon="5.54212">
        <ele>647.1</ele>
        <time>2014-03-21T12:26:16Z</time>
      </trkpt>
      <trkpt lat="43.35145" lon="5.54211">
        <ele>647.1</ele>
        <time>2014-03-21T12:26:20Z</time>
      </trkpt>
      <trkpt lat="43.35142" lon="5.54208">
        <ele>646.62</ele>
        <time>2014-03-21T12:26:25Z</time>
      </trkpt>
      <trkpt lat="43.35136" lon="5.54196">
        <ele>645.18</ele>
        <time>2014-03-21T12:26:35Z</time>
      </trkpt>
      <trkpt lat="43.35132" lon="5.54187">
        <ele>643.74</ele>
        <time>2014-03-21T12:26:44Z</time>
      </trkpt>
      <trkpt lat="43.35125" lon="5.54174">
        <ele>642.3</ele>
        <time>2014-03-21T12:26:55Z</time>
      </trkpt>
      <trkpt lat="43.35122" lon="5.54166">
        <ele>640.86</ele>
        <time>2014-03-21T12:27:05Z</time>
      </trkpt>
      <trkpt lat="43.35122" lon="5.54161">
        <ele>639.89</ele>
        <time>2014-03-21T12:27:09Z</time>
      </trkpt>
      <trkpt lat="43.35116" lon="5.54149">
        <ele>638.45</ele>
        <time>2014-03-21T12:27:19Z</time>
      </trkpt>
      <trkpt lat="43.35113" lon="5.54141">
        <ele>636.53</ele>
        <time>2014-03-21T12:27:28Z</time>
      </trkpt>
      <trkpt lat="43.3511" lon="5.54132">
        <ele>635.57</ele>
        <time>2014-03-21T12:27:35Z</time>
      </trkpt>
      <trkpt lat="43.35107" lon="5.54123">
        <ele>634.13</ele>
        <time>2014-03-21T12:27:43Z</time>
      </trkpt>
      <trkpt lat="43.35105" lon="5.54114">
        <ele>632.68</ele>
        <time>2014-03-21T12:27:52Z</time>
      </trkpt>
      <trkpt lat="43.35102" lon="5.54109">
        <ele>631.24</ele>
        <time>2014-03-21T12:28:02Z</time>
      </trkpt>
      <trkpt lat="43.35099" lon="5.54107">
        <ele>630.28</ele>
        <time>2014-03-21T12:28:06Z</time>
      </trkpt>
      <trkpt lat="43.35092" lon="5.54099">
        <ele>627.88</ele>
        <time>2014-03-21T12:28:16Z</time>
      </trkpt>
      <trkpt lat="43.3509" lon="5.54089">
        <ele>626.44</ele>
        <time>2014-03-21T12:28:26Z</time>
      </trkpt>
      <trkpt lat="43.35089" lon="5.54086">
        <ele>624.99</ele>
        <time>2014-03-21T12:28:35Z</time>
      </trkpt>
      <trkpt lat="43.35084" lon="5.54078">
        <ele>623.55</ele>
        <time>2014-03-21T12:28:44Z</time>
      </trkpt>
      <trkpt lat="43.35077" lon="5.54066">
        <ele>622.59</ele>
        <time>2014-03-21T12:28:52Z</time>
      </trkpt>
      <trkpt lat="43.35076" lon="5.54053">
        <ele>621.63</ele>
        <time>2014-03-21T12:29:01Z</time>
      </trkpt>
      <trkpt lat="43.35078" lon="5.54038">
        <ele>619.23</ele>
        <time>2014-03-21T12:29:10Z</time>
      </trkpt>
      <trkpt lat="43.35079" lon="5.54038">
        <ele>619.23</ele>
        <time>2014-03-21T12:29:11Z</time>
      </trkpt>
      <trkpt lat="43.35083" lon="5.54031">
        <ele>617.3</ele>
        <time>2014-03-21T12:29:19Z</time>
      </trkpt>
      <trkpt lat="43.35087" lon="5.54023">
        <ele>615.86</ele>
        <time>2014-03-21T12:29:30Z</time>
      </trkpt>
      <trkpt lat="43.35089" lon="5.54021">
        <ele>615.38</ele>
        <time>2014-03-21T12:29:36Z</time>
      </trkpt>
      <trkpt lat="43.35094" lon="5.54011">
        <ele>613.46</ele>
        <time>2014-03-21T12:29:47Z</time>
      </trkpt>
      <trkpt lat="43.35096" lon="5.54007">
        <ele>613.46</ele>
        <time>2014-03-21T12:29:51Z</time>
      </trkpt>
      <trkpt lat="43.35101" lon="5.53998">
        <ele>612.02</ele>
        <time>2014-03-21T12:30:01Z</time>
      </trkpt>
      <trkpt lat="43.35101" lon="5.53997">
        <ele>612.02</ele>
        <time>2014-03-21T12:30:02Z</time>
      </trkpt>
      <trkpt lat="43.35104" lon="5.53991">
        <ele>611.06</ele>
        <time>2014-03-21T12:30:11Z</time>
      </trkpt>
      <trkpt lat="43.35104" lon="5.53988">
        <ele>610.57</ele>
        <time>2014-03-21T12:30:14Z</time>
      </trkpt>
      <trkpt lat="43.35106" lon="5.53973">
        <ele>609.13</ele>
        <time>2014-03-21T12:30:24Z</time>
      </trkpt>
      <trkpt lat="43.35106" lon="5.5397">
        <ele>609.13</ele>
        <time>2014-03-21T12:30:26Z</time>
      </trkpt>
      <trkpt lat="43.35109" lon="5.53957">
        <ele>607.21</ele>
        <time>2014-03-21T12:30:35Z</time>
      </trkpt>
      <trkpt lat="43.35115" lon="5.53941">
        <ele>605.77</ele>
        <time>2014-03-21T12:30:46Z</time>
      </trkpt>
      <trkpt lat="43.35119" lon="5.53924">
        <ele>604.33</ele>
        <time>2014-03-21T12:30:58Z</time>
      </trkpt>
      <trkpt lat="43.35119" lon="5.53908">
        <ele>602.88</ele>
        <time>2014-03-21T12:31:08Z</time>
      </trkpt>
      <trkpt lat="43.35119" lon="5.53893">
        <ele>601.44</ele>
        <time>2014-03-21T12:31:20Z</time>
      </trkpt>
      <trkpt lat="43.35118" lon="5.5389">
        <ele>600.96</ele>
        <time>2014-03-21T12:31:23Z</time>
      </trkpt>
      <trkpt lat="43.35116" lon="5.53881">
        <ele>599.52</ele>
        <time>2014-03-21T12:31:30Z</time>
      </trkpt>
      <trkpt lat="43.35114" lon="5.53868">
        <ele>598.08</ele>
        <time>2014-03-21T12:31:41Z</time>
      </trkpt>
      <trkpt lat="43.35114" lon="5.53856">
        <ele>597.12</ele>
        <time>2014-03-21T12:31:51Z</time>
      </trkpt>
      <trkpt lat="43.35115" lon="5.5385">
        <ele>597.12</ele>
        <time>2014-03-21T12:31:55Z</time>
      </trkpt>
      <trkpt lat="43.35113" lon="5.53837">
        <ele>595.67</ele>
        <time>2014-03-21T12:32:05Z</time>
      </trkpt>
      <trkpt lat="43.35113" lon="5.53826">
        <ele>594.71</ele>
        <time>2014-03-21T12:32:14Z</time>
      </trkpt>
      <trkpt lat="43.3511" lon="5.53815">
        <ele>593.75</ele>
        <time>2014-03-21T12:32:22Z</time>
      </trkpt>
      <trkpt lat="43.3511" lon="5.53812">
        <ele>593.27</ele>
        <time>2014-03-21T12:32:25Z</time>
      </trkpt>
      <trkpt lat="43.35108" lon="5.53805">
        <ele>592.79</ele>
        <time>2014-03-21T12:32:34Z</time>
      </trkpt>
      <trkpt lat="43.35104" lon="5.53796">
        <ele>591.35</ele>
        <time>2014-03-21T12:32:42Z</time>
      </trkpt>
      <trkpt lat="43.35103" lon="5.53795">
        <ele>591.35</ele>
        <time>2014-03-21T12:32:43Z</time>
      </trkpt>
      <trkpt lat="43.35101" lon="5.53788">
        <ele>590.87</ele>
        <time>2014-03-21T12:32:49Z</time>
      </trkpt>
      <trkpt lat="43.35099" lon="5.53777">
        <ele>588.95</ele>
        <time>2014-03-21T12:32:58Z</time>
      </trkpt>
      <trkpt lat="43.35092" lon="5.53766">
        <ele>587.98</ele>
        <time>2014-03-21T12:33:08Z</time>
      </trkpt>
      <trkpt lat="43.35091" lon="5.53762">
        <ele>587.5</ele>
        <time>2014-03-21T12:33:10Z</time>
      </trkpt>
      <trkpt lat="43.35086" lon="5.53756">
        <ele>587.02</ele>
        <time>2014-03-21T12:33:16Z</time>
      </trkpt>
      <trkpt lat="43.35084" lon="5.5375">
        <ele>586.54</ele>
        <time>2014-03-21T12:33:21Z</time>
      </trkpt>
      <trkpt lat="43.35081" lon="5.53738">
        <ele>585.1</ele>
        <time>2014-03-21T12:33:32Z</time>
      </trkpt>
      <trkpt lat="43.35081" lon="5.53733">
        <ele>584.14</ele>
        <time>2014-03-21T12:33:39Z</time>
      </trkpt>
      <trkpt lat="43.3508" lon="5.53726">
        <ele>583.18</ele>
        <time>2014-03-21T12:33:45Z</time>
      </trkpt>
      <trkpt lat="43.3508" lon="5.5372">
        <ele>583.18</ele>
        <time>2014-03-21T12:33:49Z</time>
      </trkpt>
      <trkpt lat="43.35084" lon="5.53712">
        <ele>581.73</ele>
        <time>2014-03-21T12:33:58Z</time>
      </trkpt>
      <trkpt lat="43.35088" lon="5.53707">
        <ele>581.25</ele>
        <time>2014-03-21T12:34:06Z</time>
      </trkpt>
      <trkpt lat="43.35088" lon="5.53706">
        <ele>580.29</ele>
        <time>2014-03-21T12:34:11Z</time>
      </trkpt>
      <trkpt lat="43.35089" lon="5.53701">
        <ele>579.33</ele>
        <time>2014-03-21T12:34:15Z</time>
      </trkpt>
      <trkpt lat="43.3509" lon="5.5369">
        <ele>577.89</ele>
        <time>2014-03-21T12:34:24Z</time>
      </trkpt>
      <trkpt lat="43.3509" lon="5.53684">
        <ele>576.93</ele>
        <time>2014-03-21T12:34:32Z</time>
      </trkpt>
      <trkpt lat="43.35093" lon="5.53677">
        <ele>575.97</ele>
        <time>2014-03-21T12:34:40Z</time>
      </trkpt>
      <trkpt lat="43.35091" lon="5.53668">
        <ele>574.53</ele>
        <time>2014-03-21T12:34:50Z</time>
      </trkpt>
      <trkpt lat="43.35088" lon="5.5366">
        <ele>573.56</ele>
        <time>2014-03-21T12:34:59Z</time>
      </trkpt>
      <trkpt lat="43.35086" lon="5.53656">
        <ele>573.08</ele>
        <time>2014-03-21T12:35:04Z</time>
      </trkpt>
      <trkpt lat="43.35083" lon="5.53649">
        <ele>571.16</ele>
        <time>2014-03-21T12:35:13Z</time>
      </trkpt>
      <trkpt lat="43.35081" lon="5.53641">
        <ele>570.2</ele>
        <time>2014-03-21T12:35:21Z</time>
      </trkpt>
      <trkpt lat="43.35084" lon="5.53633">
        <ele>568.76</ele>
        <time>2014-03-21T12:35:30Z</time>
      </trkpt>
      <trkpt lat="43.35084" lon="5.53625">
        <ele>567.8</ele>
        <time>2014-03-21T12:35:38Z</time>
      </trkpt>
      <trkpt lat="43.35084" lon="5.53621">
        <ele>566.35</ele>
        <time>2014-03-21T12:35:47Z</time>
      </trkpt>
      <trkpt lat="43.35084" lon="5.53619">
        <ele>565.39</ele>
        <time>2014-03-21T12:35:56Z</time>
      </trkpt>
      <trkpt lat="43.35081" lon="5.53614">
        <ele>564.43</ele>
        <time>2014-03-21T12:36:03Z</time>
      </trkpt>
      <trkpt lat="43.35079" lon="5.53604">
        <ele>563.47</ele>
        <time>2014-03-21T12:36:13Z</time>
      </trkpt>
      <trkpt lat="43.35081" lon="5.53596">
        <ele>562.99</ele>
        <time>2014-03-21T12:36:20Z</time>
      </trkpt>
      <trkpt lat="43.3508" lon="5.53592">
        <ele>561.55</ele>
        <time>2014-03-21T12:36:29Z</time>
      </trkpt>
      <trkpt lat="43.3508" lon="5.53592">
        <ele>561.07</ele>
        <time>2014-03-21T12:36:30Z</time>
      </trkpt>
      <trkpt lat="43.35079" lon="5.53583">
        <ele>560.11</ele>
        <time>2014-03-21T12:36:39Z</time>
      </trkpt>
      <trkpt lat="43.35085" lon="5.53574">
        <ele>559.14</ele>
        <time>2014-03-21T12:36:48Z</time>
      </trkpt>
      <trkpt lat="43.35085" lon="5.53573">
        <ele>558.66</ele>
        <time>2014-03-21T12:36:51Z</time>
      </trkpt>
      <trkpt lat="43.35094" lon="5.53567">
        <ele>557.22</ele>
        <time>2014-03-21T12:37:01Z</time>
      </trkpt>
      <trkpt lat="43.35102" lon="5.5356">
        <ele>556.26</ele>
        <time>2014-03-21T12:37:12Z</time>
      </trkpt>
      <trkpt lat="43.35109" lon="5.53552">
        <ele>555.3</ele>
        <time>2014-03-21T12:37:23Z</time>
      </trkpt>
      <trkpt lat="43.35113" lon="5.5355">
        <ele>554.82</ele>
        <time>2014-03-21T12:37:32Z</time>
      </trkpt>
      <trkpt lat="43.35119" lon="5.53547">
        <ele>553.86</ele>
        <time>2014-03-21T12:37:41Z</time>
      </trkpt>
      <trkpt lat="43.35122" lon="5.53545">
        <ele>553.38</ele>
        <time>2014-03-21T12:37:48Z</time>
      </trkpt>
      <trkpt lat="43.35124" lon="5.53544">
        <ele>552.9</ele>
        <time>2014-03-21T12:37:52Z</time>
      </trkpt>
      <trkpt lat="43.35126" lon="5.53541">
        <ele>552.9</ele>
        <time>2014-03-21T12:37:54Z</time>
      </trkpt>
      <trkpt lat="43.35135" lon="5.53534">
        <ele>552.41</ele>
        <time>2014-03-21T12:38:03Z</time>
      </trkpt>
      <trkpt lat="43.3514" lon="5.53527">
        <ele>551.45</ele>
        <time>2014-03-21T12:38:10Z</time>
      </trkpt>
      <trkpt lat="43.35144" lon="5.5352">
        <ele>550.97</ele>
        <time>2014-03-21T12:38:19Z</time>
      </trkpt>
      <trkpt lat="43.35147" lon="5.53514">
        <ele>549.53</ele>
        <time>2014-03-21T12:38:28Z</time>
      </trkpt>
      <trkpt lat="43.35146" lon="5.53508">
        <ele>549.05</ele>
        <time>2014-03-21T12:38:38Z</time>
      </trkpt>
      <trkpt lat="43.3515" lon="5.53501">
        <ele>548.57</ele>
        <time>2014-03-21T12:38:46Z</time>
      </trkpt>
      <trkpt lat="43.35153" lon="5.53498">
        <ele>548.09</ele>
        <time>2014-03-21T12:38:50Z</time>
      </trkpt>
      <trkpt lat="43.35159" lon="5.53486">
        <ele>547.13</ele>
        <time>2014-03-21T12:39:00Z</time>
      </trkpt>
      <trkpt lat="43.35164" lon="5.53479">
        <ele>546.65</ele>
        <time>2014-03-21T12:39:09Z</time>
      </trkpt>
      <trkpt lat="43.35171" lon="5.53469">
        <ele>545.2</ele>
        <time>2014-03-21T12:39:19Z</time>
      </trkpt>
      <trkpt lat="43.35174" lon="5.53459">
        <ele>543.76</ele>
        <time>2014-03-21T12:39:29Z</time>
      </trkpt>
      <trkpt lat="43.35178" lon="5.53453">
        <ele>542.8</ele>
        <time>2014-03-21T12:39:37Z</time>
      </trkpt>
      <trkpt lat="43.35183" lon="5.53445">
        <ele>542.32</ele>
        <time>2014-03-21T12:39:46Z</time>
      </trkpt>
      <trkpt lat="43.35185" lon="5.53442">
        <ele>541.36</ele>
        <time>2014-03-21T12:39:52Z</time>
      </trkpt>
      <trkpt lat="43.35188" lon="5.53433">
        <ele>540.4</ele>
        <time>2014-03-21T12:40:01Z</time>
      </trkpt>
      <trkpt lat="43.3519" lon="5.53428">
        <ele>539.44</ele>
        <time>2014-03-21T12:40:09Z</time>
      </trkpt>
      <trkpt lat="43.35194" lon="5.53421">
        <ele>538.96</ele>
        <time>2014-03-21T12:40:16Z</time>
      </trkpt>
      <trkpt lat="43.35202" lon="5.53413">
        <ele>538.48</ele>
        <time>2014-03-21T12:40:26Z</time>
      </trkpt>
      <trkpt lat="43.35206" lon="5.53413">
        <ele>538.96</ele>
        <time>2014-03-21T12:40:35Z</time>
      </trkpt>
      <trkpt lat="43.35206" lon="5.53412">
        <ele>538.96</ele>
        <time>2014-03-21T12:40:50Z</time>
      </trkpt>
      <trkpt lat="43.35207" lon="5.53412">
        <ele>538.96</ele>
        <time>2014-03-21T12:41:09Z</time>
      </trkpt>
      <trkpt lat="43.35206" lon="5.53411">
        <ele>539.44</ele>
        <time>2014-03-21T12:41:22Z</time>
      </trkpt>
      <trkpt lat="43.35206" lon="5.53411">
        <ele>538.96</ele>
        <time>2014-03-21T12:41:42Z</time>
      </trkpt>
      <trkpt lat="43.35205" lon="5.5341">
        <ele>538.96</ele>
        <time>2014-03-21T12:42:02Z</time>
      </trkpt>
      <trkpt lat="43.35205" lon="5.5341">
        <ele>538.96</ele>
        <time>2014-03-21T12:42:16Z</time>
      </trkpt>
      <trkpt lat="43.35205" lon="5.5341">
        <ele>538.96</ele>
        <time>2014-03-21T12:42:33Z</time>
      </trkpt>
      <trkpt lat="43.35205" lon="5.5341">
        <ele>538.96</ele>
        <time>2014-03-21T12:42:49Z</time>
      </trkpt>
      <trkpt lat="43.35205" lon="5.53411">
        <ele>538.96</ele>
        <time>2014-03-21T12:43:09Z</time>
      </trkpt>
      <trkpt lat="43.35203" lon="5.5341">
        <ele>539.92</ele>
        <time>2014-03-21T12:43:30Z</time>
      </trkpt>
      <trkpt lat="43.35203" lon="5.53411">
        <ele>538.96</ele>
        <time>2014-03-21T12:43:43Z</time>
      </trkpt>
      <trkpt lat="43.35204" lon="5.53408">
        <ele>537.99</ele>
        <time>2014-03-21T12:43:51Z</time>
      </trkpt>
      <trkpt lat="43.35205" lon="5.53408">
        <ele>537.99</ele>
        <time>2014-03-21T12:44:12Z</time>
      </trkpt>
      <trkpt lat="43.35207" lon="5.53408">
        <ele>534.63</ele>
        <time>2014-03-21T12:44:29Z</time>
      </trkpt>
      <trkpt lat="43.35207" lon="5.53407">
        <ele>538.96</ele>
        <time>2014-03-21T12:44:30Z</time>
      </trkpt>
      <trkpt lat="43.35208" lon="5.53408">
        <ele>536.55</ele>
        <time>2014-03-21T12:44:34Z</time>
      </trkpt>
      <trkpt lat="43.35208" lon="5.53407">
        <ele>535.11</ele>
        <time>2014-03-21T12:44:41Z</time>
      </trkpt>
      <trkpt lat="43.35212" lon="5.5341">
        <ele>532.71</ele>
        <time>2014-03-21T12:44:51Z</time>
      </trkpt>
      <trkpt lat="43.35217" lon="5.53408">
        <ele>531.75</ele>
        <time>2014-03-21T12:45:00Z</time>
      </trkpt>
      <trkpt lat="43.35223" lon="5.53407">
        <ele>530.79</ele>
        <time>2014-03-21T12:45:08Z</time>
      </trkpt>
      <trkpt lat="43.35235" lon="5.53404">
        <ele>529.82</ele>
        <time>2014-03-21T12:45:23Z</time>
      </trkpt>
      <trkpt lat="43.35259" lon="5.53399">
        <ele>529.34</ele>
        <time>2014-03-21T12:45:35Z</time>
      </trkpt>
      <trkpt lat="43.35269" lon="5.53399">
        <ele>528.86</ele>
        <time>2014-03-21T12:45:46Z</time>
      </trkpt>
      <trkpt lat="43.35288" lon="5.53404">
        <ele>528.38</ele>
        <time>2014-03-21T12:46:01Z</time>
      </trkpt>
      <trkpt lat="43.35301" lon="5.53407">
        <ele>528.38</ele>
        <time>2014-03-21T12:46:14Z</time>
      </trkpt>
      <trkpt lat="43.35315" lon="5.5341">
        <ele>527.42</ele>
        <time>2014-03-21T12:46:26Z</time>
      </trkpt>
      <trkpt lat="43.3533" lon="5.53414">
        <ele>526.94</ele>
        <time>2014-03-21T12:46:39Z</time>
      </trkpt>
      <trkpt lat="43.35346" lon="5.53418">
        <ele>525.98</ele>
        <time>2014-03-21T12:46:53Z</time>
      </trkpt>
      <trkpt lat="43.35361" lon="5.53423">
        <ele>525.5</ele>
        <time>2014-03-21T12:47:06Z</time>
      </trkpt>
      <trkpt lat="43.35377" lon="5.53426">
        <ele>524.54</ele>
        <time>2014-03-21T12:47:19Z</time>
      </trkpt>
      <trkpt lat="43.35395" lon="5.53432">
        <ele>523.58</ele>
        <time>2014-03-21T12:47:33Z</time>
      </trkpt>
      <trkpt lat="43.35405" lon="5.53442">
        <ele>522.61</ele>
        <time>2014-03-21T12:47:45Z</time>
      </trkpt>
      <trkpt lat="43.35408" lon="5.53452">
        <ele>521.17</ele>
        <time>2014-03-21T12:47:55Z</time>
      </trkpt>
      <trkpt lat="43.35411" lon="5.53461">
        <ele>519.25</ele>
        <time>2014-03-21T12:48:06Z</time>
      </trkpt>
      <trkpt lat="43.35413" lon="5.53473">
        <ele>517.33</ele>
        <time>2014-03-21T12:48:15Z</time>
      </trkpt>
      <trkpt lat="43.35414" lon="5.53486">
        <ele>515.4</ele>
        <time>2014-03-21T12:48:26Z</time>
      </trkpt>
      <trkpt lat="43.35417" lon="5.53495">
        <ele>513.48</ele>
        <time>2014-03-21T12:48:38Z</time>
      </trkpt>
      <trkpt lat="43.3542" lon="5.53507">
        <ele>511.56</ele>
        <time>2014-03-21T12:48:49Z</time>
      </trkpt>
      <trkpt lat="43.35424" lon="5.5352">
        <ele>509.64</ele>
        <time>2014-03-21T12:49:01Z</time>
      </trkpt>
      <trkpt lat="43.35428" lon="5.5353">
        <ele>507.71</ele>
        <time>2014-03-21T12:49:13Z</time>
      </trkpt>
      <trkpt lat="43.35435" lon="5.53543">
        <ele>505.79</ele>
        <time>2014-03-21T12:49:25Z</time>
      </trkpt>
      <trkpt lat="43.35439" lon="5.53551">
        <ele>504.35</ele>
        <time>2014-03-21T12:49:35Z</time>
      </trkpt>
      <trkpt lat="43.35441" lon="5.53558">
        <ele>501.95</ele>
        <time>2014-03-21T12:49:44Z</time>
      </trkpt>
      <trkpt lat="43.35442" lon="5.53558">
        <ele>500.02</ele>
        <time>2014-03-21T12:49:56Z</time>
      </trkpt>
      <trkpt lat="43.35443" lon="5.53553">
        <ele>499.06</ele>
        <time>2014-03-21T12:50:02Z</time>
      </trkpt>
      <trkpt lat="43.35443" lon="5.5354">
        <ele>497.62</ele>
        <time>2014-03-21T12:50:10Z</time>
      </trkpt>
      <trkpt lat="43.35444" lon="5.53535">
        <ele>496.18</ele>
        <time>2014-03-21T12:50:21Z</time>
      </trkpt>
      <trkpt lat="43.35444" lon="5.53528">
        <ele>494.74</ele>
        <time>2014-03-21T12:50:29Z</time>
      </trkpt>
      <trkpt lat="43.35446" lon="5.53522">
        <ele>492.81</ele>
        <time>2014-03-21T12:50:39Z</time>
      </trkpt>
      <trkpt lat="43.35447" lon="5.53509">
        <ele>491.85</ele>
        <time>2014-03-21T12:50:50Z</time>
      </trkpt>
      <trkpt lat="43.35447" lon="5.53502">
        <ele>489.93</ele>
        <time>2014-03-21T12:51:01Z</time>
      </trkpt>
      <trkpt lat="43.3545" lon="5.53496">
        <ele>488.01</ele>
        <time>2014-03-21T12:51:12Z</time>
      </trkpt>
      <trkpt lat="43.35447" lon="5.5349">
        <ele>486.56</ele>
        <time>2014-03-21T12:51:25Z</time>
      </trkpt>
      <trkpt lat="43.35448" lon="5.53485">
        <ele>485.12</ele>
        <time>2014-03-21T12:51:35Z</time>
      </trkpt>
      <trkpt lat="43.3545" lon="5.53476">
        <ele>483.68</ele>
        <time>2014-03-21T12:51:46Z</time>
      </trkpt>
      <trkpt lat="43.35456" lon="5.53464">
        <ele>482.24</ele>
        <time>2014-03-21T12:51:56Z</time>
      </trkpt>
      <trkpt lat="43.35463" lon="5.53453">
        <ele>480.8</ele>
        <time>2014-03-21T12:52:06Z</time>
      </trkpt>
      <trkpt lat="43.35468" lon="5.53444">
        <ele>478.87</ele>
        <time>2014-03-21T12:52:14Z</time>
      </trkpt>
      <trkpt lat="43.35474" lon="5.53436">
        <ele>478.87</ele>
        <time>2014-03-21T12:52:20Z</time>
      </trkpt>
      <trkpt lat="43.35478" lon="5.53423">
        <ele>475.99</ele>
        <time>2014-03-21T12:52:33Z</time>
      </trkpt>
      <trkpt lat="43.35483" lon="5.53406">
        <ele>473.59</ele>
        <time>2014-03-21T12:52:44Z</time>
      </trkpt>
      <trkpt lat="43.35491" lon="5.534">
        <ele>472.14</ele>
        <time>2014-03-21T12:52:54Z</time>
      </trkpt>
      <trkpt lat="43.35499" lon="5.53392">
        <ele>470.7</ele>
        <time>2014-03-21T12:53:03Z</time>
      </trkpt>
      <trkpt lat="43.35505" lon="5.53385">
        <ele>469.74</ele>
        <time>2014-03-21T12:53:11Z</time>
      </trkpt>
      <trkpt lat="43.35507" lon="5.5338">
        <ele>468.3</ele>
        <time>2014-03-21T12:53:21Z</time>
      </trkpt>
      <trkpt lat="43.3551" lon="5.53375">
        <ele>467.82</ele>
        <time>2014-03-21T12:53:29Z</time>
      </trkpt>
      <trkpt lat="43.35516" lon="5.53372">
        <ele>466.86</ele>
        <time>2014-03-21T12:53:39Z</time>
      </trkpt>
      <trkpt lat="43.35517" lon="5.53364">
        <ele>464.93</ele>
        <time>2014-03-21T12:53:50Z</time>
      </trkpt>
      <trkpt lat="43.35518" lon="5.53363">
        <ele>463.97</ele>
        <time>2014-03-21T12:54:00Z</time>
      </trkpt>
      <trkpt lat="43.35521" lon="5.53354">
        <ele>460.61</ele>
        <time>2014-03-21T12:54:12Z</time>
      </trkpt>
      <trkpt lat="43.35528" lon="5.5335">
        <ele>459.17</ele>
        <time>2014-03-21T12:54:21Z</time>
      </trkpt>
      <trkpt lat="43.35537" lon="5.53348">
        <ele>458.21</ele>
        <time>2014-03-21T12:54:32Z</time>
      </trkpt>
      <trkpt lat="43.35543" lon="5.53351">
        <ele>456.28</ele>
        <time>2014-03-21T12:54:42Z</time>
      </trkpt>
      <trkpt lat="43.35548" lon="5.53352">
        <ele>454.84</ele>
        <time>2014-03-21T12:54:52Z</time>
      </trkpt>
      <trkpt lat="43.35556" lon="5.5335">
        <ele>454.36</ele>
        <time>2014-03-21T12:55:03Z</time>
      </trkpt>
      <trkpt lat="43.35563" lon="5.53346">
        <ele>453.4</ele>
        <time>2014-03-21T12:55:09Z</time>
      </trkpt>
      <trkpt lat="43.35575" lon="5.53334">
        <ele>452.44</ele>
        <time>2014-03-21T12:55:22Z</time>
      </trkpt>
      <trkpt lat="43.35581" lon="5.53324">
        <ele>451.48</ele>
        <time>2014-03-21T12:55:32Z</time>
      </trkpt>
      <trkpt lat="43.35588" lon="5.53315">
        <ele>450.52</ele>
        <time>2014-03-21T12:55:43Z</time>
      </trkpt>
      <trkpt lat="43.35596" lon="5.53307">
        <ele>449.55</ele>
        <time>2014-03-21T12:55:53Z</time>
      </trkpt>
      <trkpt lat="43.35601" lon="5.53302">
        <ele>448.59</ele>
        <time>2014-03-21T12:56:02Z</time>
      </trkpt>
      <trkpt lat="43.35606" lon="5.53293">
        <ele>447.15</ele>
        <time>2014-03-21T12:56:11Z</time>
      </trkpt>
      <trkpt lat="43.35607" lon="5.53294">
        <ele>446.67</ele>
        <time>2014-03-21T12:56:24Z</time>
      </trkpt>
      <trkpt lat="43.35611" lon="5.53286">
        <ele>445.71</ele>
        <time>2014-03-21T12:56:29Z</time>
      </trkpt>
      <trkpt lat="43.35619" lon="5.53272">
        <ele>443.79</ele>
        <time>2014-03-21T12:56:40Z</time>
      </trkpt>
      <trkpt lat="43.35625" lon="5.53262">
        <ele>442.34</ele>
        <time>2014-03-21T12:56:50Z</time>
      </trkpt>
      <trkpt lat="43.35629" lon="5.53256">
        <ele>441.38</ele>
        <time>2014-03-21T12:56:55Z</time>
      </trkpt>
      <trkpt lat="43.35633" lon="5.5325">
        <ele>440.9</ele>
        <time>2014-03-21T12:57:00Z</time>
      </trkpt>
      <trkpt lat="43.35642" lon="5.53239">
        <ele>438.5</ele>
        <time>2014-03-21T12:57:12Z</time>
      </trkpt>
      <trkpt lat="43.35648" lon="5.53231">
        <ele>437.06</ele>
        <time>2014-03-21T12:57:21Z</time>
      </trkpt>
      <trkpt lat="43.35655" lon="5.53222">
        <ele>435.61</ele>
        <time>2014-03-21T12:57:30Z</time>
      </trkpt>
      <trkpt lat="43.35663" lon="5.53215">
        <ele>434.65</ele>
        <time>2014-03-21T12:57:39Z</time>
      </trkpt>
      <trkpt lat="43.3567" lon="5.53206">
        <ele>433.69</ele>
        <time>2014-03-21T12:57:49Z</time>
      </trkpt>
      <trkpt lat="43.35679" lon="5.53196">
        <ele>432.25</ele>
        <time>2014-03-21T12:57:59Z</time>
      </trkpt>
      <trkpt lat="43.3568" lon="5.53195">
        <ele>432.25</ele>
        <time>2014-03-21T12:58:01Z</time>
      </trkpt>
      <trkpt lat="43.35686" lon="5.53189">
        <ele>431.29</ele>
        <time>2014-03-21T12:58:07Z</time>
      </trkpt>
      <trkpt lat="43.35697" lon="5.53181">
        <ele>429.85</ele>
        <time>2014-03-21T12:58:19Z</time>
      </trkpt>
      <trkpt lat="43.357" lon="5.53176">
        <ele>428.89</ele>
        <time>2014-03-21T12:58:29Z</time>
      </trkpt>
      <trkpt lat="43.35703" lon="5.53175">
        <ele>428.89</ele>
        <time>2014-03-21T12:58:43Z</time>
      </trkpt>
      <trkpt lat="43.35711" lon="5.5317">
        <ele>427.44</ele>
        <time>2014-03-21T12:58:53Z</time>
      </trkpt>
      <trkpt lat="43.35721" lon="5.53165">
        <ele>426</ele>
        <time>2014-03-21T12:59:03Z</time>
      </trkpt>
      <trkpt lat="43.3573" lon="5.53161">
        <ele>424.56</ele>
        <time>2014-03-21T12:59:12Z</time>
      </trkpt>
      <trkpt lat="43.35731" lon="5.5316">
        <ele>424.56</ele>
        <time>2014-03-21T12:59:13Z</time>
      </trkpt>
      <trkpt lat="43.35734" lon="5.53159">
        <ele>424.08</ele>
        <time>2014-03-21T12:59:16Z</time>
      </trkpt>
      <trkpt lat="43.35745" lon="5.53156">
        <ele>423.12</ele>
        <time>2014-03-21T12:59:29Z</time>
      </trkpt>
      <trkpt lat="43.35758" lon="5.53151">
        <ele>422.16</ele>
        <time>2014-03-21T12:59:42Z</time>
      </trkpt>
      <trkpt lat="43.3577" lon="5.53142">
        <ele>422.16</ele>
        <time>2014-03-21T12:59:55Z</time>
      </trkpt>
      <trkpt lat="43.35784" lon="5.53139">
        <ele>421.19</ele>
        <time>2014-03-21T13:00:08Z</time>
      </trkpt>
      <trkpt lat="43.35795" lon="5.53137">
        <ele>420.23</ele>
        <time>2014-03-21T13:00:19Z</time>
      </trkpt>
      <trkpt lat="43.35797" lon="5.53137">
        <ele>420.23</ele>
        <time>2014-03-21T13:00:29Z</time>
      </trkpt>
      <trkpt lat="43.35798" lon="5.53137">
        <ele>419.75</ele>
        <time>2014-03-21T13:00:42Z</time>
      </trkpt>
      <trkpt lat="43.35801" lon="5.53135">
        <ele>419.75</ele>
        <time>2014-03-21T13:00:57Z</time>
      </trkpt>
      <trkpt lat="43.35806" lon="5.53132">
        <ele>419.75</ele>
        <time>2014-03-21T13:01:01Z</time>
      </trkpt>
      <trkpt lat="43.35814" lon="5.53118">
        <ele>418.79</ele>
        <time>2014-03-21T13:01:13Z</time>
      </trkpt>
      <trkpt lat="43.35816" lon="5.53112">
        <ele>418.79</ele>
        <time>2014-03-21T13:01:24Z</time>
      </trkpt>
      <trkpt lat="43.35816" lon="5.53112">
        <ele>419.27</ele>
        <time>2014-03-21T13:01:37Z</time>
      </trkpt>
      <trkpt lat="43.35821" lon="5.53106">
        <ele>418.31</ele>
        <time>2014-03-21T13:01:45Z</time>
      </trkpt>
      <trkpt lat="43.35823" lon="5.53099">
        <ele>418.79</ele>
        <time>2014-03-21T13:01:50Z</time>
      </trkpt>
      <trkpt lat="43.35827" lon="5.53092">
        <ele>418.79</ele>
        <time>2014-03-21T13:01:55Z</time>
      </trkpt>
      <trkpt lat="43.35834" lon="5.53078">
        <ele>418.79</ele>
        <time>2014-03-21T13:02:05Z</time>
      </trkpt>
      <trkpt lat="43.35836" lon="5.53072">
        <ele>418.31</ele>
        <time>2014-03-21T13:02:09Z</time>
      </trkpt>
      <trkpt lat="43.35844" lon="5.53054">
        <ele>419.27</ele>
        <time>2014-03-21T13:02:22Z</time>
      </trkpt>
      <trkpt lat="43.35845" lon="5.53048">
        <ele>419.27</ele>
        <time>2014-03-21T13:02:25Z</time>
      </trkpt>
      <trkpt lat="43.35849" lon="5.53029">
        <ele>419.75</ele>
        <time>2014-03-21T13:02:37Z</time>
      </trkpt>
      <trkpt lat="43.35852" lon="5.53024">
        <ele>419.75</ele>
        <time>2014-03-21T13:02:40Z</time>
      </trkpt>
      <trkpt lat="43.35856" lon="5.53004">
        <ele>420.23</ele>
        <time>2014-03-21T13:02:53Z</time>
      </trkpt>
      <trkpt lat="43.3586" lon="5.52984">
        <ele>420.71</ele>
        <time>2014-03-21T13:03:05Z</time>
      </trkpt>
      <trkpt lat="43.35863" lon="5.52979">
        <ele>420.71</ele>
        <time>2014-03-21T13:03:09Z</time>
      </trkpt>
      <trkpt lat="43.35866" lon="5.52959">
        <ele>421.19</ele>
        <time>2014-03-21T13:03:21Z</time>
      </trkpt>
      <trkpt lat="43.35869" lon="5.52951">
        <ele>421.19</ele>
        <time>2014-03-21T13:03:26Z</time>
      </trkpt>
      <trkpt lat="43.35872" lon="5.52939">
        <ele>421.68</ele>
        <time>2014-03-21T13:03:34Z</time>
      </trkpt>
      <trkpt lat="43.35873" lon="5.52934">
        <ele>421.68</ele>
        <time>2014-03-21T13:03:37Z</time>
      </trkpt>
      <trkpt lat="43.35875" lon="5.52912">
        <ele>422.16</ele>
        <time>2014-03-21T13:03:50Z</time>
      </trkpt>
      <trkpt lat="43.35874" lon="5.52911">
        <ele>422.16</ele>
        <time>2014-03-21T13:03:51Z</time>
      </trkpt>
      <trkpt lat="43.35873" lon="5.52897">
        <ele>422.64</ele>
        <time>2014-03-21T13:03:58Z</time>
      </trkpt>
      <trkpt lat="43.35872" lon="5.52881">
        <ele>422.16</ele>
        <time>2014-03-21T13:04:08Z</time>
      </trkpt>
      <trkpt lat="43.35871" lon="5.52862">
        <ele>422.16</ele>
        <time>2014-03-21T13:04:19Z</time>
      </trkpt>
      <trkpt lat="43.35871" lon="5.52843">
        <ele>421.68</ele>
        <time>2014-03-21T13:04:30Z</time>
      </trkpt>
      <trkpt lat="43.3587" lon="5.52834">
        <ele>421.68</ele>
        <time>2014-03-21T13:04:36Z</time>
      </trkpt>
      <trkpt lat="43.3587" lon="5.52817">
        <ele>421.19</ele>
        <time>2014-03-21T13:04:45Z</time>
      </trkpt>
      <trkpt lat="43.35868" lon="5.52804">
        <ele>420.71</ele>
        <time>2014-03-21T13:04:54Z</time>
      </trkpt>
      <trkpt lat="43.35865" lon="5.52781">
        <ele>420.23</ele>
        <time>2014-03-21T13:05:05Z</time>
      </trkpt>
      <trkpt lat="43.35864" lon="5.52775">
        <ele>420.23</ele>
        <time>2014-03-21T13:05:09Z</time>
      </trkpt>
      <trkpt lat="43.35864" lon="5.52766">
        <ele>419.75</ele>
        <time>2014-03-21T13:05:15Z</time>
      </trkpt>
      <trkpt lat="43.35863" lon="5.52762">
        <ele>420.23</ele>
        <time>2014-03-21T13:05:18Z</time>
      </trkpt>
      <trkpt lat="43.35857" lon="5.52742">
        <ele>419.75</ele>
        <time>2014-03-21T13:05:29Z</time>
      </trkpt>
      <trkpt lat="43.35855" lon="5.52733">
        <ele>419.27</ele>
        <time>2014-03-21T13:05:36Z</time>
      </trkpt>
      <trkpt lat="43.35855" lon="5.5273">
        <ele>418.79</ele>
        <time>2014-03-21T13:05:38Z</time>
      </trkpt>
      <trkpt lat="43.3586" lon="5.52713">
        <ele>417.83</ele>
        <time>2014-03-21T13:05:47Z</time>
      </trkpt>
      <trkpt lat="43.35867" lon="5.52701">
        <ele>417.35</ele>
        <time>2014-03-21T13:05:57Z</time>
      </trkpt>
      <trkpt lat="43.35872" lon="5.52695">
        <ele>417.35</ele>
        <time>2014-03-21T13:06:02Z</time>
      </trkpt>
      <trkpt lat="43.35874" lon="5.52692">
        <ele>417.35</ele>
        <time>2014-03-21T13:06:06Z</time>
      </trkpt>
      <trkpt lat="43.3588" lon="5.52676">
        <ele>416.39</ele>
        <time>2014-03-21T13:06:14Z</time>
      </trkpt>
      <trkpt lat="43.35881" lon="5.52665">
        <ele>414.95</ele>
        <time>2014-03-21T13:06:24Z</time>
      </trkpt>
      <trkpt lat="43.35887" lon="5.52647">
        <ele>413.98</ele>
        <time>2014-03-21T13:06:32Z</time>
      </trkpt>
      <trkpt lat="43.35892" lon="5.52626">
        <ele>412.06</ele>
        <time>2014-03-21T13:06:43Z</time>
      </trkpt>
      <trkpt lat="43.35891" lon="5.52623">
        <ele>411.58</ele>
        <time>2014-03-21T13:06:46Z</time>
      </trkpt>
      <trkpt lat="43.35892" lon="5.52608">
        <ele>410.14</ele>
        <time>2014-03-21T13:06:57Z</time>
      </trkpt>
      <trkpt lat="43.35892" lon="5.52591">
        <ele>407.74</ele>
        <time>2014-03-21T13:07:07Z</time>
      </trkpt>
      <trkpt lat="43.35888" lon="5.52572">
        <ele>405.33</ele>
        <time>2014-03-21T13:07:20Z</time>
      </trkpt>
      <trkpt lat="43.35885" lon="5.52549">
        <ele>403.89</ele>
        <time>2014-03-21T13:07:33Z</time>
      </trkpt>
      <trkpt lat="43.3588" lon="5.52535">
        <ele>403.41</ele>
        <time>2014-03-21T13:07:43Z</time>
      </trkpt>
      <trkpt lat="43.35873" lon="5.52518">
        <ele>402.45</ele>
        <time>2014-03-21T13:07:54Z</time>
      </trkpt>
      <trkpt lat="43.35867" lon="5.52507">
        <ele>401.49</ele>
        <time>2014-03-21T13:08:03Z</time>
      </trkpt>
      <trkpt lat="43.35861" lon="5.52486">
        <ele>399.57</ele>
        <time>2014-03-21T13:08:17Z</time>
      </trkpt>
      <trkpt lat="43.35857" lon="5.52469">
        <ele>397.64</ele>
        <time>2014-03-21T13:08:28Z</time>
      </trkpt>
      <trkpt lat="43.35851" lon="5.52448">
        <ele>395.72</ele>
        <time>2014-03-21T13:08:41Z</time>
      </trkpt>
      <trkpt lat="43.35846" lon="5.52437">
        <ele>394.76</ele>
        <time>2014-03-21T13:08:48Z</time>
      </trkpt>
      <trkpt lat="43.35842" lon="5.52418">
        <ele>392.36</ele>
        <time>2014-03-21T13:09:00Z</time>
      </trkpt>
      <trkpt lat="43.35843" lon="5.52401">
        <ele>390.91</ele>
        <time>2014-03-21T13:09:12Z</time>
      </trkpt>
      <trkpt lat="43.35843" lon="5.52399">
        <ele>390.91</ele>
        <time>2014-03-21T13:09:13Z</time>
      </trkpt>
      <trkpt lat="43.35843" lon="5.52384">
        <ele>388.99</ele>
        <time>2014-03-21T13:09:23Z</time>
      </trkpt>
      <trkpt lat="43.35845" lon="5.52377">
        <ele>388.03</ele>
        <time>2014-03-21T13:09:28Z</time>
      </trkpt>
      <trkpt lat="43.35846" lon="5.52359">
        <ele>385.63</ele>
        <time>2014-03-21T13:09:40Z</time>
      </trkpt>
      <trkpt lat="43.35846" lon="5.52351">
        <ele>384.66</ele>
        <time>2014-03-21T13:09:45Z</time>
      </trkpt>
      <trkpt lat="43.35848" lon="5.52342">
        <ele>383.7</ele>
        <time>2014-03-21T13:09:52Z</time>
      </trkpt>
      <trkpt lat="43.35855" lon="5.52326">
        <ele>380.82</ele>
        <time>2014-03-21T13:10:04Z</time>
      </trkpt>
      <trkpt lat="43.35856" lon="5.52319">
        <ele>379.86</ele>
        <time>2014-03-21T13:10:09Z</time>
      </trkpt>
      <trkpt lat="43.35862" lon="5.52308">
        <ele>378.42</ele>
        <time>2014-03-21T13:10:17Z</time>
      </trkpt>
      <trkpt lat="43.35867" lon="5.52291">
        <ele>376.49</ele>
        <time>2014-03-21T13:10:30Z</time>
      </trkpt>
      <trkpt lat="43.35867" lon="5.52288">
        <ele>376.01</ele>
        <time>2014-03-21T13:10:32Z</time>
      </trkpt>
      <trkpt lat="43.35874" lon="5.52274">
        <ele>374.57</ele>
        <time>2014-03-21T13:10:43Z</time>
      </trkpt>
      <trkpt lat="43.35879" lon="5.52261">
        <ele>373.13</ele>
        <time>2014-03-21T13:10:51Z</time>
      </trkpt>
      <trkpt lat="43.35883" lon="5.52253">
        <ele>371.69</ele>
        <time>2014-03-21T13:10:57Z</time>
      </trkpt>
      <trkpt lat="43.35884" lon="5.52248">
        <ele>371.21</ele>
        <time>2014-03-21T13:11:00Z</time>
      </trkpt>
      <trkpt lat="43.35888" lon="5.52231">
        <ele>368.8</ele>
        <time>2014-03-21T13:11:11Z</time>
      </trkpt>
      <trkpt lat="43.35889" lon="5.52229">
        <ele>368.8</ele>
        <time>2014-03-21T13:11:13Z</time>
      </trkpt>
      <trkpt lat="43.3589" lon="5.52221">
        <ele>367.36</ele>
        <time>2014-03-21T13:11:19Z</time>
      </trkpt>
      <trkpt lat="43.35894" lon="5.52215">
        <ele>366.4</ele>
        <time>2014-03-21T13:11:25Z</time>
      </trkpt>
      <trkpt lat="43.35899" lon="5.52214">
        <ele>366.4</ele>
        <time>2014-03-21T13:11:35Z</time>
      </trkpt>
      <trkpt lat="43.35901" lon="5.52209">
        <ele>365.92</ele>
        <time>2014-03-21T13:11:54Z</time>
      </trkpt>
      <trkpt lat="43.35902" lon="5.52205">
        <ele>365.44</ele>
        <time>2014-03-21T13:11:57Z</time>
      </trkpt>
      <trkpt lat="43.35906" lon="5.52199">
        <ele>364.48</ele>
        <time>2014-03-21T13:12:02Z</time>
      </trkpt>
      <trkpt lat="43.35914" lon="5.52181">
        <ele>362.55</ele>
        <time>2014-03-21T13:12:15Z</time>
      </trkpt>
      <trkpt lat="43.3592" lon="5.52168">
        <ele>361.11</ele>
        <time>2014-03-21T13:12:26Z</time>
      </trkpt>
      <trkpt lat="43.35924" lon="5.52156">
        <ele>360.15</ele>
        <time>2014-03-21T13:12:36Z</time>
      </trkpt>
      <trkpt lat="43.35928" lon="5.52155">
        <ele>360.15</ele>
        <time>2014-03-21T13:12:39Z</time>
      </trkpt>
      <trkpt lat="43.35931" lon="5.52157">
        <ele>360.15</ele>
        <time>2014-03-21T13:12:42Z</time>
      </trkpt>
      <trkpt lat="43.35934" lon="5.52162">
        <ele>360.15</ele>
        <time>2014-03-21T13:12:46Z</time>
      </trkpt>
      <trkpt lat="43.35933" lon="5.5216">
        <ele>360.15</ele>
        <time>2014-03-21T13:12:53Z</time>
      </trkpt>
      <trkpt lat="43.35932" lon="5.52156">
        <ele>360.15</ele>
        <time>2014-03-21T13:13:03Z</time>
      </trkpt>
      <trkpt lat="43.35935" lon="5.52167">
        <ele>359.67</ele>
        <time>2014-03-21T13:13:12Z</time>
      </trkpt>
      <trkpt lat="43.35935" lon="5.52172">
        <ele>359.19</ele>
        <time>2014-03-21T13:13:15Z</time>
      </trkpt>
      <trkpt lat="43.35932" lon="5.52191">
        <ele>357.75</ele>
        <time>2014-03-21T13:13:27Z</time>
      </trkpt>
      <trkpt lat="43.3593" lon="5.52197">
        <ele>357.27</ele>
        <time>2014-03-21T13:13:31Z</time>
      </trkpt>
      <trkpt lat="43.35929" lon="5.52216">
        <ele>356.31</ele>
        <time>2014-03-21T13:13:42Z</time>
      </trkpt>
      <trkpt lat="43.35928" lon="5.52227">
        <ele>355.34</ele>
        <time>2014-03-21T13:13:51Z</time>
      </trkpt>
      <trkpt lat="43.35926" lon="5.52245">
        <ele>355.34</ele>
        <time>2014-03-21T13:14:01Z</time>
      </trkpt>
      <trkpt lat="43.35927" lon="5.52256">
        <ele>354.86</ele>
        <time>2014-03-21T13:14:08Z</time>
      </trkpt>
      <trkpt lat="43.35927" lon="5.5227">
        <ele>353.9</ele>
        <time>2014-03-21T13:14:18Z</time>
      </trkpt>
      <trkpt lat="43.35928" lon="5.52289">
        <ele>353.42</ele>
        <time>2014-03-21T13:14:29Z</time>
      </trkpt>
      <trkpt lat="43.35931" lon="5.52305">
        <ele>352.94</ele>
        <time>2014-03-21T13:14:39Z</time>
      </trkpt>
      <trkpt lat="43.3594" lon="5.52321">
        <ele>352.46</ele>
        <time>2014-03-21T13:14:52Z</time>
      </trkpt>
      <trkpt lat="43.35944" lon="5.52323">
        <ele>352.46</ele>
        <time>2014-03-21T13:15:03Z</time>
      </trkpt>
      <trkpt lat="43.35949" lon="5.52325">
        <ele>351.5</ele>
        <time>2014-03-21T13:15:10Z</time>
      </trkpt>
      <trkpt lat="43.35958" lon="5.52327">
        <ele>350.06</ele>
        <time>2014-03-21T13:15:20Z</time>
      </trkpt>
      <trkpt lat="43.35957" lon="5.52316">
        <ele>349.1</ele>
        <time>2014-03-21T13:15:30Z</time>
      </trkpt>
      <trkpt lat="43.35953" lon="5.5231">
        <ele>347.17</ele>
        <time>2014-03-21T13:15:40Z</time>
      </trkpt>
      <trkpt lat="43.35946" lon="5.52297">
        <ele>345.73</ele>
        <time>2014-03-21T13:15:50Z</time>
      </trkpt>
      <trkpt lat="43.35946" lon="5.52296">
        <ele>345.73</ele>
        <time>2014-03-21T13:15:51Z</time>
      </trkpt>
      <trkpt lat="43.35947" lon="5.52284">
        <ele>343.81</ele>
        <time>2014-03-21T13:16:02Z</time>
      </trkpt>
      <trkpt lat="43.3595" lon="5.52274">
        <ele>342.85</ele>
        <time>2014-03-21T13:16:12Z</time>
      </trkpt>
      <trkpt lat="43.35951" lon="5.52266">
        <ele>341.41</ele>
        <time>2014-03-21T13:16:20Z</time>
      </trkpt>
      <trkpt lat="43.35953" lon="5.52262">
        <ele>339.96</ele>
        <time>2014-03-21T13:16:29Z</time>
      </trkpt>
      <trkpt lat="43.35961" lon="5.52247">
        <ele>337.56</ele>
        <time>2014-03-21T13:16:41Z</time>
      </trkpt>
      <trkpt lat="43.35965" lon="5.52235">
        <ele>336.6</ele>
        <time>2014-03-21T13:16:52Z</time>
      </trkpt>
      <trkpt lat="43.35968" lon="5.52222">
        <ele>335.16</ele>
        <time>2014-03-21T13:17:02Z</time>
      </trkpt>
      <trkpt lat="43.35975" lon="5.52208">
        <ele>333.23</ele>
        <time>2014-03-21T13:17:13Z</time>
      </trkpt>
      <trkpt lat="43.35979" lon="5.52201">
        <ele>332.75</ele>
        <time>2014-03-21T13:17:20Z</time>
      </trkpt>
      <trkpt lat="43.3599" lon="5.52194">
        <ele>331.31</ele>
        <time>2014-03-21T13:17:31Z</time>
      </trkpt>
      <trkpt lat="43.36" lon="5.52188">
        <ele>330.35</ele>
        <time>2014-03-21T13:17:42Z</time>
      </trkpt>
      <trkpt lat="43.36008" lon="5.52183">
        <ele>329.39</ele>
        <time>2014-03-21T13:17:52Z</time>
      </trkpt>
      <trkpt lat="43.36015" lon="5.52175">
        <ele>328.43</ele>
        <time>2014-03-21T13:18:00Z</time>
      </trkpt>
      <trkpt lat="43.36024" lon="5.52161">
        <ele>327.47</ele>
        <time>2014-03-21T13:18:12Z</time>
      </trkpt>
      <trkpt lat="43.36035" lon="5.52147">
        <ele>326.02</ele>
        <time>2014-03-21T13:18:25Z</time>
      </trkpt>
      <trkpt lat="43.36042" lon="5.52138">
        <ele>325.06</ele>
        <time>2014-03-21T13:18:34Z</time>
      </trkpt>
      <trkpt lat="43.36054" lon="5.52134">
        <ele>324.58</ele>
        <time>2014-03-21T13:18:45Z</time>
      </trkpt>
      <trkpt lat="43.36066" lon="5.52133">
        <ele>323.14</ele>
        <time>2014-03-21T13:18:56Z</time>
      </trkpt>
      <trkpt lat="43.36072" lon="5.52134">
        <ele>321.7</ele>
        <time>2014-03-21T13:19:05Z</time>
      </trkpt>
      <trkpt lat="43.36079" lon="5.52135">
        <ele>319.78</ele>
        <time>2014-03-21T13:19:15Z</time>
      </trkpt>
      <trkpt lat="43.36088" lon="5.52135">
        <ele>318.81</ele>
        <time>2014-03-21T13:19:25Z</time>
      </trkpt>
      <trkpt lat="43.361" lon="5.52134">
        <ele>317.37</ele>
        <time>2014-03-21T13:19:35Z</time>
      </trkpt>
      <trkpt lat="43.36111" lon="5.5213">
        <ele>315.93</ele>
        <time>2014-03-21T13:19:48Z</time>
      </trkpt>
      <trkpt lat="43.3612" lon="5.52123">
        <ele>315.45</ele>
        <time>2014-03-21T13:19:57Z</time>
      </trkpt>
      <trkpt lat="43.3613" lon="5.52112">
        <ele>313.53</ele>
        <time>2014-03-21T13:20:08Z</time>
      </trkpt>
      <trkpt lat="43.36141" lon="5.52104">
        <ele>312.57</ele>
        <time>2014-03-21T13:20:18Z</time>
      </trkpt>
      <trkpt lat="43.3615" lon="5.52097">
        <ele>312.09</ele>
        <time>2014-03-21T13:20:27Z</time>
      </trkpt>
      <trkpt lat="43.36157" lon="5.5209">
        <ele>310.64</ele>
        <time>2014-03-21T13:20:38Z</time>
      </trkpt>
      <trkpt lat="43.36162" lon="5.52086">
        <ele>309.2</ele>
        <time>2014-03-21T13:20:47Z</time>
      </trkpt>
      <trkpt lat="43.36173" lon="5.52081">
        <ele>307.76</ele>
        <time>2014-03-21T13:20:58Z</time>
      </trkpt>
      <trkpt lat="43.36185" lon="5.52081">
        <ele>307.28</ele>
        <time>2014-03-21T13:21:09Z</time>
      </trkpt>
      <trkpt lat="43.36195" lon="5.5208">
        <ele>305.84</ele>
        <time>2014-03-21T13:21:19Z</time>
      </trkpt>
      <trkpt lat="43.36202" lon="5.52076">
        <ele>304.88</ele>
        <time>2014-03-21T13:21:28Z</time>
      </trkpt>
      <trkpt lat="43.36212" lon="5.5207">
        <ele>303.43</ele>
        <time>2014-03-21T13:21:37Z</time>
      </trkpt>
      <trkpt lat="43.3622" lon="5.52063">
        <ele>301.99</ele>
        <time>2014-03-21T13:21:48Z</time>
      </trkpt>
      <trkpt lat="43.36226" lon="5.52062">
        <ele>300.07</ele>
        <time>2014-03-21T13:22:00Z</time>
      </trkpt>
      <trkpt lat="43.36233" lon="5.52059">
        <ele>298.63</ele>
        <time>2014-03-21T13:22:10Z</time>
      </trkpt>
      <trkpt lat="43.36246" lon="5.52059">
        <ele>297.18</ele>
        <time>2014-03-21T13:22:20Z</time>
      </trkpt>
      <trkpt lat="43.36254" lon="5.52054">
        <ele>296.22</ele>
        <time>2014-03-21T13:22:31Z</time>
      </trkpt>
      <trkpt lat="43.36263" lon="5.52048">
        <ele>294.78</ele>
        <time>2014-03-21T13:22:40Z</time>
      </trkpt>
      <trkpt lat="43.36269" lon="5.52042">
        <ele>293.82</ele>
        <time>2014-03-21T13:22:50Z</time>
      </trkpt>
      <trkpt lat="43.36271" lon="5.52033">
        <ele>291.9</ele>
        <time>2014-03-21T13:22:59Z</time>
      </trkpt>
      <trkpt lat="43.36275" lon="5.52022">
        <ele>290.46</ele>
        <time>2014-03-21T13:23:09Z</time>
      </trkpt>
      <trkpt lat="43.36278" lon="5.52006">
        <ele>289.01</ele>
        <time>2014-03-21T13:23:19Z</time>
      </trkpt>
      <trkpt lat="43.36279" lon="5.51999">
        <ele>289.01</ele>
        <time>2014-03-21T13:23:23Z</time>
      </trkpt>
      <trkpt lat="43.36284" lon="5.51984">
        <ele>287.57</ele>
        <time>2014-03-21T13:23:35Z</time>
      </trkpt>
      <trkpt lat="43.36289" lon="5.51979">
        <ele>286.61</ele>
        <time>2014-03-21T13:23:40Z</time>
      </trkpt>
      <trkpt lat="43.363" lon="5.51964">
        <ele>285.65</ele>
        <time>2014-03-21T13:23:52Z</time>
      </trkpt>
      <trkpt lat="43.36309" lon="5.51949">
        <ele>284.21</ele>
        <time>2014-03-21T13:24:05Z</time>
      </trkpt>
      <trkpt lat="43.36315" lon="5.5194">
        <ele>283.25</ele>
        <time>2014-03-21T13:24:15Z</time>
      </trkpt>
      <trkpt lat="43.36318" lon="5.51937">
        <ele>282.77</ele>
        <time>2014-03-21T13:24:19Z</time>
      </trkpt>
      <trkpt lat="43.3632" lon="5.51935">
        <ele>282.77</ele>
        <time>2014-03-21T13:24:21Z</time>
      </trkpt>
      <trkpt lat="43.36333" lon="5.51933">
        <ele>281.8</ele>
        <time>2014-03-21T13:24:32Z</time>
      </trkpt>
      <trkpt lat="43.36345" lon="5.51939">
        <ele>280.84</ele>
        <time>2014-03-21T13:24:44Z</time>
      </trkpt>
      <trkpt lat="43.36354" lon="5.51944">
        <ele>279.4</ele>
        <time>2014-03-21T13:24:54Z</time>
      </trkpt>
      <trkpt lat="43.36364" lon="5.51951">
        <ele>278.44</ele>
        <time>2014-03-21T13:25:05Z</time>
      </trkpt>
      <trkpt lat="43.36376" lon="5.5196">
        <ele>277.48</ele>
        <time>2014-03-21T13:25:16Z</time>
      </trkpt>
      <trkpt lat="43.36388" lon="5.51965">
        <ele>276.52</ele>
        <time>2014-03-21T13:25:27Z</time>
      </trkpt>
      <trkpt lat="43.36393" lon="5.51963">
        <ele>275.07</ele>
        <time>2014-03-21T13:25:33Z</time>
      </trkpt>
      <trkpt lat="43.36397" lon="5.51957">
        <ele>274.11</ele>
        <time>2014-03-21T13:25:43Z</time>
      </trkpt>
      <trkpt lat="43.36398" lon="5.51957">
        <ele>274.11</ele>
        <time>2014-03-21T13:25:44Z</time>
      </trkpt>
      <trkpt lat="43.36407" lon="5.51944">
        <ele>273.15</ele>
        <time>2014-03-21T13:25:57Z</time>
      </trkpt>
      <trkpt lat="43.36408" lon="5.51942">
        <ele>272.67</ele>
        <time>2014-03-21T13:25:59Z</time>
      </trkpt>
      <trkpt lat="43.36413" lon="5.51934">
        <ele>272.19</ele>
        <time>2014-03-21T13:26:08Z</time>
      </trkpt>
      <trkpt lat="43.36424" lon="5.51924">
        <ele>271.23</ele>
        <time>2014-03-21T13:26:19Z</time>
      </trkpt>
      <trkpt lat="43.3643" lon="5.51914">
        <ele>270.27</ele>
        <time>2014-03-21T13:26:29Z</time>
      </trkpt>
      <trkpt lat="43.36437" lon="5.51903">
        <ele>269.31</ele>
        <time>2014-03-21T13:26:39Z</time>
      </trkpt>
      <trkpt lat="43.36442" lon="5.51898">
        <ele>268.83</ele>
        <time>2014-03-21T13:26:45Z</time>
      </trkpt>
      <trkpt lat="43.36451" lon="5.51893">
        <ele>268.35</ele>
        <time>2014-03-21T13:26:51Z</time>
      </trkpt>
      <trkpt lat="43.36465" lon="5.51891">
        <ele>266.9</ele>
        <time>2014-03-21T13:27:02Z</time>
      </trkpt>
      <trkpt lat="43.36471" lon="5.51892">
        <ele>265.94</ele>
        <time>2014-03-21T13:27:11Z</time>
      </trkpt>
      <trkpt lat="43.3648" lon="5.51891">
        <ele>265.94</ele>
        <time>2014-03-21T13:27:17Z</time>
      </trkpt>
      <trkpt lat="43.36494" lon="5.5189">
        <ele>264.98</ele>
        <time>2014-03-21T13:27:29Z</time>
      </trkpt>
      <trkpt lat="43.36503" lon="5.519">
        <ele>265.46</ele>
        <time>2014-03-21T13:27:40Z</time>
      </trkpt>
      <trkpt lat="43.36506" lon="5.51906">
        <ele>265.46</ele>
        <time>2014-03-21T13:27:45Z</time>
      </trkpt>
      <trkpt lat="43.36509" lon="5.51911">
        <ele>265.94</ele>
        <time>2014-03-21T13:27:49Z</time>
      </trkpt>
      <trkpt lat="43.36521" lon="5.51921">
        <ele>266.42</ele>
        <time>2014-03-21T13:28:01Z</time>
      </trkpt>
      <trkpt lat="43.36528" lon="5.51927">
        <ele>266.9</ele>
        <time>2014-03-21T13:28:11Z</time>
      </trkpt>
      <trkpt lat="43.36531" lon="5.51936">
        <ele>268.35</ele>
        <time>2014-03-21T13:28:20Z</time>
      </trkpt>
      <trkpt lat="43.36535" lon="5.51943">
        <ele>267.38</ele>
        <time>2014-03-21T13:28:29Z</time>
      </trkpt>
      <trkpt lat="43.36538" lon="5.51953">
        <ele>267.86</ele>
        <time>2014-03-21T13:28:36Z</time>
      </trkpt>
      <trkpt lat="43.36541" lon="5.51966">
        <ele>268.35</ele>
        <time>2014-03-21T13:28:45Z</time>
      </trkpt>
      <trkpt lat="43.36541" lon="5.51969">
        <ele>268.35</ele>
        <time>2014-03-21T13:28:47Z</time>
      </trkpt>
      <trkpt lat="43.36536" lon="5.51991">
        <ele>268.83</ele>
        <time>2014-03-21T13:29:00Z</time>
      </trkpt>
      <trkpt lat="43.36543" lon="5.52003">
        <ele>268.83</ele>
        <time>2014-03-21T13:29:12Z</time>
      </trkpt>
      <trkpt lat="43.36544" lon="5.52005">
        <ele>268.83</ele>
        <time>2014-03-21T13:29:16Z</time>
      </trkpt>
      <trkpt lat="43.36551" lon="5.52011">
        <ele>269.79</ele>
        <time>2014-03-21T13:29:25Z</time>
      </trkpt>
      <trkpt lat="43.36557" lon="5.52014">
        <ele>270.75</ele>
        <time>2014-03-21T13:29:37Z</time>
      </trkpt>
      <trkpt lat="43.36558" lon="5.52014">
        <ele>270.75</ele>
        <time>2014-03-21T13:29:55Z</time>
      </trkpt>
      <trkpt lat="43.36559" lon="5.52013">
        <ele>270.75</ele>
        <time>2014-03-21T13:30:17Z</time>
      </trkpt>
      <trkpt lat="43.36565" lon="5.52016">
        <ele>272.19</ele>
        <time>2014-03-21T13:30:27Z</time>
      </trkpt>
      <trkpt lat="43.36569" lon="5.52016">
        <ele>273.15</ele>
        <time>2014-03-21T13:30:38Z</time>
      </trkpt>
      <trkpt lat="43.36572" lon="5.52018">
        <ele>274.11</ele>
        <time>2014-03-21T13:30:49Z</time>
      </trkpt>
      <trkpt lat="43.36581" lon="5.52016">
        <ele>276.52</ele>
        <time>2014-03-21T13:31:01Z</time>
      </trkpt>
      <trkpt lat="43.36586" lon="5.5201">
        <ele>278.44</ele>
        <time>2014-03-21T13:31:14Z</time>
      </trkpt>
      <trkpt lat="43.36586" lon="5.52003">
        <ele>280.36</ele>
        <time>2014-03-21T13:31:27Z</time>
      </trkpt>
      <trkpt lat="43.36588" lon="5.51993">
        <ele>282.77</ele>
        <time>2014-03-21T13:31:39Z</time>
      </trkpt>
      <trkpt lat="43.36591" lon="5.51979">
        <ele>284.21</ele>
        <time>2014-03-21T13:31:52Z</time>
      </trkpt>
      <trkpt lat="43.36597" lon="5.51971">
        <ele>284.69</ele>
        <time>2014-03-21T13:32:02Z</time>
      </trkpt>
      <trkpt lat="43.36601" lon="5.51966">
        <ele>285.65</ele>
        <time>2014-03-21T13:32:12Z</time>
      </trkpt>
      <trkpt lat="43.36606" lon="5.51962">
        <ele>286.61</ele>
        <time>2014-03-21T13:32:21Z</time>
      </trkpt>
      <trkpt lat="43.36614" lon="5.5196">
        <ele>288.05</ele>
        <time>2014-03-21T13:32:32Z</time>
      </trkpt>
      <trkpt lat="43.36621" lon="5.51962">
        <ele>289.49</ele>
        <time>2014-03-21T13:32:44Z</time>
      </trkpt>
      <trkpt lat="43.36628" lon="5.51974">
        <ele>290.94</ele>
        <time>2014-03-21T13:32:55Z</time>
      </trkpt>
      <trkpt lat="43.36635" lon="5.51981">
        <ele>292.38</ele>
        <time>2014-03-21T13:33:07Z</time>
      </trkpt>
      <trkpt lat="43.36644" lon="5.51984">
        <ele>292.86</ele>
        <time>2014-03-21T13:33:17Z</time>
      </trkpt>
      <trkpt lat="43.3665" lon="5.51989">
        <ele>293.82</ele>
        <time>2014-03-21T13:33:28Z</time>
      </trkpt>
      <trkpt lat="43.36652" lon="5.5199">
        <ele>293.82</ele>
        <time>2014-03-21T13:33:31Z</time>
      </trkpt>
      <trkpt lat="43.36654" lon="5.51992">
        <ele>293.82</ele>
        <time>2014-03-21T13:33:33Z</time>
      </trkpt>
      <trkpt lat="43.36658" lon="5.52003">
        <ele>295.26</ele>
        <time>2014-03-21T13:33:43Z</time>
      </trkpt>
      <trkpt lat="43.36659" lon="5.52008">
        <ele>295.26</ele>
        <time>2014-03-21T13:33:48Z</time>
      </trkpt>
      <trkpt lat="43.3666" lon="5.5201">
        <ele>296.22</ele>
        <time>2014-03-21T13:33:50Z</time>
      </trkpt>
      <trkpt lat="43.36663" lon="5.5202">
        <ele>296.22</ele>
        <time>2014-03-21T13:33:59Z</time>
      </trkpt>
      <trkpt lat="43.36665" lon="5.52031">
        <ele>296.7</ele>
        <time>2014-03-21T13:34:10Z</time>
      </trkpt>
      <trkpt lat="43.36669" lon="5.52037">
        <ele>297.67</ele>
        <time>2014-03-21T13:34:20Z</time>
      </trkpt>
      <trkpt lat="43.36679" lon="5.52042">
        <ele>298.15</ele>
        <time>2014-03-21T13:34:28Z</time>
      </trkpt>
      <trkpt lat="43.36686" lon="5.52049">
        <ele>298.63</ele>
        <time>2014-03-21T13:34:38Z</time>
      </trkpt>
      <trkpt lat="43.36688" lon="5.5206">
        <ele>299.59</ele>
        <time>2014-03-21T13:34:49Z</time>
      </trkpt>
      <trkpt lat="43.36688" lon="5.52063">
        <ele>300.07</ele>
        <time>2014-03-21T13:34:51Z</time>
      </trkpt>
      <trkpt lat="43.36687" lon="5.52081">
        <ele>301.03</ele>
        <time>2014-03-21T13:35:04Z</time>
      </trkpt>
      <trkpt lat="43.36688" lon="5.52089">
        <ele>301.51</ele>
        <time>2014-03-21T13:35:11Z</time>
      </trkpt>
      <trkpt lat="43.36692" lon="5.52099">
        <ele>301.99</ele>
        <time>2014-03-21T13:35:19Z</time>
      </trkpt>
      <trkpt lat="43.36696" lon="5.52112">
        <ele>302.95</ele>
        <time>2014-03-21T13:35:30Z</time>
      </trkpt>
      <trkpt lat="43.36695" lon="5.52116">
        <ele>302.47</ele>
        <time>2014-03-21T13:35:33Z</time>
      </trkpt>
      <trkpt lat="43.3669" lon="5.5213">
        <ele>303.43</ele>
        <time>2014-03-21T13:35:45Z</time>
      </trkpt>
      <trkpt lat="43.36685" lon="5.52138">
        <ele>304.39</ele>
        <time>2014-03-21T13:35:55Z</time>
      </trkpt>
      <trkpt lat="43.36684" lon="5.52142">
        <ele>304.39</ele>
        <time>2014-03-21T13:36:03Z</time>
      </trkpt>
      <trkpt lat="43.36678" lon="5.52153">
        <ele>306.32</ele>
        <time>2014-03-21T13:36:12Z</time>
      </trkpt>
      <trkpt lat="43.36675" lon="5.52164">
        <ele>307.28</ele>
        <time>2014-03-21T13:36:23Z</time>
      </trkpt>
      <trkpt lat="43.3667" lon="5.52173">
        <ele>308.24</ele>
        <time>2014-03-21T13:36:33Z</time>
      </trkpt>
      <trkpt lat="43.36667" lon="5.52181">
        <ele>309.2</ele>
        <time>2014-03-21T13:36:42Z</time>
      </trkpt>
      <trkpt lat="43.36665" lon="5.52186">
        <ele>310.64</ele>
        <time>2014-03-21T13:36:51Z</time>
      </trkpt>
      <trkpt lat="43.36661" lon="5.52196">
        <ele>311.12</ele>
        <time>2014-03-21T13:37:01Z</time>
      </trkpt>
      <trkpt lat="43.36658" lon="5.52204">
        <ele>312.09</ele>
        <time>2014-03-21T13:37:11Z</time>
      </trkpt>
      <trkpt lat="43.36654" lon="5.52217">
        <ele>313.53</ele>
        <time>2014-03-21T13:37:23Z</time>
      </trkpt>
      <trkpt lat="43.36651" lon="5.52225">
        <ele>314.49</ele>
        <time>2014-03-21T13:37:33Z</time>
      </trkpt>
      <trkpt lat="43.36649" lon="5.52232">
        <ele>314.49</ele>
        <time>2014-03-21T13:37:38Z</time>
      </trkpt>
      <trkpt lat="43.36649" lon="5.52243">
        <ele>315.93</ele>
        <time>2014-03-21T13:37:49Z</time>
      </trkpt>
      <trkpt lat="43.36659" lon="5.52249">
        <ele>317.37</ele>
        <time>2014-03-21T13:38:01Z</time>
      </trkpt>
      <trkpt lat="43.36665" lon="5.52255">
        <ele>318.33</ele>
        <time>2014-03-21T13:38:10Z</time>
      </trkpt>
      <trkpt lat="43.36669" lon="5.5226">
        <ele>319.3</ele>
        <time>2014-03-21T13:38:20Z</time>
      </trkpt>
      <trkpt lat="43.36675" lon="5.52265">
        <ele>320.26</ele>
        <time>2014-03-21T13:38:29Z</time>
      </trkpt>
      <trkpt lat="43.36685" lon="5.52271">
        <ele>321.22</ele>
        <time>2014-03-21T13:38:41Z</time>
      </trkpt>
      <trkpt lat="43.36692" lon="5.52278">
        <ele>322.18</ele>
        <time>2014-03-21T13:38:51Z</time>
      </trkpt>
      <trkpt lat="43.36694" lon="5.52281">
        <ele>322.18</ele>
        <time>2014-03-21T13:38:55Z</time>
      </trkpt>
      <trkpt lat="43.36696" lon="5.52284">
        <ele>322.18</ele>
        <time>2014-03-21T13:38:57Z</time>
      </trkpt>
      <trkpt lat="43.367" lon="5.52295">
        <ele>322.18</ele>
        <time>2014-03-21T13:39:07Z</time>
      </trkpt>
      <trkpt lat="43.367" lon="5.52301">
        <ele>322.18</ele>
        <time>2014-03-21T13:39:12Z</time>
      </trkpt>
      <trkpt lat="43.36705" lon="5.52311">
        <ele>322.18</ele>
        <time>2014-03-21T13:39:21Z</time>
      </trkpt>
      <trkpt lat="43.36707" lon="5.52322">
        <ele>321.7</ele>
        <time>2014-03-21T13:39:29Z</time>
      </trkpt>
      <trkpt lat="43.3671" lon="5.52333">
        <ele>321.22</ele>
        <time>2014-03-21T13:39:38Z</time>
      </trkpt>
      <trkpt lat="43.36714" lon="5.52347">
        <ele>320.74</ele>
        <time>2014-03-21T13:39:48Z</time>
      </trkpt>
      <trkpt lat="43.36714" lon="5.52349">
        <ele>320.74</ele>
        <time>2014-03-21T13:39:49Z</time>
      </trkpt>
      <trkpt lat="43.36718" lon="5.52363">
        <ele>320.26</ele>
        <time>2014-03-21T13:40:01Z</time>
      </trkpt>
      <trkpt lat="43.36717" lon="5.52379">
        <ele>319.3</ele>
        <time>2014-03-21T13:40:14Z</time>
      </trkpt>
      <trkpt lat="43.36713" lon="5.52392">
        <ele>319.3</ele>
        <time>2014-03-21T13:40:24Z</time>
      </trkpt>
      <trkpt lat="43.3671" lon="5.524">
        <ele>319.3</ele>
        <time>2014-03-21T13:40:33Z</time>
      </trkpt>
      <trkpt lat="43.36704" lon="5.52411">
        <ele>319.3</ele>
        <time>2014-03-21T13:40:45Z</time>
      </trkpt>
      <trkpt lat="43.36702" lon="5.52415">
        <ele>318.81</ele>
        <time>2014-03-21T13:40:48Z</time>
      </trkpt>
      <trkpt lat="43.36694" lon="5.5243">
        <ele>318.33</ele>
        <time>2014-03-21T13:41:00Z</time>
      </trkpt>
      <trkpt lat="43.36691" lon="5.52437">
        <ele>317.37</ele>
        <time>2014-03-21T13:41:09Z</time>
      </trkpt>
      <trkpt lat="43.36689" lon="5.52444">
        <ele>317.37</ele>
        <time>2014-03-21T13:41:17Z</time>
      </trkpt>
      <trkpt lat="43.36684" lon="5.52458">
        <ele>317.85</ele>
        <time>2014-03-21T13:41:27Z</time>
      </trkpt>
      <trkpt lat="43.36683" lon="5.52474">
        <ele>317.37</ele>
        <time>2014-03-21T13:41:39Z</time>
      </trkpt>
      <trkpt lat="43.36683" lon="5.52483">
        <ele>317.37</ele>
        <time>2014-03-21T13:41:47Z</time>
      </trkpt>
      <trkpt lat="43.36678" lon="5.52501">
        <ele>316.89</ele>
        <time>2014-03-21T13:41:56Z</time>
      </trkpt>
      <trkpt lat="43.36675" lon="5.52513">
        <ele>316.41</ele>
        <time>2014-03-21T13:42:05Z</time>
      </trkpt>
      <trkpt lat="43.36676" lon="5.52529">
        <ele>314.97</ele>
        <time>2014-03-21T13:42:16Z</time>
      </trkpt>
      <trkpt lat="43.36673" lon="5.52536">
        <ele>313.53</ele>
        <time>2014-03-21T13:42:24Z</time>
      </trkpt>
      <trkpt lat="43.36671" lon="5.52537">
        <ele>313.05</ele>
        <time>2014-03-21T13:42:31Z</time>
      </trkpt>
      <trkpt lat="43.36665" lon="5.52543">
        <ele>312.57</ele>
        <time>2014-03-21T13:42:41Z</time>
      </trkpt>
      <trkpt lat="43.36656" lon="5.5256">
        <ele>311.6</ele>
        <time>2014-03-21T13:42:52Z</time>
      </trkpt>
      <trkpt lat="43.3665" lon="5.52576">
        <ele>311.12</ele>
        <time>2014-03-21T13:43:04Z</time>
      </trkpt>
      <trkpt lat="43.36644" lon="5.52589">
        <ele>309.2</ele>
        <time>2014-03-21T13:43:15Z</time>
      </trkpt>
      <trkpt lat="43.3664" lon="5.52598">
        <ele>307.28</ele>
        <time>2014-03-21T13:43:25Z</time>
      </trkpt>
      <trkpt lat="43.36642" lon="5.52608">
        <ele>305.36</ele>
        <time>2014-03-21T13:43:33Z</time>
      </trkpt>
      <trkpt lat="43.3664" lon="5.52624">
        <ele>304.39</ele>
        <time>2014-03-21T13:43:44Z</time>
      </trkpt>
      <trkpt lat="43.36639" lon="5.52637">
        <ele>302.95</ele>
        <time>2014-03-21T13:43:54Z</time>
      </trkpt>
      <trkpt lat="43.36637" lon="5.52648">
        <ele>301.51</ele>
        <time>2014-03-21T13:44:01Z</time>
      </trkpt>
      <trkpt lat="43.36639" lon="5.52666">
        <ele>299.59</ele>
        <time>2014-03-21T13:44:12Z</time>
      </trkpt>
      <trkpt lat="43.36638" lon="5.52684">
        <ele>298.15</ele>
        <time>2014-03-21T13:44:22Z</time>
      </trkpt>
      <trkpt lat="43.36641" lon="5.52694">
        <ele>297.18</ele>
        <time>2014-03-21T13:44:29Z</time>
      </trkpt>
      <trkpt lat="43.36643" lon="5.52706">
        <ele>297.67</ele>
        <time>2014-03-21T13:44:39Z</time>
      </trkpt>
      <trkpt lat="43.36648" lon="5.52721">
        <ele>297.67</ele>
        <time>2014-03-21T13:44:50Z</time>
      </trkpt>
      <trkpt lat="43.36646" lon="5.52735">
        <ele>298.15</ele>
        <time>2014-03-21T13:45:00Z</time>
      </trkpt>
      <trkpt lat="43.36644" lon="5.52746">
        <ele>299.11</ele>
        <time>2014-03-21T13:45:10Z</time>
      </trkpt>
      <trkpt lat="43.36642" lon="5.52759">
        <ele>300.07</ele>
        <time>2014-03-21T13:45:20Z</time>
      </trkpt>
      <trkpt lat="43.36645" lon="5.52767">
        <ele>300.55</ele>
        <time>2014-03-21T13:45:27Z</time>
      </trkpt>
      <trkpt lat="43.36652" lon="5.52769">
        <ele>299.59</ele>
        <time>2014-03-21T13:45:37Z</time>
      </trkpt>
      <trkpt lat="43.36656" lon="5.52771">
        <ele>300.07</ele>
        <time>2014-03-21T13:45:48Z</time>
      </trkpt>
      <trkpt lat="43.36664" lon="5.52764">
        <ele>299.59</ele>
        <time>2014-03-21T13:45:58Z</time>
      </trkpt>
      <trkpt lat="43.36668" lon="5.52754">
        <ele>300.55</ele>
        <time>2014-03-21T13:46:06Z</time>
      </trkpt>
      <trkpt lat="43.36673" lon="5.5274">
        <ele>302.47</ele>
        <time>2014-03-21T13:46:18Z</time>
      </trkpt>
      <trkpt lat="43.3668" lon="5.52729">
        <ele>302.95</ele>
        <time>2014-03-21T13:46:27Z</time>
      </trkpt>
      <trkpt lat="43.36684" lon="5.52726">
        <ele>302.95</ele>
        <time>2014-03-21T13:46:31Z</time>
      </trkpt>
      <trkpt lat="43.3669" lon="5.52724">
        <ele>302.95</ele>
        <time>2014-03-21T13:46:36Z</time>
      </trkpt>
      <trkpt lat="43.36706" lon="5.52729">
        <ele>304.39</ele>
        <time>2014-03-21T13:46:49Z</time>
      </trkpt>
      <trkpt lat="43.36712" lon="5.52731">
        <ele>304.39</ele>
        <time>2014-03-21T13:46:55Z</time>
      </trkpt>
      <trkpt lat="43.36715" lon="5.52734">
        <ele>304.88</ele>
        <time>2014-03-21T13:46:59Z</time>
      </trkpt>
      <trkpt lat="43.36718" lon="5.52738">
        <ele>304.88</ele>
        <time>2014-03-21T13:47:03Z</time>
      </trkpt>
      <trkpt lat="43.36722" lon="5.52742">
        <ele>304.39</ele>
        <time>2014-03-21T13:47:06Z</time>
      </trkpt>
      <trkpt lat="43.36726" lon="5.52749">
        <ele>303.91</ele>
        <time>2014-03-21T13:47:12Z</time>
      </trkpt>
      <trkpt lat="43.36726" lon="5.52753">
        <ele>303.91</ele>
        <time>2014-03-21T13:47:15Z</time>
      </trkpt>
      <trkpt lat="43.36727" lon="5.52759">
        <ele>303.43</ele>
        <time>2014-03-21T13:47:18Z</time>
      </trkpt>
      <trkpt lat="43.36728" lon="5.52771">
        <ele>302.47</ele>
        <time>2014-03-21T13:47:25Z</time>
      </trkpt>
      <trkpt lat="43.36732" lon="5.52783">
        <ele>302.47</ele>
        <time>2014-03-21T13:47:34Z</time>
      </trkpt>
      <trkpt lat="43.36734" lon="5.52787">
        <ele>301.99</ele>
        <time>2014-03-21T13:47:37Z</time>
      </trkpt>
      <trkpt lat="43.36741" lon="5.52802">
        <ele>300.55</ele>
        <time>2014-03-21T13:47:48Z</time>
      </trkpt>
      <trkpt lat="43.36743" lon="5.52804">
        <ele>300.07</ele>
        <time>2014-03-21T13:47:50Z</time>
      </trkpt>
      <trkpt lat="43.36753" lon="5.52816">
        <ele>298.63</ele>
        <time>2014-03-21T13:48:00Z</time>
      </trkpt>
      <trkpt lat="43.36762" lon="5.52828">
        <ele>297.67</ele>
        <time>2014-03-21T13:48:10Z</time>
      </trkpt>
      <trkpt lat="43.36773" lon="5.5284">
        <ele>297.18</ele>
        <time>2014-03-21T13:48:22Z</time>
      </trkpt>
      <trkpt lat="43.36776" lon="5.52848">
        <ele>296.7</ele>
        <time>2014-03-21T13:48:28Z</time>
      </trkpt>
      <trkpt lat="43.36783" lon="5.52853">
        <ele>296.7</ele>
        <time>2014-03-21T13:48:33Z</time>
      </trkpt>
      <trkpt lat="43.36787" lon="5.52857">
        <ele>297.18</ele>
        <time>2014-03-21T13:48:37Z</time>
      </trkpt>
      <trkpt lat="43.36793" lon="5.52866">
        <ele>296.7</ele>
        <time>2014-03-21T13:48:44Z</time>
      </trkpt>
      <trkpt lat="43.36794" lon="5.52871">
        <ele>297.18</ele>
        <time>2014-03-21T13:48:48Z</time>
      </trkpt>
      <trkpt lat="43.36798" lon="5.52886">
        <ele>297.18</ele>
        <time>2014-03-21T13:48:57Z</time>
      </trkpt>
      <trkpt lat="43.368" lon="5.5289">
        <ele>297.67</ele>
        <time>2014-03-21T13:49:00Z</time>
      </trkpt>
      <trkpt lat="43.36805" lon="5.52899">
        <ele>298.15</ele>
        <time>2014-03-21T13:49:07Z</time>
      </trkpt>
      <trkpt lat="43.36811" lon="5.52908">
        <ele>299.11</ele>
        <time>2014-03-21T13:49:16Z</time>
      </trkpt>
      <trkpt lat="43.36813" lon="5.52914">
        <ele>300.07</ele>
        <time>2014-03-21T13:49:20Z</time>
      </trkpt>
      <trkpt lat="43.3682" lon="5.52928">
        <ele>301.03</ele>
        <time>2014-03-21T13:49:31Z</time>
      </trkpt>
      <trkpt lat="43.36824" lon="5.52933">
        <ele>301.51</ele>
        <time>2014-03-21T13:49:35Z</time>
      </trkpt>
      <trkpt lat="43.36839" lon="5.52937">
        <ele>301.03</ele>
        <time>2014-03-21T13:49:47Z</time>
      </trkpt>
      <trkpt lat="43.36851" lon="5.52935">
        <ele>302.47</ele>
        <time>2014-03-21T13:49:59Z</time>
      </trkpt>
      <trkpt lat="43.36861" lon="5.52932">
        <ele>303.43</ele>
        <time>2014-03-21T13:50:09Z</time>
      </trkpt>
      <trkpt lat="43.36862" lon="5.52932">
        <ele>303.43</ele>
        <time>2014-03-21T13:50:10Z</time>
      </trkpt>
      <trkpt lat="43.3687" lon="5.52931">
        <ele>304.39</ele>
        <time>2014-03-21T13:50:20Z</time>
      </trkpt>
      <trkpt lat="43.3688" lon="5.52935">
        <ele>305.36</ele>
        <time>2014-03-21T13:50:29Z</time>
      </trkpt>
      <trkpt lat="43.36883" lon="5.52939">
        <ele>305.84</ele>
        <time>2014-03-21T13:50:34Z</time>
      </trkpt>
      <trkpt lat="43.36886" lon="5.52942">
        <ele>306.32</ele>
        <time>2014-03-21T13:50:37Z</time>
      </trkpt>
      <trkpt lat="43.36889" lon="5.52945">
        <ele>306.8</ele>
        <time>2014-03-21T13:50:40Z</time>
      </trkpt>
      <trkpt lat="43.36892" lon="5.52951">
        <ele>307.76</ele>
        <time>2014-03-21T13:50:46Z</time>
      </trkpt>
      <trkpt lat="43.36897" lon="5.52956">
        <ele>308.24</ele>
        <time>2014-03-21T13:50:51Z</time>
      </trkpt>
      <trkpt lat="43.36898" lon="5.52959">
        <ele>308.24</ele>
        <time>2014-03-21T13:50:53Z</time>
      </trkpt>
      <trkpt lat="43.36901" lon="5.52964">
        <ele>308.24</ele>
        <time>2014-03-21T13:50:57Z</time>
      </trkpt>
      <trkpt lat="43.36905" lon="5.5297">
        <ele>308.72</ele>
        <time>2014-03-21T13:51:01Z</time>
      </trkpt>
      <trkpt lat="43.36906" lon="5.52982">
        <ele>309.2</ele>
        <time>2014-03-21T13:51:09Z</time>
      </trkpt>
      <trkpt lat="43.36906" lon="5.52996">
        <ele>310.16</ele>
        <time>2014-03-21T13:51:19Z</time>
      </trkpt>
      <trkpt lat="43.36904" lon="5.53013">
        <ele>311.12</ele>
        <time>2014-03-21T13:51:30Z</time>
      </trkpt>
      <trkpt lat="43.369" lon="5.53026">
        <ele>312.09</ele>
        <time>2014-03-21T13:51:40Z</time>
      </trkpt>
      <trkpt lat="43.36899" lon="5.53031">
        <ele>312.57</ele>
        <time>2014-03-21T13:51:45Z</time>
      </trkpt>
      <trkpt lat="43.36894" lon="5.53044">
        <ele>314.01</ele>
        <time>2014-03-21T13:51:56Z</time>
      </trkpt>
      <trkpt lat="43.3689" lon="5.53051">
        <ele>314.49</ele>
        <time>2014-03-21T13:52:05Z</time>
      </trkpt>
      <trkpt lat="43.36888" lon="5.53052">
        <ele>314.49</ele>
        <time>2014-03-21T13:52:06Z</time>
      </trkpt>
      <trkpt lat="43.36876" lon="5.53068">
        <ele>315.45</ele>
        <time>2014-03-21T13:52:18Z</time>
      </trkpt>
      <trkpt lat="43.36864" lon="5.53078">
        <ele>316.41</ele>
        <time>2014-03-21T13:52:29Z</time>
      </trkpt>
      <trkpt lat="43.3686" lon="5.53081">
        <ele>316.89</ele>
        <time>2014-03-21T13:52:33Z</time>
      </trkpt>
      <trkpt lat="43.36857" lon="5.53084">
        <ele>317.37</ele>
        <time>2014-03-21T13:52:37Z</time>
      </trkpt>
      <trkpt lat="43.36842" lon="5.53096">
        <ele>318.81</ele>
        <time>2014-03-21T13:52:50Z</time>
      </trkpt>
      <trkpt lat="43.3684" lon="5.53097">
        <ele>318.81</ele>
        <time>2014-03-21T13:52:52Z</time>
      </trkpt>
      <trkpt lat="43.36834" lon="5.53101">
        <ele>319.78</ele>
        <time>2014-03-21T13:52:59Z</time>
      </trkpt>
      <trkpt lat="43.36823" lon="5.53106">
        <ele>320.74</ele>
        <time>2014-03-21T13:53:10Z</time>
      </trkpt>
      <trkpt lat="43.36816" lon="5.53116">
        <ele>321.7</ele>
        <time>2014-03-21T13:53:20Z</time>
      </trkpt>
      <trkpt lat="43.36813" lon="5.53122">
        <ele>321.7</ele>
        <time>2014-03-21T13:53:25Z</time>
      </trkpt>
      <trkpt lat="43.36814" lon="5.53136">
        <ele>322.18</ele>
        <time>2014-03-21T13:53:34Z</time>
      </trkpt>
      <trkpt lat="43.36824" lon="5.53148">
        <ele>323.62</ele>
        <time>2014-03-21T13:53:45Z</time>
      </trkpt>
      <trkpt lat="43.36831" lon="5.53157">
        <ele>324.1</ele>
        <time>2014-03-21T13:53:54Z</time>
      </trkpt>
      <trkpt lat="43.36836" lon="5.53163">
        <ele>325.06</ele>
        <time>2014-03-21T13:54:00Z</time>
      </trkpt>
      <trkpt lat="43.36837" lon="5.53165">
        <ele>325.06</ele>
        <time>2014-03-21T13:54:02Z</time>
      </trkpt>
      <trkpt lat="43.36838" lon="5.53173">
        <ele>325.54</ele>
        <time>2014-03-21T13:54:08Z</time>
      </trkpt>
      <trkpt lat="43.36835" lon="5.53186">
        <ele>326.99</ele>
        <time>2014-03-21T13:54:17Z</time>
      </trkpt>
      <trkpt lat="43.36829" lon="5.53196">
        <ele>327.47</ele>
        <time>2014-03-21T13:54:25Z</time>
      </trkpt>
      <trkpt lat="43.36826" lon="5.53199">
        <ele>327.47</ele>
        <time>2014-03-21T13:54:28Z</time>
      </trkpt>
      <trkpt lat="43.36816" lon="5.53213">
        <ele>328.43</ele>
        <time>2014-03-21T13:54:39Z</time>
      </trkpt>
      <trkpt lat="43.36808" lon="5.53226">
        <ele>329.39</ele>
        <time>2014-03-21T13:54:51Z</time>
      </trkpt>
      <trkpt lat="43.36801" lon="5.53239">
        <ele>329.39</ele>
        <time>2014-03-21T13:55:02Z</time>
      </trkpt>
      <trkpt lat="43.36801" lon="5.5324">
        <ele>329.39</ele>
        <time>2014-03-21T13:55:03Z</time>
      </trkpt>
      <trkpt lat="43.36796" lon="5.53255">
        <ele>329.39</ele>
        <time>2014-03-21T13:55:12Z</time>
      </trkpt>
      <trkpt lat="43.36796" lon="5.53264">
        <ele>329.39</ele>
        <time>2014-03-21T13:55:17Z</time>
      </trkpt>
      <trkpt lat="43.36804" lon="5.53275">
        <ele>329.39</ele>
        <time>2014-03-21T13:55:26Z</time>
      </trkpt>
      <trkpt lat="43.36805" lon="5.53276">
        <ele>329.39</ele>
        <time>2014-03-21T13:55:27Z</time>
      </trkpt>
      <trkpt lat="43.36811" lon="5.5328">
        <ele>329.39</ele>
        <time>2014-03-21T13:55:32Z</time>
      </trkpt>
      <trkpt lat="43.36817" lon="5.53284">
        <ele>329.39</ele>
        <time>2014-03-21T13:55:38Z</time>
      </trkpt>
      <trkpt lat="43.36832" lon="5.53292">
        <ele>329.87</ele>
        <time>2014-03-21T13:55:49Z</time>
      </trkpt>
      <trkpt lat="43.36833" lon="5.53295">
        <ele>329.39</ele>
        <time>2014-03-21T13:55:52Z</time>
      </trkpt>
      <trkpt lat="43.36843" lon="5.53305">
        <ele>330.35</ele>
        <time>2014-03-21T13:56:04Z</time>
      </trkpt>
      <trkpt lat="43.36845" lon="5.53308">
        <ele>329.87</ele>
        <time>2014-03-21T13:56:07Z</time>
      </trkpt>
      <trkpt lat="43.36848" lon="5.53317">
        <ele>329.87</ele>
        <time>2014-03-21T13:56:17Z</time>
      </trkpt>
      <trkpt lat="43.36849" lon="5.53319">
        <ele>329.87</ele>
        <time>2014-03-21T13:56:30Z</time>
      </trkpt>
      <trkpt lat="43.36849" lon="5.5332">
        <ele>329.87</ele>
        <time>2014-03-21T13:56:55Z</time>
      </trkpt>
      <trkpt lat="43.36849" lon="5.5332">
        <ele>329.39</ele>
        <time>2014-03-21T13:57:03Z</time>
      </trkpt>
      <trkpt lat="43.36852" lon="5.53326">
        <ele>329.87</ele>
        <time>2014-03-21T13:57:10Z</time>
      </trkpt>
      <trkpt lat="43.36855" lon="5.53332">
        <ele>329.87</ele>
        <time>2014-03-21T13:57:15Z</time>
      </trkpt>
      <trkpt lat="43.36861" lon="5.53347">
        <ele>329.39</ele>
        <time>2014-03-21T13:57:25Z</time>
      </trkpt>
      <trkpt lat="43.36863" lon="5.53364">
        <ele>328.43</ele>
        <time>2014-03-21T13:57:37Z</time>
      </trkpt>
      <trkpt lat="43.36865" lon="5.53373">
        <ele>326.99</ele>
        <time>2014-03-21T13:57:47Z</time>
      </trkpt>
      <trkpt lat="43.36865" lon="5.53376">
        <ele>326.5</ele>
        <time>2014-03-21T13:57:50Z</time>
      </trkpt>
      <trkpt lat="43.36862" lon="5.53381">
        <ele>326.5</ele>
        <time>2014-03-21T13:57:52Z</time>
      </trkpt>
      <trkpt lat="43.36854" lon="5.53406">
        <ele>325.06</ele>
        <time>2014-03-21T13:58:05Z</time>
      </trkpt>
      <trkpt lat="43.36853" lon="5.53422">
        <ele>322.66</ele>
        <time>2014-03-21T13:58:18Z</time>
      </trkpt>
      <trkpt lat="43.36846" lon="5.53437">
        <ele>320.26</ele>
        <time>2014-03-21T13:58:30Z</time>
      </trkpt>
      <trkpt lat="43.36844" lon="5.53448">
        <ele>318.81</ele>
        <time>2014-03-21T13:58:40Z</time>
      </trkpt>
      <trkpt lat="43.36833" lon="5.5347">
        <ele>317.37</ele>
        <time>2014-03-21T13:58:51Z</time>
      </trkpt>
      <trkpt lat="43.36832" lon="5.53473">
        <ele>317.37</ele>
        <time>2014-03-21T13:58:53Z</time>
      </trkpt>
      <trkpt lat="43.36821" lon="5.53492">
        <ele>317.85</ele>
        <time>2014-03-21T13:59:05Z</time>
      </trkpt>
      <trkpt lat="43.36815" lon="5.53505">
        <ele>318.81</ele>
        <time>2014-03-21T13:59:15Z</time>
      </trkpt>
      <trkpt lat="43.36816" lon="5.53508">
        <ele>318.81</ele>
        <time>2014-03-21T13:59:17Z</time>
      </trkpt>
      <trkpt lat="43.36825" lon="5.53524">
        <ele>318.81</ele>
        <time>2014-03-21T13:59:29Z</time>
      </trkpt>
      <trkpt lat="43.3683" lon="5.5353">
        <ele>318.33</ele>
        <time>2014-03-21T13:59:36Z</time>
      </trkpt>
      <trkpt lat="43.36841" lon="5.5354">
        <ele>319.3</ele>
        <time>2014-03-21T13:59:48Z</time>
      </trkpt>
      <trkpt lat="43.36846" lon="5.53546">
        <ele>319.78</ele>
        <time>2014-03-21T13:59:55Z</time>
      </trkpt>
      <trkpt lat="43.36855" lon="5.53551">
        <ele>321.22</ele>
        <time>2014-03-21T14:00:04Z</time>
      </trkpt>
      <trkpt lat="43.36866" lon="5.53556">
        <ele>322.66</ele>
        <time>2014-03-21T14:00:15Z</time>
      </trkpt>
      <trkpt lat="43.36869" lon="5.5356">
        <ele>323.14</ele>
        <time>2014-03-21T14:00:20Z</time>
      </trkpt>
      <trkpt lat="43.36873" lon="5.53564">
        <ele>323.62</ele>
        <time>2014-03-21T14:00:25Z</time>
      </trkpt>
      <trkpt lat="43.36883" lon="5.53578">
        <ele>323.62</ele>
        <time>2014-03-21T14:00:36Z</time>
      </trkpt>
      <trkpt lat="43.3689" lon="5.53591">
        <ele>323.14</ele>
        <time>2014-03-21T14:00:46Z</time>
      </trkpt>
      <trkpt lat="43.3689" lon="5.53597">
        <ele>322.66</ele>
        <time>2014-03-21T14:00:53Z</time>
      </trkpt>
      <trkpt lat="43.36878" lon="5.53611">
        <ele>322.18</ele>
        <time>2014-03-21T14:01:04Z</time>
      </trkpt>
      <trkpt lat="43.36874" lon="5.53629">
        <ele>322.18</ele>
        <time>2014-03-21T14:01:16Z</time>
      </trkpt>
      <trkpt lat="43.36874" lon="5.5363">
        <ele>322.18</ele>
        <time>2014-03-21T14:01:17Z</time>
      </trkpt>
      <trkpt lat="43.36874" lon="5.53648">
        <ele>321.7</ele>
        <time>2014-03-21T14:01:25Z</time>
      </trkpt>
      <trkpt lat="43.36872" lon="5.53667">
        <ele>321.22</ele>
        <time>2014-03-21T14:01:37Z</time>
      </trkpt>
      <trkpt lat="43.36872" lon="5.5367">
        <ele>321.22</ele>
        <time>2014-03-21T14:01:39Z</time>
      </trkpt>
      <trkpt lat="43.36867" lon="5.5369">
        <ele>320.74</ele>
        <time>2014-03-21T14:01:52Z</time>
      </trkpt>
      <trkpt lat="43.3686" lon="5.53711">
        <ele>319.78</ele>
        <time>2014-03-21T14:02:05Z</time>
      </trkpt>
      <trkpt lat="43.36853" lon="5.5373">
        <ele>319.3</ele>
        <time>2014-03-21T14:02:19Z</time>
      </trkpt>
      <trkpt lat="43.36845" lon="5.53744">
        <ele>318.81</ele>
        <time>2014-03-21T14:02:31Z</time>
      </trkpt>
      <trkpt lat="43.36838" lon="5.53759">
        <ele>318.33</ele>
        <time>2014-03-21T14:02:42Z</time>
      </trkpt>
      <trkpt lat="43.36837" lon="5.53763">
        <ele>318.33</ele>
        <time>2014-03-21T14:02:45Z</time>
      </trkpt>
      <trkpt lat="43.36833" lon="5.53786">
        <ele>316.89</ele>
        <time>2014-03-21T14:02:58Z</time>
      </trkpt>
      <trkpt lat="43.36838" lon="5.53799">
        <ele>316.41</ele>
        <time>2014-03-21T14:03:09Z</time>
      </trkpt>
      <trkpt lat="43.36837" lon="5.53806">
        <ele>316.89</ele>
        <time>2014-03-21T14:03:11Z</time>
      </trkpt>
      <trkpt lat="43.36842" lon="5.53816">
        <ele>316.41</ele>
        <time>2014-03-21T14:03:16Z</time>
      </trkpt>
      <trkpt lat="43.36843" lon="5.53819">
        <ele>316.41</ele>
        <time>2014-03-21T14:03:18Z</time>
      </trkpt>
      <trkpt lat="43.36845" lon="5.53826">
        <ele>316.41</ele>
        <time>2014-03-21T14:03:22Z</time>
      </trkpt>
      <trkpt lat="43.36856" lon="5.53837">
        <ele>315.93</ele>
        <time>2014-03-21T14:03:31Z</time>
      </trkpt>
      <trkpt lat="43.36862" lon="5.53842">
        <ele>315.93</ele>
        <time>2014-03-21T14:03:38Z</time>
      </trkpt>
      <trkpt lat="43.36876" lon="5.53836">
        <ele>315.45</ele>
        <time>2014-03-21T14:03:49Z</time>
      </trkpt>
      <trkpt lat="43.36886" lon="5.53825">
        <ele>314.49</ele>
        <time>2014-03-21T14:03:58Z</time>
      </trkpt>
      <trkpt lat="43.36899" lon="5.53816">
        <ele>314.01</ele>
        <time>2014-03-21T14:04:10Z</time>
      </trkpt>
      <trkpt lat="43.36901" lon="5.53814">
        <ele>314.01</ele>
        <time>2014-03-21T14:04:12Z</time>
      </trkpt>
      <trkpt lat="43.36908" lon="5.53801">
        <ele>313.05</ele>
        <time>2014-03-21T14:04:22Z</time>
      </trkpt>
      <trkpt lat="43.36915" lon="5.53788">
        <ele>312.57</ele>
        <time>2014-03-21T14:04:34Z</time>
      </trkpt>
      <trkpt lat="43.36921" lon="5.53771">
        <ele>312.09</ele>
        <time>2014-03-21T14:04:45Z</time>
      </trkpt>
      <trkpt lat="43.36926" lon="5.53762">
        <ele>311.6</ele>
        <time>2014-03-21T14:04:52Z</time>
      </trkpt>
      <trkpt lat="43.36935" lon="5.53748">
        <ele>310.64</ele>
        <time>2014-03-21T14:05:04Z</time>
      </trkpt>
      <trkpt lat="43.3694" lon="5.53743">
        <ele>310.64</ele>
        <time>2014-03-21T14:05:10Z</time>
      </trkpt>
      <trkpt lat="43.36943" lon="5.53739">
        <ele>310.16</ele>
        <time>2014-03-21T14:05:13Z</time>
      </trkpt>
      <trkpt lat="43.36945" lon="5.53738">
        <ele>310.16</ele>
        <time>2014-03-21T14:05:15Z</time>
      </trkpt>
      <trkpt lat="43.36953" lon="5.53733">
        <ele>309.68</ele>
        <time>2014-03-21T14:05:26Z</time>
      </trkpt>
      <trkpt lat="43.36956" lon="5.53731">
        <ele>309.68</ele>
        <time>2014-03-21T14:05:28Z</time>
      </trkpt>
      <trkpt lat="43.36958" lon="5.5373">
        <ele>309.68</ele>
        <time>2014-03-21T14:05:30Z</time>
      </trkpt>
      <trkpt lat="43.36968" lon="5.53731">
        <ele>309.2</ele>
        <time>2014-03-21T14:05:39Z</time>
      </trkpt>
      <trkpt lat="43.36972" lon="5.53731">
        <ele>309.2</ele>
        <time>2014-03-21T14:05:41Z</time>
      </trkpt>
      <trkpt lat="43.36989" lon="5.53732">
        <ele>308.24</ele>
        <time>2014-03-21T14:05:52Z</time>
      </trkpt>
      <trkpt lat="43.36993" lon="5.53731">
        <ele>308.24</ele>
        <time>2014-03-21T14:05:56Z</time>
      </trkpt>
      <trkpt lat="43.37008" lon="5.53728">
        <ele>307.76</ele>
        <time>2014-03-21T14:06:07Z</time>
      </trkpt>
      <trkpt lat="43.37017" lon="5.53729">
        <ele>307.28</ele>
        <time>2014-03-21T14:06:17Z</time>
      </trkpt>
      <trkpt lat="43.37012" lon="5.53731">
        <ele>307.28</ele>
        <time>2014-03-21T14:06:27Z</time>
      </trkpt>
      <trkpt lat="43.37009" lon="5.53736">
        <ele>307.28</ele>
        <time>2014-03-21T14:06:44Z</time>
      </trkpt>
      <trkpt lat="43.37012" lon="5.53731">
        <ele>306.8</ele>
        <time>2014-03-21T14:06:58Z</time>
      </trkpt>
      <trkpt lat="43.37014" lon="5.53732">
        <ele>306.8</ele>
        <time>2014-03-21T14:07:01Z</time>
      </trkpt>
      <trkpt lat="43.37019" lon="5.53728">
        <ele>306.8</ele>
        <time>2014-03-21T14:07:05Z</time>
      </trkpt>
      <trkpt lat="43.37027" lon="5.53718">
        <ele>306.8</ele>
        <time>2014-03-21T14:07:15Z</time>
      </trkpt>
      <trkpt lat="43.3703" lon="5.53717">
        <ele>306.8</ele>
        <time>2014-03-21T14:07:17Z</time>
      </trkpt>
      <trkpt lat="43.37043" lon="5.53714">
        <ele>306.32</ele>
        <time>2014-03-21T14:07:29Z</time>
      </trkpt>
      <trkpt lat="43.37043" lon="5.53714">
        <ele>306.32</ele>
        <time>2014-03-21T14:07:30Z</time>
      </trkpt>
      <trkpt lat="43.3705" lon="5.53721">
        <ele>306.32</ele>
        <time>2014-03-21T14:07:39Z</time>
      </trkpt>
      <trkpt lat="43.37055" lon="5.53731">
        <ele>306.8</ele>
        <time>2014-03-21T14:07:49Z</time>
      </trkpt>
      <trkpt lat="43.37058" lon="5.5373">
        <ele>306.8</ele>
        <time>2014-03-21T14:08:03Z</time>
      </trkpt>
      <trkpt lat="43.37057" lon="5.53729">
        <ele>307.28</ele>
        <time>2014-03-21T14:08:14Z</time>
      </trkpt>
      <trkpt lat="43.37059" lon="5.53729">
        <ele>306.8</ele>
        <time>2014-03-21T14:08:22Z</time>
      </trkpt>
      <trkpt lat="43.3706" lon="5.53728">
        <ele>306.8</ele>
        <time>2014-03-21T14:08:31Z</time>
      </trkpt>
      <trkpt lat="43.37059" lon="5.53727">
        <ele>306.8</ele>
        <time>2014-03-21T14:08:54Z</time>
      </trkpt>
      <trkpt lat="43.37059" lon="5.53727">
        <ele>303.43</ele>
        <time>2014-03-21T14:08:58Z</time>
      </trkpt>
      <trkpt lat="43.37059" lon="5.53727">
        <ele>309.68</ele>
        <time>2014-03-21T14:08:59Z</time>
      </trkpt>
      <trkpt lat="43.37059" lon="5.53727">
        <ele>305.84</ele>
        <time>2014-03-21T14:09:12Z</time>
      </trkpt>
      <trkpt lat="43.37059" lon="5.53726">
        <ele>307.28</ele>
        <time>2014-03-21T14:09:36Z</time>
      </trkpt>
      <trkpt lat="43.37059" lon="5.53725">
        <ele>306.32</ele>
        <time>2014-03-21T14:10:02Z</time>
      </trkpt>
    </trkseg>
  </trk>
</gpx>